     2              OBSERVATION DATA    GPS                 RINEX VERSION / TYPE
ASRINEXO V2.2.0 UX USGS 19-MAY-94 13:14                     PGM / RUN BY / DATE
                                                            COMMENT
Original Marker Name: patt Pattiway_1938_USC&GS             COMMENT
Campaign Name: cuyama point                                 COMMENT
4-Character Station Name: PATT                              COMMENT
6-Character Antenna Code: ASHL12                            COMMENT
Vertical Measurement Point: BBE                             COMMENT
Vertical Offset to Rinex Ref. Point: 0.0595                 COMMENT
Radial Measurement Point: EGP                               COMMENT
Radial Offset to Rinex Ref. Point: 0.1424                   COMMENT
Antenna Height from Field Measurement: 1.2250 m             COMMENT
Additional Antenna Identification Info.:                    COMMENT
Original Ashtech L1/L2                                      COMMENT
Original XYZ: -2607610.8100 -4476291.2700 3709567.0600      COMMENT
New XYZ position is based on association with SCEC monument COMMENT
E1E9U0W5+0011. Position of that monument is believed to be  COMMENT
valid to within 1 m horizontally; vertical accuracy         COMMENT
should be no worse than 3-times this value.                 COMMENT
                                                            COMMENT
Revised Rinex header created by UCSD GPS archive for        COMMENT
GSAC on 11-Nov-1999 (1999:315) 02:44:24 GMT                 COMMENT
For assistance contact dagnew@ucsd.edu or hjohnson@ucsd.edu COMMENT
                                                            COMMENT
PATT PATTIWAY_1938_USC&GS                                   MARKER NAME
                                                            MARKER NUMBER
CHS US GEOLOGICAL SURVEY                                    OBSERVER / AGENCY
763 ASHTECH L-XII 7A                                        REC # / TYPE / VERS
718 ASHTECH GEODETIC L                                      ANT # / TYPE
 -2571863.0000 -4558303.0000  3634771.0000                  APPROX POSITION XYZ
        1.1572        0.0000        0.0000                  ANTENNA: DELTA H/E/N
     1     2     0                                          WAVELENGTH FACT L1/2
     3    C1    L1    L2                                    # / TYPES OF OBSERV
    30                                                      INTERVAL
  1994     5    10    14    53    0.000000                  TIME OF FIRST OBS
  1994     5    11     0     0    0.000000                  TIME OF LAST OBS
                                                            END OF HEADER
 94  5 10 14 53  0.0000000  0  1 14
  24038474.360    -4896160.98715    243104.386
 94  5 10 14 53 30.0000000  0  2 18 14
  20436960.806     4496161.24118    -15359.561 3
  24061357.939    -4775898.598 5    336816.963
 94  5 10 14 54  0.0000000  0  4 18 19 22 14
  20435447.004     4488214.012 8    -21552.217 7
  21433483.258      -95818.15517    -57316.892 2
  24279087.547     4086052.46816    248101.086
  24084258.845    -4655516.285 5    430622.241 1
 94  5 10 14 54 30.0000000  0  5 18 19 28 22 14
  20434019.543     4480713.404 8    -27396.851 9
  21428141.346     -123908.559 8    -79205.522 5
  23892158.643     8493708.57315    -61503.016
  24300054.582     4196209.487 5    333937.274 1
  24107187.901    -4534993.868 5    524535.721 1
 94  5 10 14 55  0.0000000  0  8 31 29 18 19 28 22 27 14
  23796340.117    11696563.57815   -159790.418
  21072714.184     8595062.61318    100590.300 3
  20432677.162     4473650.496 8    -32900.417 9
  21422844.313     -151728.149 8   -100883.123 6
  23886184.918     8462328.263 5    -85955.651 1
  24321060.830     4306594.845 5    419951.808 2
  23516358.244     5394240.98515   -160892.273
  24130152.303    -4414347.014 5    618546.197 2
 94  5 10 14 55 30.0000000  0  8 31 29 18 19 28 22 27 14
  23783047.829    11626719.683 5   -214213.647 1
  21080679.040     8636919.053 8    133205.704 6
  20431417.014     4467027.087 9    -38061.509 9
  21417603.642     -179285.359 8   -122356.246 7
  23880303.260     8431421.848 5   -110038.538 2
  24342112.346     4417212.703 5    506147.496 2
  23504079.464     5329702.545 5   -211184.784
  24153135.202    -4293606.139 5    712629.838 2
 94  5 10 14 56  0.0000000  0  8 31 29 18 19 28 22 27 14
  23769808.184    11557115.034 5   -268451.014 2
  21088722.591     8679185.859 8    166140.854 7
  20430240.209     4460846.622 8    -42877.463 9
  21412407.789     -206584.519 8   -143628.322 8
  23874512.589     8400979.788 5   -133759.595 2
  24363201.217     4528040.326 5    592506.643 2
  23491823.769     5265306.362 5   -261363.736 1
  24176120.650    -4172789.575 5    806772.508 2
 94  5 10 14 56 30.0000000  0  8 31 29 18 19 28 22 27 14
  23756612.399    11487762.379 6   -322491.969 2
  21096840.611     8721851.908 8    199387.144 8
  20429146.866     4455094.426 8    -47359.673 9
  21407263.320     -233620.982 8   -164695.655 8
  23868803.101     8370990.457 5   -157127.856 2
  24384323.904     4639049.060 5    679006.946 3
  23479592.027     5201054.463 5   -311430.117 2
  24199128.492    -4051915.593 5    900960.005 2
 94  5 10 14 57  0.0000000  0  8 31 29 18 19 28 22 27 14
  23743446.084    11418605.607 5   -376380.322 2
  21105028.123     8764871.037 8    232908.501 9
  20428124.813     4449718.790 8    -51548.512 9
  21402155.816     -260460.783 8   -185609.803 9
  23863174.618     8341380.768 5   -180200.330 3
  24405471.893     4750179.903 5    765602.326 2
  23467386.097     5136905.199 5   -361416.565 2
  24222121.015    -3931046.484 5    995143.535 2
 94  5 10 14 57 30.0000000  0  8 31 29 18 19 28 22 27 14
  23730337.179    11349698.577 5   -430074.049 2
  21113295.050     8808314.751 8    266760.746 9
  20427185.804     4444796.769 8    -55383.838 9
  21397097.028     -287036.397 8   -206318.068 9
  23857622.432     8312210.480 5   -202930.389 3
  24426652.201     4861469.615 5    852321.547 3
  23455216.921     5072916.722 6   -411277.679 2
  24245136.921    -3810123.172 5   1089369.441 2
 94  5 10 14 58  0.0000000  0  8 31 29 18 19 28 22 27 14
  23717274.263    11281062.491 5   -483556.644 3
  21121639.143     8852188.246 8    300947.873 9
  20426336.971     4440335.904 9    -58859.847 9
  21392094.691     -313319.425 8   -226798.330 9
  23852160.003     8283506.361 5   -225297.227 3
  24447856.761     4972920.854 5    939166.606 3
  23443071.100     5009104.714 6   -461001.329 3
  24268163.710    -3689119.947 5   1183657.509 2
 94  5 10 14 58 30.0000000  0  8 31 29 18 19 28 22 27 14
  23704264.709    11212700.498 5   -536825.662 3
  21130076.053     8896503.307 8    335479.082 9
  20425572.860     4436335.459 8    -61977.074 9
  21387149.195     -339326.185 8   -247063.330 9
  23846786.913     8255274.998 5   -247295.664 3
  24469103.652     5084549.385 5   1026149.844 3
  23430957.925     4945482.575 5   -510576.979 3
  24291197.364    -3568032.602 5   1278011.190 2
 94  5 10 14 59  0.0000000  0  8 31 29 18 19 28 22 27 14
  23691310.887    11144595.852 5   -589894.145 3
  21138590.099     8941246.780 8    370344.119 9
  20424898.297     4432781.322 8    -64746.553 9
  21382247.978     -365068.606 8   -267122.349 9
  23841504.810     8227503.680 5   -268935.639 3
  24490376.865     5196357.791 5   1113273.272 3
  23418885.823     4882017.874 6   -560029.958 3
  24314258.359    -3446861.091 5   1372430.474 2
 94  5 10 14 59 30.0000000  0  8 31 29 18 19 28 22 27 14
  23678394.808    11076749.351 5   -642761.513 3
  21147183.589     8986409.324 8    405535.709 9
  20424304.918     4429655.840 8    -67181.987 9
  21377403.991     -390537.354 8   -286968.137 9
  23836299.603     8200189.630 5   -290219.294 4
  24511680.417     5308331.628 4   1200525.541 2
  23406828.620     4818692.265 5   -609374.594 3
  24337333.295    -3325610.075 5   1466911.648 2
 94  5 10 15  0  0.0000000  0  8 31 29 18 19 28 22 27 14
  23665537.579    11009183.398 5   -695410.211 3
  21155863.540     9032026.015 8    441081.174 9
  20423793.922     4426976.389 8    -69269.864 9
  21372606.862     -415726.052 8   -306595.683 9
  23831195.277     8173367.148 5   -311119.917 3
  24533025.790     5420507.152 5   1287935.048 2
  23394815.246     4755539.441 6   -658584.548 3
  24360430.595    -3204243.737 5   1561482.736 3
 94  5 10 15  0 30.0000000  0  8 31 29 18 19 28 22 27 14
  23652730.086    10941880.423 5   -747854.041 3
  21164633.609     9078097.488 8    476981.024 9
  20423369.176     4424746.783 8    -71007.231 9
  21367866.124     -440650.059 8   -326016.972 9
  23826189.942     8147037.576 5   -331636.458 3
  24554419.759     5532873.629 5   1375493.288 2
  23382829.334     4692560.763 6   -707658.814 3
  24383539.257    -3082772.533 5   1656135.502 3
 94  5 10 15  1  0.0000000  0  8 31 29 18 19 28 22 27 14
  23639971.428    10874832.792 5   -800098.894 3
  21173479.675     9124601.345 8    513217.782 9
  20423030.620     4422964.609 8    -72395.935 9
  21363176.021     -465299.104 8   -345224.003 9
  23821272.536     8121199.892 5   -351769.665 3
  24575826.349     5645399.575 4   1463175.815 2
  23370874.660     4629740.892 6   -756609.360 3
  24406676.639    -2961220.115 5   1750851.543 3
 94  5 10 15  1 30.0000000  0  8 31 29 18 19 28 22 27 14
  23627260.108    10808043.893 5   -852142.138 3
  21182412.711     9171536.492 8    549790.604 9
  20422778.884     4421643.970 8    -73425.019 9
  21358538.142     -489676.503 8   -364219.392 9
  23816459.038     8095865.897 5   -371510.438 3
  24597269.275     5758076.214 4   1550975.764 2
  23358954.882     4567099.796 6   -805420.567 4
  24429818.549    -2839585.183 5   1845631.887 3
 94  5 10 15  2  0.0000000  0  8 31 29 18 19 28 22 27 14
  23614599.813    10741509.364 5   -903987.137 3
  21191425.192     9218886.062 8    586686.378 9
  20422615.318     4420787.794 8    -74092.174 9
  21353944.032     -513804.986 8   -383020.782 9
  23811726.305     8071044.178 5   -390852.046 3
  24618733.036     5870898.361 5   1638889.049 2
  23347072.428     4504632.864 6   -854096.097 4
  24452982.672    -2717876.012 5   1940470.081 3
 94  5 10 15  2 30.0000000  0  8 31 29 18 19 28 22 27 14
  23601992.970    10675259.366 5   -955610.446 3
  21200510.162     9266639.190 8    623896.599 9
  20422545.826     4420398.421 8    -74395.577 9
  21349400.827     -537681.583 8   -401625.919 9
  23807104.704     8046726.764 5   -409800.629 3
  24640238.498     5983869.180 5   1726918.238 2
  23335216.056     4442333.278 6   -902641.195 4
  24476148.325    -2596111.754 5   2035351.238 3
 94  5 10 15  3  0.0000000  0  8 31 29 18 19 28 22 27 14
  23589446.506    10609306.469 5  -1007002.298 3
  21209675.567     9314796.682 8    661421.896 9
  20422556.768     4420472.378 8    -74337.973 9
  21344903.491     -561308.978 8   -420036.867 9
  23802567.525     8022898.974 5   -428367.747 3
  24661761.468     6096989.326 5   1815063.751 2
  23323391.612     4380187.986 6   -951066.092 4
  24499342.278    -2474286.417 5   2130279.930 3
 94  5 10 15  3 30.0000000  0  8 31 29 18 19 28 22 27 14
  23576951.276    10543654.687 5  -1058159.462 3
  21218920.537     9363375.774 8    699275.729 9
  20422658.548     4421006.702 8    -73921.620 9
  21340451.363     -584703.086 8   -438266.036 9
  23798124.991     7999557.743 5   -446555.700 3
  24683320.023     6210268.204 5   1903333.001 2
  23311590.492     4318200.092 5   -999368.309 4
  24522527.208    -2352402.212 4   2225254.522 3
 94  5 10 15  4  0.0000000  0  8 31 29 18 19 28 22 27 14
  23564515.256    10478315.280 5  -1109073.235 3
  21228245.911     9412386.898 8    737466.191 9
  20422847.777     4422012.522 8    -73137.886 9
  21336048.041     -607866.457 8   -456315.415 9
  23793771.615     7976710.701 5   -464358.608 3
  24704910.386     6323709.480 5   1991728.747 2
  23299828.255     4256365.450 6  -1047551.144 4
  24545738.789    -2230483.719 4   2320255.833 3
 94  5 10 15  4 30.0000000  0  8 31 29 18 19 28 22 27 14
  23552134.487    10413283.022 5  -1159747.629 3
  21237657.116     9461840.649 8    776001.583 9
  20423130.121     4423493.440 8    -71983.932 9
  21331685.461     -630782.159 8   -474171.812 9
  23789523.496     7954355.600 5   -481778.124 3
  24726524.193     6437317.224 5   2080254.206 2
  23288088.232     4194681.516 5  -1095616.485 4
  24568943.504    -2108535.525 5   2415280.275 3
 94  5 10 15  5  0.0000000  0  8 31 29 18 19 28 22 27 14
  23539814.486    10348531.790 5  -1210203.097 3
  21247150.704     9511736.463 8    814881.444 9
  20423505.282     4425445.838 8    -70462.577 9
  21327374.356     -653441.654 8   -491828.548 9
  23785364.055     7932498.519 5   -498809.631 3
  24748172.087     6551072.884 5   2168894.973 2
  23276379.118     4133148.013 5  -1143564.646 4
  24592141.055    -1986558.065 4   2510327.532 2
 94  5 10 15  5 30.0000000  0  8 31 29 18 19 28 22 27 14
  23527551.805    10284057.328 5  -1260442.870 3
  21256727.874     9562064.201 8    854097.818 9
  20423963.784     4427858.995 8    -68582.215 9
  21323108.459     -675846.098 8   -509286.543 9
  23781305.944     7911148.697 6   -515445.868 3
  24769844.923     6664973.644 5   2257648.795 2
  23264696.296     4071761.522 5  -1191398.242 4
  24615360.161    -1864562.734 4   2605388.691 2
 94  5 10 15  6  0.0000000  0  8 31 29 18 19 28 22 27 14
  23515333.164    10219857.897 5  -1310468.338 3
  21266383.079     9612810.946 8    893640.739 9
  20424508.177     4430716.374 8    -66355.682 9
  21318894.486     -697993.880 8   -526544.549 9
  23777330.966     7890298.871 6   -531692.468 3
  24791549.987     6779013.491 5   2346511.007 2
  23253041.954     4010513.729 6  -1239123.754 4
  24638571.982    -1742536.316 4   2700474.141 2
 94  5 10 15  6 30.0000000  0  8 31 29 18 19 28 22 27 14
  23503166.656    10155932.229 5  -1360280.504 3
  21276120.009     9663978.868 8    933511.838 9
  20425133.814     4434004.582 8    -63793.453 9
  21314729.080     -719879.887 8   -543598.571 9
  23773455.249     7869938.696 6   -547557.572 3
  24813270.730     6893190.696 5   2435480.163 2
  23241414.474     3949413.112 6  -1286734.609 4
  24661814.471    -1620462.576 4   2795596.355 2
 94  5 10 15  7  0.0000000  0  8 31 29 18 19 28 22 27 14
  23491058.069    10092294.840 5  -1409868.036 3
  21285936.293     9715559.626 8    973704.629 9
  20425840.725     4437719.917 8    -60898.399 9
  21310613.679     -741518.336 8   -560459.700 9
  23769680.323     7850063.351 6   -563044.857 3
  24835023.101     7007496.247 5   2524549.426 2
  23229821.199     3888473.709 6  -1334219.850 4
  24685056.691    -1498338.928 5   2890757.609 2
 94  5 10 15  7 30.0000000  0  8 31 29 18 19 28 22 27 14
  23479007.222    10028962.277 5  -1459218.048 3
  21295832.712     9767555.845 8   1014221.147 9
  20426629.479     4441879.388 8    -57657.256 9
  21306537.971     -762922.443 8   -577138.223 9
  23765984.032     7830663.674 6   -578161.473 3
  24856802.094     7121933.128 5   2613720.990 2
  23218250.979     3827700.899 6  -1381575.266 4
  24708295.133    -1376159.667 4   2985962.102 2
 94  5 10 15  8  0.0000000  0  8 31 29 18 19 28 22 27 14
  23467017.202     9965935.451 5  -1508329.813 4
  21305806.837     9819976.448 8   1055068.344 9
  20427510.958     4446503.697 8    -54053.908 9
  21302510.949     -784086.683 8   -593629.831 9
  23762381.276     7811744.931 6   -592903.367 3
  24878602.912     7236497.366 5   2702991.749 3
  23206719.732     3767102.723 6  -1428794.597 4
  24731558.998    -1253944.088 5   3081194.916 2
 94  5 10 15  8 30.0000000  0  8 31 29 18 19 28 22 27 14
  23455075.239     9903222.718 5  -1557196.837 4
  21315861.336     9872817.139 8   1096242.910 9
  20428483.395     4451609.017 8    -50075.742 9
  21298530.904     -805003.799 8   -609928.860 9
  23758878.291     7793316.302 6   -607263.345 3
  24900427.503     7351174.489 5   2792350.530 3
  23195222.691     3706680.959 6  -1475876.465 4
  24754819.265    -1131713.930 5   3176439.073 2
 94  5 10 15  9  0.0000000  0  8 31 29 18 19 28 22 27 14
  23443205.826     9840828.291 5  -1605815.791 4
  21325997.049     9926074.439 8   1137742.090 9
  20429549.577     4457196.842 8    -45721.584 9
  21294597.357     -825677.047 8   -626037.882 9
  23755470.100     7775385.477 6   -621235.397 3
  24922267.983     7465947.539 5   2881784.048 3
  23183753.262     3646416.328 6  -1522835.879 4
  24778076.325    -1009484.480 5   3271682.696 2
 94  5 10 15  9 30.0000000  0  8 31 29 18 19 28 22 27 14
  23431392.115     9778751.065 5  -1654187.607 4
  21336212.837     9979761.237 8   1179575.934 9
  20430704.018     4463270.791 8    -40988.654 9
  21290709.259     -846099.233 8   -641951.282 9
  23752150.348     7757964.916 6   -634809.895 3
  24944126.930     7580816.216 5   2971292.074 3
  23172314.620     3586282.683 6  -1569693.250 5
  24801328.348     -887276.260 4   3366909.787 2
 94  5 10 15 10  0.0000000  0  8 31 29 18 19 28 22 27 14
  23419640.700     9716997.287 5  -1702307.397 4
  21346507.830    10033876.418 8   1221743.608 9
  20431945.968     4469808.501 8    -35894.316 9
  21286875.333     -866265.180 8   -657664.976 9
  23748933.545     7741073.556 6   -647971.996 3
  24966005.154     7695790.276 5   3060882.203 3
  23160892.348     3526275.359 6  -1616452.165 5
  24824582.049     -765097.380 4   3462114.005 2
 94  5 10 15 10 30.0000000  0  8 31 29 18 19 28 22 27 14
  23407955.360     9655582.433 6  -1750163.072 4
  21356885.806    10088407.450 8   1264235.307 9
  20433277.556     4476789.869 8    -30454.303 9
  21283083.648     -886185.438 8   -673187.261 9
  23745818.102     7724702.392 6   -660728.762 4
  24987903.884     7810863.270 5   3150549.461 3
  23149501.254     3466394.252 6  -1663112.756 5
  24847825.918     -642939.372 4   3557301.971 2
 94  5 10 15 11  0.0000000  0  8 31 29 18 19 28 22 27 14
  23396335.164     9594502.329 6  -1797757.925 5
  21367341.757    10143355.428 8   1307051.903 9
  20434682.114     4484203.917 8    -24677.119 9
  21279334.953     -905886.239 8   -688538.543 9
  23742802.940     7708835.157 6   -673092.853 4
  25009827.527     7926045.743 4   3240301.980 3
  23138126.588     3406638.720 6  -1709675.485 5
  24871075.063     -520800.630 4   3652474.893 2
 94  5 10 15 11 30.0000000  0  8 31 29 18 19 28 22 27 14
  23384769.531     9533751.596 6  -1845096.136 5
  21377874.785    10198702.974 8   1350179.836 9
  20436174.601     4492042.470 8    -18569.153 9
  21275625.261     -925377.758 8   -703726.738 9
  23739874.687     7693462.416 6   -685071.616 4
  25031765.080     8041353.378 4   3330152.045 3
  23126781.063     3347026.335 6  -1756126.684 5
  24894312.366     -398677.573 4   3747635.592 2
 94  5 10 15 12  0.0000000  0  7 31 29 18 19 28 27 14
  23373277.197     9473336.072 5  -1892173.111 5
  21388482.012    10254438.457 8   1393610.086 9
  20437748.661     4500312.143 8    -12125.248 9
  21271958.410     -944651.767 8   -718745.434 9
  23737045.305     7678583.436 6   -696665.628 4
  23115469.773     3287585.308 6  -1802444.308 5
  24917541.125     -276547.438 3   3842801.860 2
 94  5 10 15 12 30.0000000  0  6 31 29 18 19 28 27
  23361840.085     9413260.634 5  -1938985.086 5
  21399163.437    10310569.860 8   1437348.835 9
  20439411.850     4509044.369 8     -5320.918 9
  21268332.510     -963693.851 8   -733583.412 9
  23734311.798     7664202.532 6   -707871.512 4
  23104195.448     3228325.002 6  -1848621.154 5
 94  5 10 15 13  0.0000000  0  6 31 29 18 19 28 27
  23350475.552     9353516.106 5  -1985539.197 5
  21409920.111    10367097.920 8   1481396.658 9
  20441165.516     4518262.056 8      1861.698 9
  21264752.238     -982499.447 8   -748237.118 9
  23731670.566     7650335.384 6   -718677.106 4
  23092950.743     3169235.343 6  -1894664.969 5
 94  5 10 15 13 30.0000000  0  6 31 29 18 19 28 27
  23339167.141     9294096.724 5  -2031839.960 5
  21420751.672    10424014.829 8   1525747.486 9
  20443012.807     4527983.240 8      9436.634 9
  21261225.630    -1001048.306 8   -762690.772 9
  23729135.551     7636999.018 6   -729069.065 4
  23081743.991     3110312.438 6  -1940578.899 5
 94  5 10 15 14  0.0000000  0  6 31 29 18 19 28 27
  23327922.585     9235010.529 5  -2077881.087 5
  21431657.282    10481327.856 8   1570406.975 9
  20444964.426     4538227.531 8     17419.199 9
  21257743.990    -1019338.865 8   -776943.170 9
  23726696.860     7624204.535 6   -739038.786 4
  23070553.578     3051535.357 6  -1986379.211 5
 94  5 10 15 14 30.0000000  0  6 31 29 18 19 28 27
  23316750.400     9176277.060 5  -2123647.372 5
  21442642.068    10539047.307 8   1615383.151 9
  20447013.327     4548992.101 8     25807.173 9
  21254309.628    -1037384.258 8   -791004.496 9
  23724365.134     7611957.818 6   -748581.672 4
  23059394.973     2992890.980 6  -2032076.077 5
 94  5 10 15 15  0.0000000  0  6 31 29 18 19 28 27
  23305633.046     9117887.337 5  -2169145.792 5
  21453701.382    10597173.178 8   1660676.037 9
  20449159.362     4560264.861 8     34591.141 9
  21250919.874    -1055203.442 8   -804889.579 9
  23722132.969     7600248.435 6   -757705.855 4
  23048256.454     2934370.909 6  -2077676.113 5
 94  5 10 15 15 30.0000000  0  6 31 29 18 19 28 27
  23294591.900     9059845.532 5  -2214373.121 5
  21464845.657    10655717.124 8   1706294.679 9
  20451393.565     4572018.022 8     43749.454 9
  21247571.402    -1072789.131 8   -818592.715 9
  23720006.961     7589065.740 5   -766419.668 4
  23037148.514     2875982.290 6  -2123173.723 5
 94  5 10 15 16  0.0010000  0  6 31 29 18 19 28 27
  23283612.780     9002161.895 5  -2259321.342 5
  21476062.541    10714684.741 8   1752243.462 9
  20453719.205     4584226.615 8     53262.637 9
  21244270.028    -1090145.421 8   -832117.090 9
  23717980.124     7578396.122 5   -774733.656 4
  23026057.602     2817716.283 6  -2168575.768 5
 94  5 10 15 16 30.0010000  0  6 31 29 18 19 28 27
  23272700.095     8944827.647 5  -2303997.289 5
  21487365.886    10774075.941 8   1798522.310 9
  20456122.671     4596871.223 8     63115.577 9
  21241014.881    -1107261.191 8   -845454.042 9
  23716043.285     7568226.520 5   -782658.001 4
  23014999.397     2759588.138 6  -2213870.413 5
 94  5 10 15 17  0.0010000  0  6 31 29 18 19 28 27
  23261856.392     8887830.318 6  -2348410.745 5
  21498748.916    10833885.939 8   1845127.507 9
  20458614.576     4609951.293 8     73307.842 9
  21237804.404    -1124116.569 8   -858588.111 9
  23714202.859     7558558.582 6   -790191.448 4
  23003964.787     2701615.805 6  -2259043.619 5
 94  5 10 15 17 30.0010000  0  6 31 29 18 19 28 27
  23251079.393     8831183.877 6  -2392550.769 5
  21510207.074    10894098.804 8   1892046.596 9
  20461184.397     4623455.532 8     83830.633 9
  21234648.339    -1140711.097 8   -871518.895 9
  23712459.686     7549391.914 6   -797334.309 4
  22992965.431     2643788.678 6  -2304103.694 5
 94  5 10 15 18  0.0010000  0  6 31 29 18 19 28 27
  23240361.453     8774889.932 6  -2436416.122 5
  21521740.389    10954705.682 8   1939272.737 9
  20463839.149     4637409.611 8     94703.940 9
  21231537.333    -1157056.484 8   -884255.549 9
  23710813.435     7540736.304 5   -804078.946 4
  22981985.772     2586095.074 6  -2349059.703 5
 94  5 10 15 18 30.0010000  0  6 31 29 18 19 28 27
  23229714.863     8718941.214 6  -2480012.480 5
  21533348.773    11015707.137 8   1986806.320 9
  20466583.569     4651822.103 8    105934.469 9
  21228468.837    -1173171.232 8   -896812.486 9
  23709264.378     7532607.531 6   -810413.015 4
  22971034.833     2528533.165 6  -2393913.123 5
 94  5 10 15 19  0.0010000  0  6 31 29 18 19 28 27
  23219138.035     8663357.016 6  -2523324.800 5
  21545031.625    11077109.388 8   2034652.224 9
  20469411.271     4666696.605 8    117524.957 9
  21225441.892    -1189077.914 8   -909207.287 9
  23707820.487     7525007.684 6   -816334.955 4
  22960098.585     2471082.678 6  -2438679.714 5
 94  5 10 15 19 30.0010000  0  6 31 29 18 19 28 27
  23208632.798     8608139.050 5  -2566351.722 4
  21556797.100    11138931.429 8   2082825.225 9
  20472335.807     4682055.237 8    129492.740 9
  21222453.651    -1204787.781 8   -921448.749 9
  23706477.057     7517935.646 6   -821845.629 4
  22949185.959     2413731.189 6  -2483369.168 5
 94  5 10 15 20  0.0010000  0  6 31 29 18 19 28 27
  23198193.905     8553281.883 5  -2609097.504 4
  21568640.581    11201178.045 8   2131329.080 9
  20475350.550     4697907.691 8    141845.301 9
  21219504.473    -1220300.945 8   -933536.921 9
  23705228.692     7511390.572 6   -826945.652 4
  22938295.938     2356501.937 6  -2527963.355 5
 94  5 10 15 20 30.0010000  0  6 31 29 18 19 28 27
  23187827.651     8498807.117 6  -2651545.319 5
  21580568.633    11263855.615 8   2180168.731 9
  20478462.395     4714244.849 8    154575.540 9
  21216590.400    -1235604.255 8   -945461.578 9
  23704083.934     7505362.671 6   -831642.717 4
  22927433.258     2299420.257 6  -2572442.561 5
 94  5 10 15 21  0.0010000  0  6 31 29 18 19 28 27
  23177533.497     8444720.246 6  -2693690.895 5
  21592576.550    11326958.704 8   2229339.959 9
  20481663.130     4731071.815 8    167687.476 9
  21213721.356    -1250682.999 8   -957211.242 9
  23703028.485     7499839.868 5   -835946.184 4
  22916598.939     2242508.128 6  -2616789.656 5
 94  5 10 15 21 30.0010000  0  6 31 29 18 19 28 27
  23167313.812     8391009.567 6  -2735543.319 4
  21604660.944    11390467.693 8   2278827.468 9
  20484956.200     4748390.859 8    181182.823 9
  21210901.119    -1265515.382 8   -968768.943 9
  23702076.344     7494836.246 5   -839845.122 4
  22905807.130     2185792.754 6  -2660983.442 5
 94  5 10 15 22  0.0010000  0  7 31 29 18 19 28  2 27
  23157174.142     8337714.935 6  -2777071.562 4
  21616826.163    11454394.945 8   2328640.888 9
  20488347.062     4766206.617 8    195065.234 9
  21208131.066    -1280070.398 8   -980110.510 9
  23701229.310     7490388.111 5   -843311.171 5
  25244280.998     -505860.97613   -389917.574 1
  22895056.812     2129301.039 6  -2705002.921 5
 94  5 10 15 22 30.0010000  0  7 31 29 18 19 28  2 27
  23147100.606     8284808.128 6  -2818297.603 4
  21629066.599    11518712.568 8   2378758.510 9
  20491827.563     4784478.351 8    209302.931 9
  21205405.143    -1294389.792 8   -991268.470 9
  23700485.675     7486466.247 5   -846367.142 5
  25227332.441     -595044.706 3   -459411.340 1
  22884337.073     2072978.719 6  -2748890.427 5
 94  5 10 15 23  0.0010000  0  7 31 29 18 19 28  2 27
  23137110.142     8232278.984 6  -2859229.322 4
  21641380.154    11583422.271 8   2429181.649 9
  20495392.995     4803217.240 8    223904.668 9
  21202722.750    -1308486.131 8  -1002252.612 9
  23699841.331     7483085.576 5   -849001.435 5
  25210386.463     -684115.278 4   -528816.932 2
  22873651.241     2016818.163 6  -2792651.889 5
 94  5 10 15 23 30.0010000  0  7 31 29 18 19 28  2 27
  23127187.132     8180159.887 6  -2899841.595 4
  21653773.724    11648552.409 8   2479932.388 9
  20499046.266     4822445.043 8    238887.352 9
  21200086.286    -1322344.649 8  -1013051.472 9
  23699310.189     7480283.326 5   -851185.006 5
  25193429.182     -773055.921 3   -598121.316 2
  22862993.409     1960813.005 6  -2836292.261 5
 94  5 10 15 24  0.0010000  0  7 31 29 18 19 28  2 27
  23117352.650     8128460.525 6  -2940126.771 4
  21666247.039    11714107.885 8   2531014.554 9
  20502800.447     4842160.175 8    254249.804 9
  21197490.443    -1335988.232 8  -1023682.822 9
  23698880.047     7478049.192 5   -852925.807 5
  25176516.001     -861872.800 3   -667329.209 2
  22852363.428     1904945.259 6  -2879825.545 5
 94  5 10 15 24 30.0010000  0  7 31 29 18 19 28  2 27
  23107590.298     8077150.196 6  -2980108.779 4
  21678797.791    11780061.054 8   2582406.635 8
  20506645.435     4862356.616 8    269987.288 9
  21194928.087    -1349443.158 8  -1034167.179 9
  23698563.916     7476357.261 5   -854244.255 5
  25159655.313     -950583.860 3   -736454.672 2
  22841755.272     1849198.924 6  -2923264.241 5
 94  5 10 15 25  0.0010000  0  7 31 29 18 19 28  2 27
  23097901.066     8026222.183 6  -3019792.902 4
  21691422.651    11846392.380 8   2634093.350 8
  20510578.802     4883033.993 8    286099.520 9
  21192405.453    -1362696.563 8  -1044494.504 9
  23698348.425     7475216.010 6   -855133.505 5
  25142804.639    -1039187.432 4   -805496.356 2
  22831165.433     1793572.218 6  -2966609.709 5
 94  5 10 15 25 30.0010000  0  7 31 29 18 19 28  2 27
  23088279.497     7975682.732 6  -3059174.252 4
  21704115.144    11913094.785 8   2686069.251 8
  20514604.325     4904183.542 8    302579.702 9
  21189922.332    -1375738.065 8  -1054656.703 9
  23698229.887     7474619.243 5   -855598.505 5
  25125957.352    -1127678.086 4   -874450.099 2
  22820611.839     1738060.350 6  -3009865.703 5
 94  5 10 15 26  0.0010000  0  7 31 29 18 19 28  2 27
  23078737.882     7925529.204 6  -3098254.885 5
  21716878.688    11980162.579 8   2738329.859 8
  20518717.358     4925805.055 8    319427.617 9
  21187486.338    -1388552.921 8  -1064642.303 9
  23698223.861     7474552.406 6   -855650.555 5
  25109147.599    -1216052.114 4   -943312.937 2
  22810070.387     1682689.163 6  -3053012.061 5
 94  5 10 15 26 30.0010000  0  7 31 29 18 19 28  2 27
  23069267.498     7875770.934 6  -3137027.490 5
  21729711.903    12047608.642 8   2790885.214 8
  20522925.634     4947904.417 8    336647.900 9
  21185092.945    -1401119.048 8  -1074434.083 9
  23698306.933     7475019.917 5   -855286.236 5
  25092356.433    -1304297.092 4  -1012075.203 2
  22799565.749     1627471.087 6  -3096039.104 5
 94  5 10 15 27  0.0010000  0  7 31 29 18 19 28  2 27
  23059871.463     7826422.384 6  -3175480.894 5
  21742623.935    12115455.707 8   2843753.043 8
  20527219.622     4970473.088 8    354233.862 9
  21182749.827    -1413437.707 8  -1084033.027 9
  23698498.771     7476018.480 5   -854508.109 5
  25075584.184    -1392400.205 4  -1080726.915 2
  22789083.566     1572397.531 6  -3138953.535 6
 94  5 10 15 27 30.0010000  0  7 31 29 18 19 28  2 27
  23050567.224     7777488.825 6  -3213610.882 5
  21755610.524    12183716.389 8   2896943.173 8
  20531603.277     4993520.982 8    372193.266 9
  21180454.227    -1425518.553 8  -1093446.658 9
  23698785.162     7477535.482 6   -853326.049 5
  25058863.860    -1480349.438 4  -1149258.759 2
  22778630.822     1517474.399 6  -3181750.757 6
 94  5 10 15 28  0.0010000  0  7 31 29 18 19 28  2 27
  23041332.597     7728972.701 6  -3251415.618 5
  21768681.655    12252398.059 8   2950461.328 8
  20536081.157     5017050.692 8    390528.102 9
  21178200.177    -1437365.502 8  -1102678.058 9
  23699176.122     7479587.954 5   -851726.695 5
  25042151.839    -1568137.107 4  -1217664.684 2
  22768210.006     1462704.485 6  -3224428.608 5
 94  5 10 15 28 30.0010000  0  7 31 29 18 19 28  2 27
  23032180.563     7680883.815 6  -3288887.444 5
  21781832.201    12321501.764 8   3004308.354 8
  20540652.362     5041051.592 8    409230.083 9
  21175984.921    -1448998.741 8  -1111742.919 9
  23699670.240     7482189.701 5   -849699.340 5
  25025462.063    -1655766.789 4  -1285947.534 2
  22757809.936     1408060.145 6  -3267008.583 6
 94  5 10 15 29  0.0010000  0  7 31 29 18 19 28  2 27
  23023111.721     7633219.516 6  -3326028.439 5
  21795059.045    12391017.701 8   3058476.605 8
  20545311.347     5065531.899 8    428305.648 9
  21173808.577    -1460420.684 8  -1120643.120 9
  23700273.812     7485350.711 5   -847236.222 5
  25008816.656    -1743234.819 4  -1354104.399 2
  22747433.879     1353536.098 6  -3309494.837 6
 94  5 10 15 29 30.0010000  0  7 31 29 18 19 28  2 27
  23014127.391     7585988.759 6  -3362831.592 5
  21808365.872    12460935.302 8   3112957.839 8
  20550057.601     5090502.495 8    447763.254 9
  21171679.991    -1471624.167 8  -1129373.106 9
  23700986.868     7489089.903 5   -844322.510 5
  24992210.163    -1830548.667 4  -1422141.133 2
  22737085.014     1299151.282 6  -3351872.597 6
 94  5 10 15 30  0.0010000  0  7 31 29 18 19 28  2 27
  23005218.189     7539200.905 6  -3399289.632 5
  21821746.329    12531255.489 8   3167752.772 8
  20554902.487     5115951.510 8    467593.643 9
  21169586.150    -1482616.698 8  -1137938.711 9
  23701806.051     7493400.704 5   -840963.464 5
  24975621.927    -1917730.393 4  -1490074.934 2
  22726762.200     1244904.752 6  -3394142.593 6
 94  5 10 15 30 30.0010000  0  7 31 29 18 19 28  2 27
  22996398.744     7492854.469 6  -3435403.706 5
  21835204.582    12601977.317 8   3222860.682 8
  20559838.360     5141895.224 8    487809.525 9
  21167532.152    -1493398.201 8  -1146339.877 9
  23702729.712     7498266.478 5   -837171.941 5
  24959050.539    -2004776.559 4  -1557903.067 2
  22716469.066     1190805.288 6  -3436298.000 6
 94  5 10 15 31  0.0010000  0  7 31 29 18 19 28  2 27
  22987658.115     7446926.361 6  -3471191.820 5
  21848736.644    12673090.919 8   3278273.860 8
  20564872.235     5168341.427 8    508416.943 9
  21165520.815    -1503972.076 8  -1154579.263 9
  23703757.790     7503674.346 5   -832958.014 5
  24942515.426    -2091692.394 4  -1625629.639 2
  22706204.202     1136865.491 6  -3478328.998 6
 94  5 10 15 31 30.0010000  0  7 31 29 18 19 28  2 27
  22979002.478     7401435.516 6  -3506639.193 5
  21862345.243    12744605.048 7   3333999.130 8
  20570002.733     5195296.984 8    529421.271 9
  21163550.309    -1514332.954 8  -1162652.666 9
  23704895.113     7509627.601 6   -828319.088 5
  24925988.257    -2178465.620 4  -1693245.106 2
  22695974.953     1083102.133 6  -3520222.502 6
 94  5 10 15 32  0.0010000  0  7 31 29 18 19 28  2 27
  22970430.752     7356373.600 6  -3541752.353 5
  21876026.002    12816515.864 7   3390033.511 8
  20575228.686     5222761.223 8    550821.963 9
  21161622.014    -1524474.267 8  -1170554.998 9
  23706125.881     7516122.068 5   -823258.466 5
  24909515.231    -2265082.266 4  -1760738.572 2
  22685773.826     1029502.203 6  -3561988.678 6
 94  5 10 15 32 30.0010000  0  7 31 29 18 19 28  2 27
  22961935.053     7311720.324 6  -3576547.081 5
  21889784.887    12888798.520 7   3446357.652 8
  20580547.244     5250726.795 8    572613.322 9
  21159736.439    -1534385.310 8  -1178277.880 9
  23707472.908     7523166.010 5   -817769.642 5
  24893065.200    -2351536.267 4  -1828105.288 2
  22675598.870      976044.510 6  -3603644.005 6
 94  5 10 15 33  0.0010000  0  7 31 29 18 19 28  2 27
  22953514.423     7267491.628 6  -3611010.973 5
  21903610.596    12961455.237 7   3502973.249 8
  20585962.665     5279176.915 8    594782.228 9
  21157893.855    -1544053.966 8  -1185811.898 9
  23708913.711     7530770.390 5   -811844.152 5
  24876651.443    -2437838.271 4  -1895353.528 2
  22665453.503      922710.806 6  -3645202.722 6
 94  5 10 15 33 30.0010000  0  7 31 29 18 19 28  2 27
  22945182.980     7223705.273 6  -3645130.191 5
  21917507.955    13034483.089 7   3559878.043 8
  20591470.242     5308099.584 8    617319.378 9
  21156100.796    -1553478.076 8  -1193155.350 9
  23710473.591     7538929.900 5   -805486.063 5
  24860250.307    -2523985.356 4  -1962481.088 2
  22655320.998      869489.311 6  -3686674.006 6
 94  5 10 15 34  0.0010000  0  7 31 29 18 19 28  2 27
  22936932.752     7180361.530 6  -3678904.488 5
  21931475.166    13107878.989 7   3617069.643 8
  20597061.911     5337482.903 8    640215.464 9
  21154352.586    -1562669.469 8  -1200317.476 9
  23712123.528     7547641.562 5   -798697.721 5
  24843904.723    -2609988.212 4  -2029496.253 2
  22645215.414      816367.333 6  -3728067.718 6
 94  5 10 15 34 30.0010000  0  7 31 29 18 19 28  2 27
  22928777.108     7137476.411 6  -3712321.449 5
  21945511.568    13181650.887 7   3674554.215 8
  20602737.432     5367326.002 8    663469.810 9
  21152649.046    -1571629.988 8  -1207299.707 9
  23713891.225     7556906.480 5   -791478.306 5
  24827547.507    -2695848.633 4  -2096400.444 2
  22635125.689      763350.290 6  -3769379.693 6
 94  5 10 15 35  0.0010000  0  7 31 29 18 19 28  2 27
  22920703.067     7095062.116 6  -3745371.520 5
  21959621.870    13255801.835 7   3732334.143 8
  20608503.520     5397630.622 8    687083.796 9
  21150983.099    -1580384.623 8  -1214121.500 9
  23715754.615     7566702.025 5   -783845.409 5
  24811234.660    -2781577.807 4  -2163202.377 2
  22625061.176      710456.103 6  -3810595.921 6
 94  5 10 15 35 30.0010000  0  7 31 29 18 19 28  2 27
  22912720.464     7053110.793 6  -3778060.804 5
  21973804.811    13330321.777 7   3790401.604 8
  20614364.672     5428404.970 8    711063.807 9
  21149349.830    -1588944.514 8  -1220791.529 9
  23717720.294     7577034.022 5   -775794.456 5
  24794944.627    -2867156.226 4  -2229886.794 2
  22615024.964      657712.939 6  -3851694.462 6
 94  5 10 15 36  0.0010000  0  7 31 29 18 19 28  2 27
  22904822.222     7011616.356 6  -3810394.098 5
  21988056.885    13405210.800 7   3848756.679 8
  20620307.578     5459648.226 8    735409.198 9
  21147760.720    -1597312.107 8  -1227311.728 9
  23719791.980     7587918.348 5   -767313.136 5
  24778684.034    -2952585.428 4  -2296454.961 2
  22605016.003      605122.039 6  -3892674.371 6
 94  5 10 15 36 30.0010000  0  7 31 29 18 19 28  2 27
  22897014.397     6970576.932 6  -3842372.832 5
  22002378.840    13480477.832 7   3907406.291 8
  20626341.651     5491370.086 8    760127.521 9
  21146208.904    -1605471.059 8  -1233669.353 9
  23721970.122     7599356.884 5   -758400.002 5
  24762461.395    -3037855.690 4  -2362899.239 2
  22595039.719      552695.247 6  -3933526.402 6
 94  5 10 15 37  0.0010000  0  7 31 29 18 19 28  2 27
  22889291.863     6929989.986 6  -3873998.985 5
  22016773.975    13556128.002 7   3966354.451 7
  20632473.246     5523582.586 8    785228.167 9
  21144695.132    -1613418.411 8  -1239862.092 9
  23724254.630     7611358.508 5   -749048.084 5
  24746268.435    -3122955.883 4  -2429211.046 2
  22585100.940      500450.361 6  -3974236.686 6
 94  5 10 15 37 30.0010000  0  8 31 29 18 19 28  2 27 16
  22881650.963     6889843.891 6  -3905281.604 6
  22031242.948    13632164.759 7   4025603.855 7
  20638694.779     5556283.921 8    810709.706 9
  21143222.582    -1621155.734 8  -1245891.173 9
  23726651.801     7623938.252 5   -739245.649 5
  24730101.677    -3207882.478 4  -2495387.583 2
  22575188.152      448362.812 6  -4014824.375 6
  25115966.558    -1569976.77115  -1259913.252 2
 94  5 10 15 38  0.0010000  0  8 31 29 18 19 28  2 27 16
  22874097.512     6850144.586 6  -3936216.091 6
  22045788.368    13708607.791 7   4085169.823 7
  20645010.207     5589481.009 8    836577.561 9
  21141792.661    -1628674.962 8  -1251750.313 9
  23729149.851     7637079.200 6   -729005.943 5
  24713966.787    -3292650.001 4  -2561440.113 2
  22565299.798      396404.311 7  -4055311.495 6
  25103655.461    -1634637.028 5  -1310297.860 2
 94  5 10 15 38 30.0010000  0  8 31 29 18 19 28  2 27 16
  22866625.395     6810895.194 6  -3966800.000 5
  22060417.341    13785463.182 7   4145057.118 7
  20651427.894     5623191.953 8    862845.821 9
  21140407.201    -1635965.221 8  -1257431.032 9
  23731751.270     7650761.679 5   -718344.261 5
  24697879.444    -3377249.232 4  -2627361.596 2
  22555437.196      344588.384 6  -4095687.532 6
  25091424.288    -1698907.326 5  -1360378.567 2
 94  5 10 15 39  0.0010000  0  8 31 29 18 19 28  2 27 16
  22859242.376     6772095.592 6  -3997033.421 5
  22075115.625    13862717.562 7   4205255.306 7
  20657942.264     5657417.206 8    889514.846 9
  21139057.445    -1643046.671 8  -1262949.041 9
  23734460.375     7664983.846 5   -707262.057 5
  24681799.866    -3461688.757 4  -2693158.536 3
  22545601.575      292899.060 7  -4135964.906 6
  25079274.390    -1762776.934 5  -1410147.116 2
 94  5 10 15 39 30.0010000  0  8 31 29 18 19 28  2 27 16
  22851952.802     6733758.443 6  -4026906.480 5
  22089891.346    13940366.723 7   4265761.121 7
  20664551.369     5692159.760 8    916586.973 9
  21137751.099    -1649917.173 8  -1268302.678 9
  23737267.871     7679744.569 5   -695760.181 5
  24665762.348    -3545974.572 5  -2758835.777 3
  22535787.359      241316.818 7  -4176158.850 6
  25067204.146    -1826245.285 5  -1459602.901 2
 94  5 10 15 40  0.0010000  0  8 31 29 18 19 28  2 27 16
  22844743.543     6695898.091 6  -4056408.017 5
  22104740.876    14018396.080 7   4326563.195 7
  20671260.154     5727407.422 8    944052.671 9
  21136483.517    -1656567.215 8  -1273484.526 9
  23740174.599     7695039.783 5   -683841.842 4
  24649765.213    -3630101.771 4  -2824389.372 3
  22525994.159      189855.234 7  -4216258.781 6
  25055200.695    -1889316.772 5  -1508749.496 2
 94  5 10 15 40 30.0010000  0  8 31 29 18 19 28  2 27 16
  22837634.924     6658524.106 6  -4085530.555 5
  22119660.018    14096789.067 7   4387648.612 7
  20678059.687     5763150.925 8    971904.756 9
  21135259.045    -1663004.366 8  -1278500.486 9
  23743196.687     7710888.944 5   -671491.836 4
  24633787.834    -3714059.696 5  -2889811.121 3
  22516228.150      138527.246 7  -4256254.599 6
  25043270.694    -1951983.569 4  -1557580.758 2
 94  5 10 15 41  0.0010000  0  8 31 29 18 19 28  2 27 16
  22830613.335     6621646.504 6  -4114266.304 5
  22134642.326    14175535.099 7   4449009.134 7
  20684954.254     5799371.797 8   1000128.807 9
  21134071.057    -1669233.129 8  -1283354.052 9
  23746320.614     7727314.435 6   -658692.743 4
  24617830.331    -3797847.990 4  -2955100.656 3
  22506483.426       87318.197 7  -4296157.738 6
  25031429.462    -2014233.136 4  -1606086.843 2
 94  5 10 15 41 30.0010000  0  8 31 29 18 19 28  2 27 16
  22823691.547     6585269.190 6  -4142612.209 5
  22149696.434    14254635.525 7   4510645.799 7
  20691932.283     5836046.358 8   1028706.386 9
  21132933.225    -1675228.829 8  -1288026.018 9
  23749550.998     7744317.448 6   -645443.650 4
  24601923.853    -3881456.091 4  -3020249.813 3
  22496760.467       36241.090 7  -4335958.091 6
  25019652.385    -2076069.389 4  -1654270.904 2
 94  5 10 15 42  0.0010000  0  8 31 29 18 19 28  2 27 16
  22816863.534     6549388.305 6  -4170571.314 5
  22164816.527    14334094.102 7   4572561.549 7
  20698996.413     5873167.092 8   1057631.624 9
  21131836.614    -1680986.908 8  -1292512.831 9
  23752896.142     7761889.021 6   -631751.535 4
  24586052.120    -3964880.348 4  -3085255.651 3
  22487069.226      -14694.769 7  -4375648.360 6
  25007975.559    -2137482.626 4  -1702125.331 2
 94  5 10 15 42 30.0010000  0  8 31 29 18 19 28  2 27 16
  22810125.309     6513992.901 6  -4198152.118 5
  22180008.809    14413919.769 7   4634763.341 7
  20706146.643     5910744.172 8   1086912.436 9
  21130786.771    -1686522.511 8  -1296826.299 9
  23756351.190     7780019.198 6   -617624.113 4
  24570221.640    -4048126.837 5  -3150123.025 3
  22477404.846      -65489.783 7  -4415228.887 6
  24996380.666    -2198464.990 4  -1749643.974 2
 94  5 10 15 43  0.0010000  0  8 31 29 18 19 28  2 27 16
  22803484.576     6479081.597 6  -4225355.690 5
  22195264.618    14494113.665 7   4697252.059 7
  20713388.010     5948794.445 8   1116562.001 9
  21129775.211    -1691828.341 8  -1300960.707 9
  23759902.112     7798710.010 6   -603059.836 4
  24554409.986    -4131197.692 5  -3214853.538 3
  22467764.660     -116124.493 7  -4454684.488 6
  24984812.484    -2259021.300 4  -1796830.713 2
 94  5 10 15 43 30.0010000  0  8 31 29 18 19 28  2 27 16
  22796937.469     6444656.906 6  -4252180.087 5
  22210600.561    14574687.190 7   4760036.592 7
  20720722.372     5987338.825 8   1146596.579 9
  21128806.522    -1696918.527 8  -1304927.070 9
  23763567.405     7817950.520 6   -588067.211 4
  24538629.660    -4214099.555 5  -3279452.353 3
  22458168.813     -166585.465 7  -4494004.707 6
  24973389.432    -2319161.930 4  -1843693.549 2
 94  5 10 15 44  0.0010000  0  8 31 29 18 19 28  2 27 16
  22790480.209     6410727.510 6  -4278618.531 5
  22226003.958    14655638.059 7   4823115.158 7
  20728157.225     6026403.537 8   1177036.601 9
  21127873.298    -1701826.613 8  -1308751.565 9
  23767329.230     7837750.037 6   -572639.049 4
  24522881.293    -4296839.637 4  -3343925.119 3
  22448597.160     -216873.380 7  -4533190.108 6
  24962029.217    -2378878.124 4  -1890225.624 2
 94  5 10 15 44 30.0010000  0  8 31 29 18 19 28  2 27 16
  22784114.296     6377295.811 6  -4304669.174 5
  22241475.047    14736951.446 7   4886476.222 7
  20735687.712     6065979.838 8   1207875.275 9
  21126970.832    -1706564.594 8  -1312443.470 9
  23771210.254     7858119.477 6   -556766.748 4
  24507169.799    -4379415.922 4  -3408270.217 3
  22439060.941     -266990.476 7  -4572242.375 6
  24950752.493    -2438183.883 5  -1936437.863 2
 94  5 10 15 45  0.0010000  0  8 31 29 18 19 28  2 27 16
  22777850.252     6344371.362 6  -4330324.560 5
  22257020.725    14818623.502 7   4950116.748 7
  20743313.413     6106060.982 8   1239107.327 9
  21126106.381    -1711115.320 8  -1315989.495 9
  23775191.467     7879059.889 6   -540449.527 4
  24491490.744    -4461815.317 4  -3472477.493 3
  22429553.593     -316954.742 7  -4611175.571 7
  24939537.527    -2497086.280 5  -1982335.853 2
 94  5 10 15 45 30.0010000  0  8 31 29 18 19 28  2 27 16
  22771682.172     6311957.991 6  -4355581.696 5
  22272631.728    14900662.735 7   5014043.400 7
  20751032.679     6146625.276 8   1270715.869 9
  21125272.508    -1715478.715 8  -1319389.537 9
  23779281.266     7900549.975 6   -523704.025 4
  24475839.809    -4544029.635 4  -3536540.565 3
  22420068.849     -366796.387 7  -4650013.195 7
  24928416.306    -2555581.493 5  -2027916.491 2
 94  5 10 15 46  0.0010000  0  8 31 29 18 19 28  2 27 16
  22765613.774     6280060.046 6  -4380437.219 5
  22288312.912    14983068.794 7   5078255.879 7
  20758842.812     6187658.389 8   1302689.719 9
  21124481.925    -1719631.228 8  -1322625.256 9
  23783481.179     7922594.156 6   -506526.737 4
  24460245.205    -4626036.786 4  -3600442.203 3
  22410607.070     -416519.008 7  -4688758.094 7
  24917362.599    -2613656.569 5  -2073169.820 2
 94  5 10 15 46 30.0010000  0  8 31 29 18 19 28  2 27 16
  22759640.319     6248672.707 6  -4404894.848 5
  22304064.158    15065843.601 7   5142755.680 7
  20766737.517     6229153.437 8   1335023.499 9
  21123739.549    -1723550.648 8  -1325679.353 9
  23787771.898     7945174.815 6   -488931.432 4
  24444662.502    -4707833.573 4  -3664179.930 3
  22401164.177     -466132.186 7  -4727417.701 7
  24906376.374    -2671324.900 5  -2118106.193 2
 94  5 10 15 47  0.0010000  0  8 31 29 18 19 28  2 27 16
  22753763.367     6217796.593 6  -4428954.139 5
  22319886.544    15148995.781 7   5207549.562 7
  20774725.996     6271124.899 8   1367728.533 9
  21123036.446    -1727235.782 8  -1328550.885 9
  23792169.764     7968291.762 6   -470918.230 4
  24429141.138    -4789427.560 4  -3727759.632 3
  22391746.167     -515630.926 7  -4765988.158 7
  24895491.000    -2728575.195 5  -2162716.786 3
 94  5 10 15 47 30.0010000  0  8 31 29 18 19 28  2 27 16
  22747981.030     6187425.730 6  -4452619.719 5
  22335782.829    15232524.636 7   5272636.966 7
  20782804.054     6313572.253 8   1400804.388 9
  21122379.061    -1730703.374 8  -1331252.915 9
  23796677.863     7991964.738 6   -452471.775 4
  24413643.846    -4870839.858 5  -3791197.774 3
  22382351.211     -564988.182 7  -4804448.346 7
  24884670.561    -2785405.508 5  -2207000.133 3
 94  5 10 15 48  0.0010000  0  8 31 29 18 19 28  2 27 16
  22742301.133     6157563.071 6  -4475889.277 5
  22351744.409    15316424.930 7   5338013.787 7
  20790976.816     6356513.844 8   1434265.366 9
  21121757.921    -1733955.833 8  -1333787.282 9
  23801297.605     8016204.546 6   -433583.577 5
  24398197.459    -4952080.931 5  -3854502.423 3
  22372986.684     -614190.076 7  -4842787.471 7
  24873937.391    -2841816.939 5  -2250957.094 3
 94  5 10 15 48 30.0010000  0  8 31 29 18 19 28  2 27 16
  22736716.808     6128200.688 6  -4498769.038 5
  22367781.267    15400694.002 7   5403677.964 7
  20799244.643     6399968.329 8   1468125.994 9
  21121177.913    -1736999.186 8  -1336158.724 9
  23806014.209     8041011.184 5   -414253.731 5
  24382755.660    -5033158.778 5  -3917679.946 3
  22363656.783     -663232.204 7  -4881002.119 7
  24863279.830    -2897807.209 5  -2294585.839 3
 94  5 10 15 49  0.0010000  0  8 31 29 18 19 28  2 27 16
  22731220.623     6099339.463 6  -4521258.264 5
  22383888.876    15485323.863 7   5469623.291 7
  20807609.302     6443927.247 8   1502379.685 9
  21120639.396    -1739842.254 8  -1338374.097 9
  23810839.699     8066381.340 6   -394484.791 5
  24367384.551    -5114066.144 5  -3980724.619 3
  22354356.681     -712111.287 7  -4919089.717 7
  24852708.278    -2953358.085 5  -2337872.236 3
 94  5 10 15 49 30.0010000  0  8 31 29 18 19 28  2 27 16
  22725826.907     6070983.065 6  -4543354.147 5
  22400061.270    15570304.516 7   5535841.940 6
  20816067.257     6488379.285 8   1537017.658 9
  21120135.774    -1742478.331 8  -1340428.195 9
  23815772.004     8092292.614 6   -374294.201 5
  24352030.320    -5194783.953 5  -4043621.600 3
  22345082.211     -760842.721 7  -4957062.253 7
  24842232.121    -3008463.037 5  -2380811.130 3
 94  5 10 15 50  0.0010000  0  8 31 29 18 19 28  2 27 16
  22720530.234     6043139.759 6  -4565050.195 5
  22416295.571    15655623.577 7   5602324.296 6
  20824621.624     6533324.901 8   1572040.178 9
  21119675.563    -1744895.394 8  -1342311.608 9
  23820800.033     8118725.089 6   -353697.465 5
  24336693.328    -5275287.577 5  -4106351.641 3
  22335831.995     -809449.112 7  -4994937.350 7
  24831817.450    -3063113.484 5  -2423395.891 3
 94  5 10 15 50 30.0010000  0  8 31 29 18 19 28  2 27 16
  22715331.113     6015814.827 6  -4586342.338 5
  22432594.928    15741274.315 7   5669065.096 6
  20833263.052     6578739.382 8   1607428.092 9
  21119257.232    -1747098.860 8  -1344028.600 9
  23825936.947     8145691.246 6   -332684.845 5
  24321419.831    -5355568.033 5  -4168907.818 3
  22326609.330     -857924.758 7  -5032710.560 7
  24821525.815    -3117301.648 5  -2465620.419 3
 94  5 10 15 51  0.0010000  0  8 31 29 18 19 28  2 27 16
  22710231.164     5989018.809 6  -4607222.314 6
  22448956.161    15827258.070 7   5736065.389 6
  20841991.539     6624611.130 8   1643172.297 9
  21118880.723    -1749086.481 8  -1345577.394 9
  23831171.024     8173207.674 6   -311243.514 4
  24306188.936    -5435623.551 5  -4231288.721 3
  22317407.470     -906266.334 7  -5070379.309 7
  24811307.060    -3171016.408 5  -2507476.031 3
 94  5 10 15 51 30.0010000  0  8 31 29 18 19 28  2 27 16
  22705233.804     5962751.464 6  -4627690.342 6
  22465382.359    15913580.293 7   5803329.431 6
  20850807.356     6670940.533 8   1679273.141 9
  21118540.369    -1750867.312 8  -1346965.043 9
  23836508.529     8201290.847 6   -289360.513 5
  24290987.030    -5515469.999 5  -4293506.674 3
  22308237.389     -954472.000 7  -5107942.166 7
  24801153.389    -3224273.821 5  -2548975.279 3
 94  5 10 15 52  0.0010000  0  8 31 29 18 19 28  2 27 16
  22700330.548     5937009.399 6  -4647749.077 6
  22481876.131    16000250.372 7   5870864.525 6
  20859710.653     6717729.171 8   1715731.812 9
  21118233.981    -1752465.363 8  -1348210.283 9
  23841969.878     8229962.002 6   -267019.357 4
  24275818.071    -5595123.387 5  -4355574.211 3
  22299093.419    -1002524.676 7  -5145385.794 7
  24791105.515    -3277083.075 5  -2590125.330 3
 94  5 10 15 52 30.0010000  0  8 31 29 18 19 28  2 27 16
  22695529.822     5911778.957 6  -4667409.138 6
  22498440.384    16087277.445 7   5938677.793 6
  20868703.197     6764979.671 8   1752550.356 9
  21117963.778    -1753888.648 8  -1349319.350 9
  23847536.304     8259216.481 6   -244223.690 4
  24260708.501    -5674589.917 5  -4417496.163 3
  22289983.146    -1050411.218 7  -5182699.955 7
  24781154.414    -3329446.046 5  -2630927.620 3
 94  5 10 15 53  0.0010000  0  8 31 29 18 19 28  2 27 16
  22690825.418     5887062.995 6  -4686668.290 6
  22515068.283    16174673.050 7   6006778.238 6
  20877786.309     6812714.807 8   1789746.568 9
  21117733.178    -1755116.621 8  -1350276.207 9
  23853211.765     8289039.765 6   -220984.768 4
  24245621.925    -5753869.694 5  -4479272.550 3
  22280894.997    -1098139.562 7  -5219890.856 7
  24771283.148    -3381366.920 5  -2671385.391 3
 94  5 10 15 53 30.0010000  0  8 31 29 18 19 28  2 27 16
  22686217.189     5862857.662 6  -4705529.582 6
  22531764.054    16262423.186 7   6075154.929 6
  20886962.057     6860933.825 8   1827319.812 9
  21117533.006    -1756156.477 8  -1351086.485 9
  23858989.275     8319405.086 6   -197323.466 4
  24230569.106    -5832963.291 5  -4540903.905 3
  22271843.783    -1145725.299 7  -5256970.623 7
  24761480.534    -3432862.288 5  -2711511.661 3
 94  5 10 15 54  0.0010000  0  8 31 29 18 19 28  2 27 16
  22681715.265     5839162.483 6  -4723993.333 6
  22548530.247    16350513.078 7   6143796.395 6
  20896229.961     6909636.148 8   1865269.681 9
  21117374.146    -1756987.497 8  -1351734.037 9
  23864869.794     8350302.877 6   -173247.272 4
  24215555.680    -5911864.948 5  -4602385.689 3
  22262810.167    -1193176.942 7  -5293945.910 7
  24751740.906    -3483918.678 5  -2751295.819 3
 94  5 10 15 54 30.0010000  0  8 31 29 18 19 28  2 27 16
  22677303.489     5815990.387 6  -4742049.499 6
  22565352.561    16438931.047 7   6212693.475 6
  20905591.070     6958824.242 8   1903598.053 9
  21117263.703    -1757577.315 8  -1352193.640 9
  23870850.924     8381733.913 5   -148755.573 4
  24200562.669    -5990575.628 5  -4663718.644 4
  22253805.331    -1240509.830 7  -5330828.664 7
  24742133.967    -3534529.390 5  -2790732.718 3
 94  5 10 15 55  0.0010000  0  8 31 29 18 19 28  2 27 16
  22672993.103     5793362.613 6  -4759681.504 6
  22582242.389    16527666.539 7   6281837.975 6
  20915044.456     7008496.567 8   1942303.741 9
  21117195.080    -1757931.663 8  -1352469.758 9
  23876933.803     8413714.460 5   -123835.675 4
  24185623.441    -6069101.855 5  -4724907.891 4
  22244821.720    -1287730.354 7  -5367623.871 8
  24732572.326    -3584696.601 5  -2829824.054 3
 94  5 10 15 55 30.0010000  0  8 31 29 18 19 28  2 27 16
  22668793.131     5771281.154 6  -4776887.821 6
  22599186.149    16616714.831 7   6351226.215 6
  20924586.760     7058647.507 8   1981382.380 9
  21117170.077    -1758074.104 8  -1352580.744 9
  23883129.763     8446256.428 6    -98478.312 4
  24170717.940    -6147433.512 5  -4785945.503 4
  22235857.956    -1334826.700 7  -5404322.313 8
  24723111.566    -3634413.315 5  -2868564.351 3
 94  5 10 15 56  0.0010000  0  8 31 29 18 19 28  2 27 16
  22664696.977     5749759.116 6  -4793658.238 6
  22616193.315    16706094.028 7   6420872.312 6
  20934219.811     7109278.288 8   2020834.941 9
  21117183.448    -1758000.842 8  -1352523.663 9
  23889435.148     8479372.689 6    -72673.435 4
  24155858.307    -6225562.751 5  -4846825.409 4
  22226920.453    -1381778.302 7  -5440907.962 8
  24713751.776    -3683664.374 5  -2906941.803 3
 94  5 10 15 56 30.0010000  0  8 31 29 18 19 28  2 27 16
  22660708.958     5728806.122 6  -4809985.207 6
  22633267.395    16795813.821 7   6490783.807 6
  20943946.907     7160391.798 8   2060663.638 9
  21117234.083    -1757727.779 8  -1352310.871 9
  23895836.437     8513061.345 6    -46422.565 5
  24141030.392    -6303484.179 5  -4907543.345 4
  22218021.953    -1428577.438 7  -5477374.810 8
  24704475.717    -3732448.458 5  -2944955.347 3
 94  5 10 15 57  0.0010000  0  8 31 29 18 19 28  2 27 16
  22656831.262     5708412.725 6  -4825876.159 6
  22650406.140    16885883.802 7   6560968.165 6
  20953766.489     7211990.142 8   2100870.115 9
  21117323.931    -1757266.270 8  -1351951.271 9
  23902358.032     8547313.480 6    -19732.601 5
  24126258.719    -6381180.223 5  -4968085.676 4
  22209142.581    -1475218.283 7  -5513718.325 8
  24695272.778    -3780759.362 5  -2982600.187 3
 94  5 10 15 57 30.0010000  0  8 31 29 18 19 28  2 27 16
  22653056.335     5688565.787 6  -4841341.283 6
  22667615.576    16976311.848 7   6631431.550 6
  20963675.829     7264066.098 8   2141448.784 9
  21117449.694    -1756603.238 8  -1351434.620 9
  23908983.445     8582107.581 6      7379.695 5
  24111501.135    -6458643.737 5  -5028446.845 4
  22200298.193    -1521703.856 7  -5549940.826 8
  24686144.428    -3828585.777 5  -3019867.535 3
 94  5 10 15 58  0.0010000  0  8 31 29 18 19 28  2 27 16
  22649383.848     5669265.039 6  -4856380.797 6
  22684883.862    17067091.815 7   6702169.148 6
  20973675.706     7316619.804 8   2182399.715 9
  21117617.098    -1755727.469 8  -1350752.205 9
  23915702.873     8617424.803 5     34899.574 5
  24096796.165    -6535885.343 5  -5088635.061 4
  22191478.089    -1568048.729 7  -5586053.695 8
  24677166.453    -3875934.760 5  -3056762.840 3
 94  5 10 15 58 30.0010000  0  8 31 29 18 19 28  2 27 16
  22645810.502     5650500.609 6  -4871002.420 6
  22702228.624    17158222.994 7   6773180.423 6
  20983769.719     7369658.497 8   2223728.545 9
  21117823.205    -1754632.787 8  -1349899.206 9
  23922522.193     8653265.690 6     62827.523 5
  24082155.561    -6612907.394 5  -5148652.197 4
  22182680.800    -1614260.443 7  -5622062.815 8
  24668222.295    -3922813.603 5  -3093291.811 3
 94  5 10 15 59  0.0010000  0  8 31 29 18 19 28  2 27 16
  22642342.203     5632253.960 6  -4885220.571 6
  22719636.973    17249692.201 7   6844455.086 6
  20993953.309     7423171.997 8   2265427.354 9
  21118071.823    -1753323.218 8  -1348878.768 9
  23929441.972     8689627.887 6     91161.678 5
  24067529.316    -6689722.713 5  -5208508.278 4
  22173909.622    -1660351.574 7  -5657977.964 8
  24659403.930    -3969237.434 5  -3129466.215 2
 94  5 10 15 59 30.0010000  0  8 31 29 18 19 28  2 27 16
  22638965.940     5614532.901 6  -4899029.188 6
  22737109.417    17341495.665 7   6915990.223 6
  21004224.948     7477159.691 8   2307495.682 9
  21118362.712    -1751801.960 8  -1347693.373 9
  23936459.634     8726525.230 6    119912.852 5
  24052951.218    -6766339.897 5  -5268209.938 4
  22165162.247    -1706319.960 7  -5693797.490 8
  24650637.369    -4015214.299 5  -3165292.352 2
 94  5 10 16  0  0.0010000  0  8 31 29 18 19 28  2 27 16
  22635696.074     5597352.855 6  -4912416.208 6
  22754637.262    17433631.188 7   6987784.091 6
  21014593.839     7531638.550 8   2349946.726 9
  21118692.004    -1750067.236 8  -1346341.638 9
  23943592.446     8763988.341 6    149104.879 5
  24038412.963    -6842761.851 5  -5327759.473 4
  22156445.662    -1752144.571 7  -5729504.964 8
  24641996.691    -4060748.922 5  -3200773.842 2
 94  5 10 16  0 30.0010000  0  8 31 29 18 19 28  2 27 16
  22632531.584     5580719.003 6  -4925377.654 6
  22772236.998    17526097.244 7   7059835.509 6
  21025054.618     7586600.628 8   2392774.320 9
  21119062.217    -1748112.091 8  -1344818.140 9
  23950833.153     8802041.894 6    178756.985 5
  24023908.854    -6918984.535 5  -5387153.734 4
  22147750.331    -1797814.986 7  -5765092.281 8
  24633389.020    -4105830.146 5  -3235902.076 3
 94  5 10 16  1  0.0010000  0  8 31 29 18 19 28  2 27 16
  22629471.153     5564639.624 6  -4937907.041 6
  22789893.935    17618875.215 7   7132129.998 6
  21035598.858     7642033.657 8   2435968.867 9
  21119477.580    -1745945.275 8  -1343129.724 9
  23958183.615     8840680.550 6    208865.040 5
  24009439.041    -6995004.582 5  -5446390.123 4
  22139093.494    -1843332.127 7  -5800560.185 8
  24624921.711    -4150449.929 5  -3270670.743 3
 94  5 10 16  1 30.0010000  0  8 31 29 18 19 28  2 27 16
  22626520.776     5549125.308 6  -4949996.108 6
  22807603.455    17711952.192 7   7204657.474 6
  21046235.554     7697931.764 8   2479525.826 9
  21119926.639    -1743576.841 8  -1341284.195 9
  23965648.237     8879892.826 6    239420.012 5
  23995008.591    -7070817.426 5  -5505465.013 4
  22130461.121    -1888692.044 7  -5835905.567 8
  24616517.330    -4194606.735 5  -3305078.663 3
 94  5 10 16  2  0.0010000  0  8 31 29 18 19 28  2 27 16
  22623675.955     5534190.578 6  -4961633.548 6
  22825371.494    17805319.799 7   7277411.405 6
  21056963.537     7754294.061 8   2523444.495 9
  21120414.851    -1741013.961 8  -1339287.153 9
  23973217.247     8919659.973 6    270407.424 5
  23980633.723    -7146413.461 5  -5564371.030 4
  22121861.244    -1933898.630 7  -5871131.459 8
  24608187.716    -4238286.512 5  -3339114.836 3
 94  5 10 16  2 30.0010000  0  8 31 29 18 19 28  2 27 16
  22620946.315     5519832.156 6  -4972821.923 6
  22843193.886    17898984.399 7   7350396.762 6
  21067775.193     7811115.942 8   2567721.279 9
  21120939.788    -1738266.092 8  -1337145.958 9
  23980878.383     8959960.854 6    301810.687 5
  23966286.075    -7221771.353 5  -5623091.398 4
  22113282.923    -1978969.472 7  -5906251.593 8
  24599974.572    -4281476.167 5  -3372769.099 3
 94  5 10 16  3  0.0010000  0  8 31 29 18 19 28  2 27 16
  22618322.441     5506050.065 7  -4983561.201 6
  22861077.855    17992951.444 6   7423617.812 6
  21078678.704     7868410.257 8   2612366.188 9
  21121496.862    -1735341.243 8  -1334866.867 9
  23988647.655     9000774.977 6    333613.875 4
  23951993.020    -7296886.235 5  -5681622.447 4
  22104727.835    -2023911.344 7  -5941271.212 8
  24591864.437    -4324177.897 5  -3406043.138 3
 94  5 10 16  3 30.0010000  0  8 31 29 18 19 28  2 27 16
  22615809.881     5492841.533 7  -4993853.563 6
  22879014.678    18087230.135 6   7497081.669 5
  21089673.713     7926183.392 8   2657384.216 9
  21122085.385    -1732230.889 8  -1332443.209 9
  23996514.719     9042094.313 6    365810.780 5
  23937737.439    -7371767.414 5  -5739971.387 4
  22096202.637    -2068731.428 7  -5976195.947 8
  24583835.125    -4366382.811 5  -3438930.107 3
 94  5 10 16  4  0.0010000  0  8 31 29 18 19 28  2 27 16
  22613400.629     5480198.872 7  -5003704.968 6
  22897023.181    18181846.307 6   7570808.517 5
  21100759.258     7984438.919 8   2702778.129 9
  21122718.007    -1728923.927 8  -1329866.352 9
  24004472.410     9083919.181 6    398401.568 5
  23923540.048    -7446421.854 5  -5798143.640 4
  22087694.227    -2113426.854 7  -6011023.524 8
  24575894.732    -4408078.968 5  -3471420.580 3
 94  5 10 16  4 30.0010000  0  8 31 29 18 19 28  2 27 16
  22611103.829     5468098.978 7  -5013133.432 6
  22915090.353    18276804.954 6   7644802.244 5
  21111933.632     8043166.638 8   2748539.982 9
  21123387.413    -1725408.417 8  -1327127.000 9
  24012519.379     9126246.665 6    431384.031 5
  23909368.619    -7520867.451 5  -5856153.194 4
  22079212.110    -2157994.803 7  -6045751.788 8
  24568051.292    -4449275.906 5  -3503522.092 3
 94  5 10 16  5  0.0010000  0  8 31 29 18 19 28  2 27 16
  22608903.112     5456544.884 7  -5022136.608 6
  22933223.959    18372096.554 6   7719055.381 5
  21123201.002     8102367.195 8   2794670.266 9
  21124095.823    -1721675.869 8  -1324218.512 9
  24020679.879     9169089.853 6    464768.307 5
  23895238.920    -7595127.600 5  -5914018.181 4
  22070760.031    -2202420.475 7  -6080369.187 8
  24560304.775    -4489978.241 5  -3535238.198 3
 94  5 10 16  5 30.0010000  0  8 31 29 18 19 28  2 27 16
  22606807.803     5445534.207 7  -5030716.345 6
  22951416.925    18467718.716 6   7793566.116 5
  21134554.173     8162032.923 8   2841163.049 9
  21124842.456    -1717736.001 8  -1321148.483 9
  24028927.859     9212459.832 6    498563.084 5
  23881146.726    -7669195.821 5  -5971733.645 4
  22062336.702    -2246681.647 7  -6114858.384 8
  24552662.256    -4530182.596 5  -3566566.271 3
 94  5 10 16  6  0.0010000  0  8 31 29 18 19 28  2 27 16
  22604815.622     5435069.907 7  -5038870.327 6
  22969671.407    18563651.284 6   7868318.745 5
  21145993.563     8222147.394 8   2888005.495 9
  21125630.520    -1713606.395 8  -1317930.606 9
  24037285.444     9256357.740 6    532769.255 5
  23867097.372    -7743057.389 5  -6029288.058 4
  22053945.421    -2290770.825 7  -6149213.584 9
  24545096.004    -4569916.860 5  -3597527.979 3
 94  5 10 16  6 30.0010000  0  8 31 29 18 19 28  2 27 16
  22602932.535     5425167.046 7  -5046586.838 6
  22987988.217    18659882.209 6   7943303.810 5
  21157518.635     8282719.257 8   2935204.323 9
  21126452.521    -1709274.695 8  -1314555.257 9
  24045743.488     9300798.853 6    567398.655 5
  23853062.468    -7816679.851 5  -6086656.181 4
  22045591.974    -2334677.546 7  -6183426.604 9
  24537625.715    -4609179.848 5  -3628122.524 3
 94  5 10 16  7  0.0010000  0  8 31 29 18 19 28  2 27 16
  22601159.713     5415841.660 7  -5053853.368 6
  23006358.180    18756417.677 6   8018526.223 5
  21169133.104     8343755.823 8   2982765.274 9
  21127315.354    -1704749.481 8  -1311029.123 9
  24054307.060     9345796.624 6    602461.863 4
  23839120.500    -7890046.020 5  -6143824.598 4
  22037271.325    -2378401.622 7  -6217497.301 9
  24530242.307    -4647963.536 5  -3658343.592 3
 94  5 10 16  7 30.0010000  0  8 31 29 18 19 28  2 27 16
  22599492.657     5407105.053 7  -5060661.093 6
  23024790.529    18853263.894 6   8093990.772 5
  21180836.042     8405252.960 8   3030685.121 9
  21128213.472    -1700023.779 8  -1307346.755 9
  24062975.109     9391343.064 6    637952.569 5
  23825221.552    -7963136.343 5  -6200778.048 4
  22028982.483    -2421955.568 7  -6251435.425 9
  24522953.363    -4686268.841 5  -3688191.841 3
 94  5 10 16  8  0.0010000  0  8 31 29 18 19 28  2 27 16
  22597942.460     5398961.010 7  -5067007.094 6
  23043277.201    18950420.153 6   8169696.914 5
  21192626.490     8467209.949 8   3078963.289 9
  21129155.300    -1695075.269 8  -1303490.775 9
  24071745.987     9437437.440 6    673870.277 4
  23811350.245    -8035962.274 5  -6257525.499 4
  22020723.350    -2465365.685 7  -6285261.474 9
  24515763.950    -4724089.476 5  -3717662.459 3
 94  5 10 16  8 30.0010000  0  8 31 29 18 19 28  2 27 16
  22596501.478     5391390.293 7  -5072906.339 6
  23061819.664    19047881.233 6   8245640.559 5
  21204502.918     8529627.100 8   3127600.018 9
  21130139.519    -1689910.050 8  -1299465.931 9
  24080620.563     9484087.267 6    710220.770 4
  23797534.370    -8108556.813 5  -6314092.606 4
  22012484.214    -2508649.421 7  -6318989.047 9
  24508652.693    -4761401.451 5  -3746736.713 3
 94  5 10 16  9  0.0010000  0  8 31 29 18 19 28  2 27 16
  22595173.817     5384400.026 7  -5078353.288 6
  23080422.116    19145632.519 6   8321810.332 5
  21216470.453     8592498.850 8   3176590.979 9
  21131162.770    -1684537.603 8  -1295279.621 9
  24089605.463     9531282.203 6    746996.044 4
  23783761.425    -8180951.704 5  -6370504.203 4
  22004270.141    -2551822.374 7  -6352630.313 9
  24501641.806    -4798204.511 5  -3775414.402 3
 94  5 10 16  9 30.0010000  0  8 31 29 18 19 28  2 27 16
  22593954.381     5377990.690 7  -5083347.563 6
  23099076.942    19243648.134 6   8398186.102 5
  21228515.844     8655816.231 8   3225929.189 9
  21132225.115    -1678955.278 8  -1290929.739 9
  24098685.847     9579007.080 6    784184.279 4
  23770019.388    -8253147.043 5  -6426760.271 4
  21996076.093    -2594874.337 7  -6386177.268 9
  24494747.719    -4834508.385 5  -3803703.137 3
 94  5 10 16 10  0.0010000  0  8 31 29 18 19 28  2 27 16
  22592847.187     5372166.684 7  -5087885.758 6
  23117777.396    19341925.132 6   8474765.541 5
  21240651.473     8719582.492 8   3275617.188 9
  21133322.985    -1673172.712 8  -1286423.852 9
  24107872.477     9627269.647 6    821791.467 4
  23756334.552    -8325143.044 6  -6482861.019 4
  21987911.276    -2637788.857 7  -6419617.156 9
  24487927.590    -4870300.236 5  -3831592.893 3
 94  5 10 16 10 30.0010000  0  8 31 29 18 19 28  2 27 16
  22591853.136     5366936.395 7  -5091961.285 6
  23136525.966    19440459.044 6   8551545.140 5
  21252871.044     8783792.268 8   3325650.762 9
  21134461.687    -1667199.298 8  -1281769.245 9
  24117154.621     9676057.267 6    859807.774 4
  23742663.536    -8396932.288 6  -6538800.677 4
  21979773.200    -2680556.801 7  -6452942.824 9
  24481211.550    -4905593.967 5  -3859094.504 3
 94  5 10 16 11  0.0010000  0  8 31 29 18 19 28  2 27 16
  22590975.103     5362323.287 7  -5095555.896 6
  23155328.739    19539271.275 6   8628541.649 5
  21265176.445     8848451.719 8   3376034.750 9
  21135643.768    -1661008.004 8  -1276944.867 9
  24126534.678     9725355.323 6    898221.832 4
  23729057.695    -8468472.050 6  -6594545.902 5
  21971665.403    -2723160.788 7  -6486140.720 9
  24474586.886    -4940402.773 5  -3886218.245 3
 94  5 10 16 11 30.0010000  0  8 31 29 18 19 28  2 27 16
  22590212.042     5358314.279 7  -5098679.796 6
  23174189.313    19638378.608 6   8705768.081 5
  21277565.368     8913561.636 8   3426769.735 9
  21136859.457    -1654596.175 8  -1271948.642 9
  24136014.685     9775166.066 6    937035.405 4
  23715487.380    -8539744.365 6  -6650082.756 5
  21963590.313    -2765599.996 7  -6519210.236 9
  24468067.299    -4974725.627 5  -3912963.319 3
 94  5 10 16 12  0.0010000  0  8 31 29 18 19 28  2 27 16
  22589559.184     5354901.128 7  -5101339.384 6
  23193108.675    19737795.188 6   8783235.495 5
  21290044.109     8979135.917 8   3477866.556 9
  21138122.692    -1647963.080 8  -1266780.002 9
  24145588.527     9825497.294 6    976254.534 4
  23701975.194    -8610763.464 6  -6705422.270 4
  21955541.545    -2807896.362 7  -6552168.438 9
  24461630.665    -5008546.178 5  -3939316.984 3
 94  5 10 16 12 30.0010000  0  8 31 29 18 19 28  2 27 16
  22589020.097     5352064.002 7  -5103550.118 6
  23212083.709    19837519.399 6   8860942.634 5
  21302610.600     9045176.191 8   3529326.506 9
  21139427.119    -1641104.570 8  -1261435.706 9
  24155265.138     9876339.239 6   1015871.634 4
  23688500.752    -8681520.461 6  -6760557.580 5
  21947519.788    -2850050.515 7  -6585015.808 9
  24455284.479    -5041865.009 5  -3965279.695 3
 94  5 10 16 13  0.0010000  0  8 31 29 18 19 28  2 27 16
  22588584.618     5349789.656 7  -5105322.318 6
  23231119.361    19937554.190 6   8938891.763 5
  21315265.829     9111683.299 8   3581150.203 9
  21140774.536    -1634027.680 8  -1255921.248 9
  24165042.509     9927697.169 6   1055890.792 4
  23675095.562    -8752021.514 6  -6815493.412 5
  21939525.553    -2892055.424 7  -6617746.898 9
  24449038.153    -5074670.677 5  -3990842.536 3
 94  5 10 16 13 30.0010000  0  8 31 29 18 19 28  2 27 16
  22588258.744     5348055.780 7  -5106673.395 6
  23250216.230    20037889.155 6   9017074.791 5
  21328010.366     9178648.959 8   3633331.224 9
  21142156.070    -1626771.116 8  -1250266.783 9
  24174910.418     9979568.230 6   1096309.808 4
  23661718.133    -8822306.862 6  -6870261.209 5
  21931557.459    -2933924.771 7  -6650372.352 9
  24442898.823    -5106959.016 5  -4016002.266 3
 94  5 10 16 14  0.0010000  0  8 31 29 18 19 28  2 27 16
  22588031.591     5346863.820 7  -5107602.178 6
  23269364.214    20138521.877 6   9095489.847 5
  21340837.346     9246062.313 8   3685861.107 9
  21143567.463    -1619340.026 8  -1244476.326 9
  24184879.596    10031949.750 6   1137126.585 4
  23648386.812    -8892376.215 6  -6924860.666 5
  21923621.113    -2975639.851 7  -6682877.602 9
  24436858.155    -5138737.715 5  -4040764.871 3
 94  5 10 16 14 30.0010000  0  8 31 29 18 19 28  2 27 16
  22587909.066     5346224.320 7  -5108100.489 6
  23288575.605    20239456.795 6   9174140.360 5
  21353749.947     9313908.670 8   3738728.374 9
  21145017.529    -1611730.822 8  -1238547.070 9
  24194941.441    10084836.071 6   1178336.653 4
  23635089.578    -8962211.283 6  -6979277.567 5
  21915714.866    -3017186.419 7  -6715251.553 9
  24430897.592    -5170024.303 5  -4065144.034 3
 94  5 10 16 15  0.0010000  0  8 31 29 18 19 28  2 27 16
  22587898.213     5346166.376 7  -5108145.619 6
  23307835.381    20340694.577 6   9253026.876 5
  21366741.812     9382184.089 8   3791929.996 9
  21146500.302    -1603937.093 8  -1232474.049 9
  24205100.268    10138229.637 6   1219942.045 4
  23621848.195    -9031826.682 6  -7033523.302 5
  21907839.708    -3058579.505 7  -6747505.902 9
  24425038.208    -5200821.805 6  -4089142.074 3
 94  5 10 16 15 30.0010000  0  8 31 29 18 19 28  2 27 16
  22587999.064     5346700.158 7  -5107729.699 6
  23327155.087    20442217.777 6   9332135.821 5
  21379812.884     9450880.132 8   3845459.368 9
  21148020.370    -1595957.621 8  -1226256.280 9
  24215358.656    10192126.612 6   1261939.649 4
  23608642.067    -9101220.133 6  -7087596.114 5
  21899985.715    -3099838.759 7  -6779655.945 9
  24419258.149    -5231142.070 5  -4112768.281 3
 94  5 10 16 16  0.0010000  0  8 31 29 18 19 28  2 27 16
  22588218.242     5347838.231 7  -5106842.867 6
  23346527.825    20544008.058 6   9411452.854 5
  21392967.327     9520001.643 8   3899320.280 9
  21149577.612    -1587762.718 8  -1219870.644 9
  24225712.828    10246536.922 6   1304337.291 3
  23595475.482    -9170368.312 6  -7141477.764 5
  21892161.762    -3140958.314 7  -6811697.148 9
  24413588.594    -5260981.316 5  -4136019.643 3
 94  5 10 16 16 30.0010000  0  8 31 29 18 19 28  2 27 16
  22588548.853     5349585.076 7  -5105481.694 6
  23365942.954    20646054.597 6   9490969.592 5
  21406203.464     9589563.639 8   3953524.413 9
  21151179.463    -1579345.752 8  -1213311.981 9
  24236161.315    10301459.508 5   1347134.109 3
  23582376.381    -9239280.938 6  -7195175.904 5
  21884357.774    -3181961.647 7  -6843647.794 9
  24408007.388    -5290322.694 5  -4158883.048 3
 94  5 10 16 17  0.0010000  0  8 31 29 18 19 28  2 27 16
  22588994.345     5351934.987 6  -5103650.587 6
  23385409.858    20748348.200 6   9570678.836 5
  21419527.260     9659582.379 8   4008084.457 9
  21152822.536    -1570703.313 8  -1206577.613 9
  24246714.849    10356905.622 6   1390338.835 3
  23569301.082    -9307969.208 6  -7248699.197 5
  21876576.511    -3222848.728 7  -6875507.843 9
  24402522.445    -5319144.926 5  -4181341.916 3
 94  5 10 16 17 30.0010000  0  8 31 29 18 19 28  2 27 16
  22589552.828     5354870.574 6  -5101363.105 6
  23404923.678    20850891.751 6   9650582.835 4
  21432945.820     9730083.094 8   4063020.089 9
  21154513.935    -1561829.512 8  -1199662.945 9
  24257366.445    10412891.894 6   1433964.562 3
  23556272.192    -9376419.646 6  -7302037.166 5
  21868822.589    -3263594.553 8  -6907257.829 9
  24397128.609    -5347431.399 5  -4203383.323 4
 94  5 10 16 18  0.0010000  0  8 31 29 18 19 28  2 27 16
  22590221.275     5358379.111 7  -5098629.184 6
  23424485.886    20953692.475 6   9730687.213 4
  21446452.760     9801074.086 8   4118337.716 9
  21156242.988    -1552728.472 8  -1192571.237 9
  24268121.259    10469408.045 6   1478003.033 3
  23543296.305    -9444628.236 6  -7355186.706 5
  21861101.764    -3304188.223 8  -6938889.260 9
  24391860.716    -5375178.083 5  -4225004.107 4
 94  5 10 16 18 30.0010000  0  8 31 29 18 19 28  2 27 16
  22590998.217     5362469.207 7  -5095442.089 6
  23444105.024    21056769.688 6   9811007.068 4
  21460055.243     9872552.898 8   4174035.478 9
  21158020.008    -1543403.326 8  -1185304.892 9
  24278970.658    10526448.167 5   1522449.895 3
  23530358.852    -9512589.546 6  -7408143.515 5
  21853403.244    -3344621.814 8  -6970395.945 9
  24386685.309    -5402384.094 5  -4246203.563 4
 94  5 10 16 19  0.0010000  0  8 31 29 18 19 28  2 27 16
  22591889.530     5367148.843 7  -5091795.613 6
  23463767.242    21160131.714 6   9891548.831 4
  21473747.154     9944505.864 8   4230102.713 9
  21159833.002    -1533861.245 8  -1177869.506 9
  24289927.923    10584006.863 6   1567300.811 3
  23517480.757    -9580285.000 6  -7460893.201 5
  21845745.855    -3384868.163 8  -7001756.725 9
  24381598.640    -5429056.184 5  -4266987.019 4
 94  5 10 16 19 30.0010000  0  8 31 29 18 19 28  2 27 16
  22592889.668     5372423.547 7  -5087685.452 6
  23483491.817    21263766.692 6   9972303.300 4
  21487525.376    10016910.048 7   4286521.554 9
  21161688.088    -1524125.343 8  -1170283.087 9
  24300978.663    10642061.750 5   1612538.376 3
  23504644.034    -9647701.136 6  -7513425.214 5
  21838126.809    -3424913.433 7  -7032960.822 9
  24376619.358    -5455213.036 5  -4287368.969 4
 94  5 10 16 20  0.0010000  0  8 31 29 18 19 28  2 27 16
  22594016.918     5378316.487 7  -5083093.543 6
  23503266.817    21367682.429 6  10053276.530 4
  21501384.331    10089738.720 7   4343271.140 9
  21163577.320    -1514200.038 8  -1162549.093 9
  24312119.790    10700596.360 5   1658149.731 3
  23491877.042    -9714827.345 6  -7565731.338 5
  21830543.979    -3464759.720 7  -7064009.873 9
  24371743.323    -5480858.229 5  -4307352.234 4
 94  5 10 16 20 30.0010000  0  8 31 29 18 19 28  2 27 16
  22595255.900     5384838.365 6  -5078011.563 6
  23523090.923    21471866.904 6  10134459.175 4
  21515320.633    10162976.654 7   4400339.653 9
  21165503.367    -1504089.235 8  -1154670.521 9
  24323344.319    10759608.909 5   1704133.555 3
  23479157.118    -9781673.336 6  -7617819.091 5
  21822998.532    -3504409.660 7  -7094905.935 9
  24366965.111    -5505987.741 5  -4326933.698 4
 94  5 10 16 21  0.0010000  0  8 31 29 18 19 28  2 27 16
  22596616.448     5391980.838 7  -5072446.000 6
  23542964.974    21576297.365 6  10215833.503 4
  21529332.873    10236617.857 8   4457722.385 9
  21167458.823    -1493800.070 8  -1146653.020 9
  24334662.953    10819094.081 5   1750485.629 3
  23466482.522    -9848248.542 6  -7669695.843 5
  21815489.511    -3543874.030 7  -7125657.383 9
  24362278.036    -5530605.685 5  -4346116.497 4
 94  5 10 16 21 30.0010000  0  8 31 29 18 19 28  2 27 16
  22598092.266     5399731.957 6  -5066406.180 6
  23562879.138    21680961.377 6  10297389.803 4
  21543423.208    10310662.447 8   4515419.438 9
  21169453.432    -1483320.205 8  -1138486.898 9
  24346075.033    10879055.045 5   1797208.422 3
  23453871.633    -9914566.227 6  -7721371.957 5
  21808009.030    -3583182.016 7  -7156286.979 9
  24357696.068    -5554705.296 5  -4364895.418 4
 94  5 10 16 22  0.0010000  0  8 31 29 18 19 28  2 27 16
  22599677.689     5408084.480 6  -5059897.713 6
  23582845.886    21785859.654 6  10379128.629 4
  21557591.490    10385113.221 8   4573433.017 9
  21171487.734    -1472629.106 8  -1130156.173 9
  24357574.382    10939496.385 5   1844305.576 3
  23441289.463    -9980645.629 6  -7772862.369 5
  21800552.562    -3622367.316 7  -7186820.969 9
  24353208.954    -5578281.463 6  -4383266.446 4
 94  5 10 16 22 30.0010000  0  8 31 29 18 19 28  2 27 16
  22601386.356     5417022.865 6  -5052932.745 6
  23602844.980    21890980.893 6  10461041.226 4
  21571839.726    10459995.666 8   4631782.959 9
  21173561.848    -1461720.616 8  -1121656.056 9
  24369168.795    11000427.030 5   1891783.975 3
  23428761.286   -10046498.290 6  -7824176.121 5
  21793117.888    -3661429.658 7  -7217259.169 9
  24348816.755    -5601327.384 5  -4401224.337 4
 94  5 10 16 23  0.0010000  0  8 31 29 18 19 28  2 27 16
  22603194.584     5426536.816 7  -5045519.280 6
  23622894.381    21996332.361 6  10543133.221 4
  21586174.093    10535315.913 8   4690474.050 9
  21175678.863    -1450597.062 8  -1112988.352 9
  24380866.517    11061855.283 5   1939650.158 3
  23416274.720   -10112126.474 6  -7875314.916 5
  21785709.627    -3700369.718 7  -7247602.067 9
  24344541.055    -5623845.728 5  -4418771.116 4
 94  5 10 16 23 30.0010000  0  8 31 29 18 19 28  2 27 16
  22605114.335     5436636.686 7  -5037649.253 6
  23642987.760    22101934.913 6  10625420.846 4
  21600592.161    10611085.242 8   4749515.065 9
  21177837.998    -1439262.695 8  -1104156.381 9
  24392645.993    11123786.428 5   1987908.133 3
  23403823.920   -10177535.307 6  -7926282.829 5
  21778323.400    -3739176.986 8  -7277841.488 9
  24340355.383    -5645834.557 5  -4435905.272 4
 94  5 10 16 24  0.0010000  0  8 31 29 18 19 28  2 27 16
  22607143.690     5447319.894 6  -5029324.686 6
  23663134.653    22207795.773 6  10707909.723 4
  21615096.510    10687299.866 8   4808903.058 9
  21180029.451    -1427741.125 8  -1095178.539 9
  24404527.697    11186214.070 5   2036553.074 3
  23391417.459   -10242722.870 6  -7977078.309 5
  21770966.943    -3777836.084 7  -7307965.470 9
  24336268.012    -5667308.172 5  -4452637.963 4
 94  5 10 16 24 30.0010000  0  8 31 29 18 19 28  2 27 16
  22609289.964     5458593.980 6  -5020539.684 6
  23683326.874    22313926.023 6  10790608.569 4
  21629683.242    10763957.571 8   4868636.325 9
  21182255.680    -1416036.840 8  -1086058.330 9
  24416501.558    11249146.341 5   2085591.195 3
  23379055.037   -10307677.584 6  -8027692.343 5
  21763642.294    -3816318.411 7  -7337951.684 9
  24332286.738    -5688261.552 5  -4468965.233 4
 94  5 10 16 25  0.0010000  0  8 31 29 18 19 28  2 27 16
  22611555.496     5470471.639 6  -5011284.369 6
  23703582.621    22420339.825 6  10873528.322 4
  21644351.397    10841031.805 8   4928694.149 9
  21184519.892    -1404145.768 8  -1076792.558 9
  24428568.954    11312585.075 5   2135023.958 3
  23366740.672   -10372376.841 6  -8078107.305 5
  21756355.898    -3854617.430 7  -7367795.073 9
  24328394.233    -5708703.036 5  -4484893.709 4
 94  5 10 16 25 30.0010000  0  8 31 29 18 19 28  2 27 16
  22613928.503     5482953.008 6  -5001558.658 6
  23723881.209    22527029.924 6  10956663.371 4
  21659094.711    10918514.244 8   4989070.042 8
  21186825.086    -1392042.377 8  -1067361.350 9
  24440741.667    11376522.725 5   2184845.486 3
  23354487.015   -10436797.232 6  -8128305.003 5
  21749100.801    -3892734.499 7  -7397496.684 9
  24324595.983    -5728630.431 5  -4500421.539 4
 94  5 10 16 26  0.0010000  0  8 31 29 18 19 28  2 27 16
  22616418.429     5496027.543 6  -4991370.720 6
  23744232.860    22633980.358 6  11040001.289 5
  21673915.970    10996391.002 8   5049753.223 9
  21189165.806    -1379711.117 8  -1057752.583 9
  24453001.050    11440960.034 5   2235056.371 3
  23342287.950   -10500914.124 6  -8178266.188 5
  21741882.968    -3930671.490 7  -7427057.978 9
  24320906.017    -5748032.479 5  -4515540.037 4
 94  5 10 16 26 30.0010000  0  8 31 29 18 19 28  2 27 16
  22619015.262     5509702.757 7  -4980714.704 6
  23764632.088    22741181.888 6  11123534.890 5
  21688808.700    11074665.313 8   5110746.160 8
  21191562.197    -1367136.439 8  -1047954.137 9
  24465358.135    11505897.704 5   2285657.144 3
  23330143.178   -10564731.189 6  -8227993.743 6
  21734699.551    -3968426.530 7  -7456477.482 9
  24317319.900    -5766894.492 5  -4530237.702 4
 94  5 10 16 27  0.0010000  0  8 31 29 18 19 28  2 27 16
  22621735.339     5523982.323 7  -4969587.790 6
  23785085.458    22848625.098 6  11207256.773 5
  21703782.674    11153347.148 8   5172056.665 8
  21194001.938    -1354319.800 8  -1037967.157 9
  24477812.533    11571321.645 5   2336636.820 3
  23318055.186   -10628246.748 6  -8277486.366 6
  21727546.383    -4006010.707 7  -7485763.876 9
  24313839.399    -5785215.712 5  -4544513.992 4
 94  5 10 16 27 30.0010000  0  8 31 29 18 19 28  2 27 16
  22624569.756     5538868.797 6  -4957987.960 6
  23805567.848    22956291.628 6  11291152.696 4
  21718839.870    11232459.127 8   5233702.326 8
  21196484.129    -1341261.773 8  -1027792.075 9
  24490351.502    11637227.036 5   2387991.613 3
  23306022.536   -10691483.170 6  -8326761.481 6
  21720426.042    -4043425.814 7  -7514918.495 9
  24310440.592    -5802985.026 5  -4558360.251 4
 94  5 10 16 28  0.0010000  0  8 31 29 18 19 28  2 27 16
  22627519.114     5554366.475 7  -4945911.853 6
  23826102.403    23064184.948 6  11375225.313 4
  21733973.723    11311999.294 8   5295681.660 8
  21199009.191    -1327994.003 8  -1017453.552 9
  24502976.482    11703605.163 5   2439714.836 3
  23294035.335   -10754476.967 6  -8375847.522 6
  21713340.147    -4080673.549 7  -7543942.687 9
  24307174.593    -5820215.149 5  -4571786.293 4
 94  5 10 16 28 30.0010000  0  8 31 29 18 19 28  2 27 16
  22630584.492     5570478.246 7  -4933357.260 6
  23846674.311    23172295.887 6  11459467.529 4
  21749191.188    11391972.271 8   5357998.247 8
  21201573.016    -1314522.939 8  -1006956.635 9
  24515701.323    11770432.143 5   2491787.774 3
  23282092.233   -10817251.797 6  -8424762.949 6
  21706283.692    -4117752.976 7  -7572835.761 9
  24304001.680    -5836922.096 5  -4584804.698 4
 94  5 10 16 29  0.0010000  0  8 31 29 18 19 28  2 27 16
  22633763.671     5587204.801 7  -4920323.580 6
  23867281.175    23280620.931 6  11543876.578 4
  21764491.696    11472371.677 8   5420647.119 8
  21204177.314    -1300842.870 8   -996296.844 9
  24528500.093    11837710.349 5   2544212.363 3
  23270188.554   -10879803.775 6  -8473504.726 6
  21699255.988    -4154677.670 7  -7601608.247 9
  24300907.702    -5853114.955 5  -4597422.504 4
 94  5 10 16 29 30.0010000  0  8 31 29 18 19 28  2 27 16
  22637065.136     5604536.581 7  -4906818.306 6
  23887941.073    23389161.460 6  11628453.531 4
  21779868.501    11553184.794 8   5483618.346 8
  21206823.671    -1286948.859 8   -985470.354 9
  24541387.841    11905445.308 5   2596992.809 4
  23258326.066   -10942128.776 6  -8522069.630 6
  21692259.341    -4191450.763 7  -7630262.612 9
  24297931.662    -5868795.667 5  -4609641.245 4
 94  5 10 16 30  0.0010000  0  8 31 29 18 19 28  2 27 16
  22640476.264     5622465.195 7  -4892847.979 6
  23908636.945    23497924.823 6  11713204.129 4
  21795323.701    11634403.645 8   5546905.741 8
  21209506.244    -1272844.788 8   -974480.176 9
  24554365.257    11973632.821 5   2650125.926 4
  23246509.956   -11004209.253 6  -8570443.997 6
  21685290.786    -4228064.280 7  -7658792.638 9
  24295039.174    -5883964.212 5  -4621460.916 4
 94  5 10 16 30 30.0010000  0  8 31 29 18 19 28  2 27 16
  22644000.355     5640983.652 7  -4878418.021 6
  23929374.129    23606900.630 5  11798120.273 3
  21810859.606    11716039.626 8   5610518.172 8
  21212230.368    -1258524.513 8   -963321.512 9
  24567429.343    12042280.520 5   2703617.606 4
  23234752.576   -11066018.137 6  -8618606.748 6
  21678353.678    -4264525.627 7  -7687204.057 9
  24292252.514    -5898614.988 5  -4632877.098 4
 94  5 10 16 31  0.0010000  0  8 31 29 18 19 28  2 27 16
  22647635.878     5660091.906 7  -4863528.495 6
  23950152.804    23716106.312 5  11883215.539 3
  21826473.787    11798094.189 8   5674456.762 8
  21214997.273    -1243995.185 8   -951999.972 9
  24580583.426    12111409.251 5   2757484.132 4
  23223045.470   -11127538.773 6  -8666544.875 6
  21671443.642    -4300836.373 8  -7715498.143 9
  24289563.645    -5912746.618 5  -4643888.754 4
 94  5 10 16 31 30.0010000  0  8 31 29 18 19 28  2 27 16
  22651386.461     5679792.202 6  -4848177.622 6
  23970988.710    23825553.260 5  11968498.768 3
  21842169.870    11880582.914 8   5738733.672 8
  21217800.093    -1229264.559 8   -940521.562 9
  24593834.912    12181015.847 6   2811723.021 4
  23211393.047   -11188764.830 6  -8714253.449 6
  21664565.084    -4336967.004 8  -7743651.884 9
  24286973.798    -5926345.815 5  -4654485.542 4
 94  5 10 16 32  0.0010000  0  8 31 29 18 19 28  2 27 16
  22655248.058     5700091.611 7  -4832359.916 6
  23991850.577    23935230.548 5  12053961.488 3
  21857949.506    11963502.744 8   5803346.507 8
  21220640.147    -1214341.522 8   -928893.229 9
  24607167.283    12251101.409 5   2866335.128 4
  23199798.094   -11249708.714 6  -8761742.175 6
  21657725.259    -4372918.186 8  -7771665.794 9
  24284485.880    -5939407.153 5  -4664663.245 4
 94  5 10 16 32 30.0010000  0  8 31 29 18 19 28  2 27 16
  22659226.724     5720999.965 7  -4816067.709 6
  24012768.416    24045137.712 5  12139603.373 3
  21873808.018    12046838.338 7   5868283.310 8
  21223514.017    -1199217.368 8   -917108.185 9
  24620599.574    12321677.185 5   2921329.203 4
  23188252.757   -11310371.770 6  -8809012.050 6
  21650920.150    -4408698.814 8  -7799546.794 9
  24282100.342    -5951931.364 5  -4674422.328 4
 94  5 10 16 33  0.0010000  0  8 31 29 18 19 28  2 27 16
  22663322.039     5742515.464 7  -4799302.403 6
  24033725.978    24155273.203 5  12225423.125 3
  21889742.077    12130566.889 7   5933526.314 8
  21226433.426    -1183882.102 8   -905158.622 9
  24634126.059    12392728.409 5   2976693.774 4
  23176760.603   -11370764.916 6  -8856071.641 6
  21644144.481    -4444297.007 8  -7827285.636 9
  24279824.917    -5963908.935 5  -4683755.541 4
 94  5 10 16 33 30.0020000  0  8 31 29 18 19 28  2 27 16
  22967320.345     5764631.450 6  -4782069.175 6
  24354518.448    24265621.598 5  12311408.779 3
  22205538.056    12214668.175 7   5999059.755 8
  21529182.707    -1168336.240 8   -893044.967 9
  24947515.724    12464235.174 5   3032413.320 4
  23465108.873   -11430899.116 6  -8902929.418 6
  21937194.396    -4479725.770 8  -7854892.470 9
  24577433.957    -5975331.452 5  -4692656.195 4
 94  5 10 16 34  0.0020000  0  8 31 29 18 19 28  2 27 16
  22671851.674     5787346.617 6  -4764369.062 6
  24075766.264    24376184.644 5  12397561.694 3
  21921819.960    12299138.473 7   6064880.738 8
  21232391.261    -1152568.059 8   -880758.083 9
  24661420.514    12536196.192 5   3088486.812 4
  23153920.344   -11490770.315 6  -8949582.294 6
  21630691.174    -4515000.634 8  -7882379.372 9
  24275574.130    -5986198.975 5  -4701124.419 4
 94  5 10 16 34 30.0020000  0  8 31 29 18 19 28  2 27 16
  22676287.283     5810656.581 6  -4746205.462 6
  24096845.301    24486962.266 5  12483881.855 3
  21937965.433    12383979.260 7   6130990.412 8
  21235437.513    -1136564.691 8   -868287.923 9
  24675194.089    12608592.195 5   3144899.263 3
  23142582.553   -11550363.388 6  -8996018.436 6
  21624009.580    -4550103.716 8  -7909732.442 9
  24273619.093    -5996521.749 5  -4709168.134 4
 94  5 10 16 35  0.0020000  0  8 31 29 18 19 28  2 27 16
  22680837.203     5834563.357 6  -4727576.800 6
  24117969.997    24597961.081 6  12570374.341 3
  21954183.635    12469217.303 7   6197409.627 8
  21238529.662    -1120329.566 8   -855637.185 9
  24689051.665    12681409.288 5   3201639.843 3
  23131295.907   -11609688.845 6  -9042246.029 6
  21617365.160    -4585021.180 8  -7936940.854 9
  24271755.883    -6006303.221 5  -4716790.081 4
 94  5 10 16 35 30.0020000  0  8 31 29 18 19 28  2 27 16
  22685502.094     5859081.493 6  -4708471.790 6
  24139137.713    24709181.808 5  12657039.702 3
  21970483.471    12554869.780 7   6264151.782 8
  21241661.324    -1103862.553 8   -842805.748 9
  24702992.194    12754659.703 5   3258718.062 3
  23120055.369   -11668747.386 6  -9088265.663 6
  21610755.695    -4619754.667 8  -7964005.918 9
  24270004.765    -6015553.077 5  -4723997.769 4
 94  5 10 16 36  0.0020000  0  8 31 29 18 19 28  2 27 16
  22690286.871     5884215.221 6  -4688887.064 6
  24160337.716    24820613.865 5  12743869.781 4
  21986860.743    12640942.080 7   6331221.084 8
  21244837.715    -1087162.366 8   -829792.627 9
  24717014.837    12828351.881 5   3316140.505 3
  23108867.924   -11727547.953 6  -9134084.239 6
  21604186.523    -4654286.495 8  -7990913.827 9
  24268332.283    -6024289.840 5  -4730805.622 4
 94  5 10 16 36 30.0020000  0  8 31 29 18 19 28  2 27 16
  22695186.289     5909977.863 6  -4668812.272 6
  24181583.018    24932250.102 5  12830858.958 4
  22003319.139    12727432.877 7   6398616.508 7
  21248059.015    -1070233.847 8   -816601.565 9
  24731129.935    12902495.332 5   3373914.596 3
  23097722.300   -11786094.710 6  -9179705.068 6
  21597653.865    -4688609.582 8  -8017659.082 9
  24266772.763    -6032522.276 5  -4737220.497 4
 94  5 10 16 37  0.0020000  0  8 31 29 18 19 28  2 27 16
  22700213.149     5936373.150 6  -4648244.541 6
  24202867.414    25044083.464 6  12918001.697 4
  22019859.828    12814339.519 7   6466335.924 7
  21251323.545    -1053096.363 8   -803247.712 9
  24745319.802    12977099.918 5   3432048.013 3
  23086630.998   -11844380.185 6  -9225122.307 6
  21591157.483    -4722738.658 8  -8044253.174 9
  24265297.244    -6040232.629 5  -4743228.593 4
 94  5 10 16 37 30.0020000  0  8 31 29 18 19 28  2 27 16
  22705352.791     5963395.634 6  -4627188.065 6
  24224180.199    25156105.760 6  13005291.710 4
  22036473.996    12901640.512 7   6534362.619 7
  21254620.812    -1035758.459 8   -789737.671 9
  24759606.021    13052172.477 5   3490546.070 3
  23075594.948   -11902384.017 7  -9270320.075 6
  21584697.645    -4756690.919 8  -8070709.495 9
  24263934.148    -6047415.262 5  -4748825.452 4
 94  5 10 16 38  0.0020000  0  8 31 29 18 19 28  2 27 16
  22710611.241     5991026.517 6  -4605657.499 6
  24245528.180    25268309.126 6  13092722.818 4
  22053156.068    12989328.276 7   6602690.725 7
  21257954.055    -1018233.380 8   -776081.762 9
  24773981.280    13127695.628 5   3549395.244 3
  23064609.653   -11960103.877 7  -9315296.568 6
  21578268.745    -4790471.911 8  -8097032.327 9
  24262670.193    -6054071.537 6  -4754012.185 4
 94  5 10 16 38 30.0020000  0  8 31 29 18 19 28  2 27 16
  22715982.113     6019256.572 6  -4583660.067 6
  24266923.858    25380705.440 6  13180304.261 4
  22069918.244    13077397.930 7   6671316.388 7
  21261327.439    -1000521.718 8   -762280.470 9
  24788428.308    13203658.422 5   3608587.036 3
  23053687.524   -12017530.920 7  -9360044.882 6
  21571868.416    -4824092.399 8  -8123230.127 9
  24261501.392    -6060180.804 5  -4758772.674 4
 94  5 10 16 39  0.0020000  0  8 31 29 18 19 28  2 27 16
  22721462.619     6048064.003 6  -4561212.730 6
  24288341.751    25493304.523 5  13268043.703 4
  22086747.693    13165842.476 7   6740234.182 7
  21264728.225     -982622.880 8   -748333.328 9
  24802971.210    13280058.712 5   3668119.650 3
  23042817.769   -12074662.126 7  -9404562.672 6
  21565504.992    -4857550.982 8  -8149301.744 9
  24260448.671    -6065733.688 5  -4763099.601 4
 94  5 10 16 39 30.0020000  0  8 31 29 18 19 28  2 27 16
  22727056.086     6077446.242 6  -4538317.464 6
  24309812.377    25606113.444 5  13355946.655 4
  22103650.291    13254662.647 7   6809444.684 7
  21268180.635     -964510.796 8   -734220.028 9
  24817590.799    13356894.543 5   3727991.682 3
  23031989.595   -12131508.112 7  -9448858.232 6
  21559168.758    -4890833.697 8  -8175236.331 9
  24259498.089    -6070743.201 6  -4767003.133 4
 94  5 10 16 40  0.0020000  0  8 31 29 18 19 28  2 27 16
  22732755.891     6107402.516 7  -4514974.925 6
  24331318.888    25719139.175 5  13444018.561 4
  22120622.652    13343860.791 7   6878949.698 7
  21271668.540     -946171.877 8   -719929.975 9
  24832303.534    13434166.869 5   3788203.878 3
  23021227.286   -12188083.519 7  -9492942.925 6
  21552873.476    -4923924.435 8  -8201021.320 9
  24258646.678    -6075211.143 5  -4770484.665 4
 94  5 10 16 40 30.0020000  0  8 31 29 18 19 28  2 27 16
  22738568.597     6137944.345 7  -4491176.107 6
  24352865.272    25832376.387 5  13532255.265 3
  22137665.583    13433428.877 7   6948742.986 7
  21275203.033     -927594.301 8   -705453.953 9
  24847085.970    13511880.461 5   3848759.913 3
  23010517.650   -12244372.681 7  -9536804.592 6
  21546613.630    -4956813.853 8  -8226649.441 9
  24257895.339    -6079133.276 5  -4773540.874 4
 94  5 10 16 41  0.0020000  0  8 31 29 18 19 28  2 27 16
  22744494.894     6169082.802 6  -4466912.386 6
  24374453.777    25945812.674 5  13620647.024 3
  22154781.664    13523369.981 7   7018826.919 7
  21278788.102     -908769.995 8   -690785.659 9
  24861955.526    13590025.148 5   3909651.842 2
  22999859.369   -12300377.748 7  -9580444.875 6
  21540395.485    -4989502.386 8  -8252121.036 9
  24257262.327    -6082521.968 6  -4776181.433 4
 94  5 10 16 41 30.0020000  0  8 31 29 18 19 28  2 27 16
  22750532.474     6200833.236 7  -4442171.783 6
  24396075.259    26059423.263 5  13709174.648 3
  22171967.536    13613678.344 7   7089197.047 7
  21282416.729     -889692.395 8   -675919.998 9
  24876906.386    13668576.936 4   3970860.966 2
  22989254.390   -12356106.078 7  -9623869.533 6
  21534212.235    -5022003.263 8  -8277446.403 9
  24256704.203    -6085379.273 5  -4778407.899 4
 94  5 10 16 42  0.0020000  0  8 31 29 18 19 28  2 27 16
  22756696.867     6233201.315 7  -4416949.912 6
  24417719.255    26173187.720 5  13797822.180 3
  22189223.140    13704347.764 7   7159848.502 7
  21286093.864     -870371.797 8   -660865.000 9
  24891922.391    13747530.035 4   4032382.842 2
  22978704.514   -12411559.155 7  -9667079.694 6
  21528058.215    -5054323.287 8  -8302630.834 9
  24256268.635    -6087696.630 5  -4780213.669 4
 94  5 10 16 42 30.0020000  0  8 31 29 18 19 28  2 27 16
  22762975.480     6266201.031 6  -4391235.862 6
  24439406.631    26287101.618 5  13886586.146 3
  22206547.697    13795392.808 7   7230792.658 7
  21289815.278     -850801.110 8   -645615.115 9
  24907035.918    13826884.488 5   4094217.447 2
  22968203.354   -12466737.758 7  -9710076.001 6
  21521942.149    -5086469.008 8  -8327679.465 9
  24255937.784    -6089457.850 6  -4781586.056 4
 94  5 10 16 43  0.0020000  0  8 31 29 18 19 28  2 27 16
  22769371.972     6299823.859 7  -4365036.249 6
  24461103.271    26401174.501 5  13975474.008 3
  22223943.244    13886815.158 7   7302030.836 7
  21293585.707     -830999.167 8   -630185.035 9
  24922208.894    13906640.943 5   4156365.270 2
  22957750.160   -12521654.413 7  -9752868.173 6
  21515856.273    -5118451.315 8  -8352600.745 9
  24255705.085    -6090668.282 5  -4782529.263 4
 94  5 10 16 43 30.0020000  0  8 31 29 18 19 28  2 27 16
  22775886.762     6334054.186 7  -4338363.283 6
  24482849.736    26515398.027 5  14064479.267 3
  22241412.181    13978608.300 7   7373557.908 7
  21297392.862     -810984.238 8   -614589.004 9
  24937462.514    13986813.420 5   4218837.352 2
  22947351.889   -12576308.009 7  -9795455.369 6
  21509802.114    -5150267.984 8  -8377392.965 9
  24255578.392    -6091329.294 5  -4783044.353 4
 94  5 10 16 44  0.0020000  0  8 31 29 18 19 28  2 27 16
  22782507.198     6368871.259 7  -4311233.104 6
  24504613.049    26629780.350 5  14153608.230 3
  22258948.571    14070773.899 7   7445375.216 7
  21301238.899     -790775.618 8   -598842.029 9
  24952797.378    14067408.737 5   4281638.875 2
  22937003.053   -12630701.365 7  -9837839.785 6
  21503780.962    -5181911.946 8  -8402050.610 9
  24255560.705    -6091453.503 5  -4783141.134 4
 94  5 10 16 44 30.0020000  0  8 31 29 18 19 28  2 27 16
  22789245.184     6404262.111 6  -4283655.826 6
  24526414.706    26744342.084 5  14242876.995 3
  22276559.639    14163319.941 7   7517488.988 7
  21305122.111     -770370.235 8   -582941.740 9
  24968217.653    14148426.373 5   4344769.412 2
  22926701.165   -12684823.904 7  -9880013.163 6
  21497796.835    -5213365.412 8  -8426559.797 9
  24255632.775    -6091049.636 5  -4782826.453 4
 94  5 10 16 45  0.0020000  0  8 31 29 18 19 28  2 27 16
  22796087.077     6440225.387 7  -4255632.488 6
  24548252.428    26859093.093 5  14332293.279 3
  22294242.267    14256241.589 7   7589895.429 7
  21309044.625     -749756.958 8   -566879.466 9
  24983713.205    14229869.921 5   4408231.918 2
  22916461.514   -12738665.043 7  -9921967.289 6
  21491847.813    -5244614.292 8  -8450909.586 9
  24255803.507    -6090123.439 5  -4782104.740 4
 94  5 10 16 45 30.0020000  0  8 31 29 18 19 28  2 27 16
  22803041.723     6476759.043 7  -4227164.715 6
  24570120.370    26974026.091 5  14421851.317 3
  22311996.906    14349534.000 7   7662590.770 7
  21313010.040     -728914.230 8   -550638.390 9
  24999290.751    14311730.092 5   4472019.028 2
  22906262.544   -12792233.250 7  -9963708.740 6
  21485943.761    -5275644.013 8  -8475088.601 9
  24256074.309    -6088681.499 5  -4780981.199 4
 94  5 10 16 46  0.0020000  0  8 31 29 18 19 28  2 27 16
  22810104.293     6513874.852 7  -4198243.316 6
  24592029.232    27089153.290 5  14511560.751 3
  22329822.985    14443206.617 7   7735582.383 7
  21317021.023     -707838.426 8   -534215.688 9
  25014942.016    14393996.645 5   4536122.812 2
  22896120.236   -12845521.393 7 -10005231.947 6
  21480081.559    -5306446.421 8  -8499090.486 9
  24256451.748    -6086726.606 5  -4779457.905 4
 94  5 10 16 46 30.0020000  0  8 31 29 18 19 28  2 27 16
  22817281.894     6551589.246 7  -4168855.474 6
  24613976.948    27204466.477 5  14601415.054 3
  22347716.428    14537246.803 7   7808860.402 7
  21321078.774     -686521.824 8   -517605.354 9
  25030677.762    14476663.750 5   4600538.663 2
  22886037.436   -12898524.995 7 -10046533.455 6
  21474261.718    -5337030.426 8  -8522922.191 9
  24256929.227    -6084257.263 5  -4777533.763 3
 94  5 10 16 47  0.0020000  0  8 31 29 18 19 28  2 27 16
  22824573.507     6589902.734 7  -4139000.826 6
  24635943.611    27319950.185 5  14691402.222 3
  22365679.542    14631637.643 7   7882411.666 7
  21325178.946     -664970.289 8   -500811.964 9
  25046479.823    14559733.367 5   4665268.205 2
  22876004.102   -12951240.960 7 -10087610.812 6
  21468479.921    -5367419.571 8  -8546602.045 9
  24257487.531    -6081275.597 5  -4775210.376 3
 94  5 10 16 47 30.0020000  0  8 31 29 18 19 28  2 27 16
  22831977.451     6628815.459 6  -4108679.233 6
  24657952.635    27435593.808 5  14781514.031 3
  22383708.731    14726383.806 7   7956239.803 7
  21329321.868     -643195.318 8   -483844.464 9
  25062371.102    14643210.171 5   4730315.053 2
  22866028.988   -13003657.965 7 -10128455.231 6
  21462733.948    -5397612.260 8  -8570128.811 9
  24258160.175    -6077781.981 5  -4772488.115 3
 94  5 10 16 48  0.0020000  0  8 31 29 18 19 28  2 27 16
  22839497.085     6668325.263 6  -4077892.386 6
  24679989.988    27551394.692 5  14871748.376 3
  22401805.493    14821478.217 7   8030339.317 7
  21333509.039     -621201.683 8   -466706.567 9
  25078332.322    14727102.236 5   4795685.406 2
  22856116.830   -13055768.738 7 -10169060.990 7
  21457022.003    -5427628.027 8  -8593517.723 9
  24258921.798    -6073756.312 5  -4769351.235 3
 94  5 10 16 48 30.0020000  0  8 31 29 18 19 28  2 27 16
  22847130.371     6708426.584 6  -4046644.609 6
  24702057.052    27667350.615 5  14962103.550 3
  22419961.194    14916906.522 7   8104698.981 7
  21337737.072     -598973.899 8   -449386.231 9
  25094380.992    14811418.212 5   4861386.163 3
  22846254.167   -13107581.353 7 -10209434.446 7
  21451343.004    -5457469.564 8  -8616770.886 9
  24259795.993    -6069183.695 5  -4765788.194 3
 94  5 10 16 49  0.0020000  0  8 31 29 18 19 28  2 27 16
  22854864.447     6749108.658 6  -4014944.292 6
  24724157.272    27783461.834 5  15052579.678 3
  22438186.117    15012669.711 7   8179319.612 7
  21342011.303     -576520.008 8   -431889.703 9
  25110505.329    14896156.171 5   4927415.672 3
  22836449.245   -13159103.284 7 -10249581.386 7
  21445698.512    -5487128.660 8  -8639881.861 9
  24260767.260    -6064059.190 5  -4761795.067 3
 94  5 10 16 49 30.0020000  0  8 31 29 18 19 28  2 27 16
  22862722.906     6790380.058 7  -3982784.772 6
  24746271.733    27899738.256 5  15143184.624 3
  22456475.705    15108774.815 7   8254206.667 7
  21346329.364     -553833.580 8   -414211.976 9
  25126709.501    14981309.307 5   4993768.717 3
  22826701.134   -13210336.371 7 -10289503.259 7
  21440092.183    -5516593.713 8  -8662841.658 9
  24261856.676    -6058370.020 5  -4757361.973 3
 94  5 10 16 50  0.0020000  0  8 31 29 18 19 28  2 27 16
  22870686.863     6832236.912 7  -3950169.058 6
  24768447.171    28016182.165 5  15233919.998 3
  22474828.040    15205215.061 7   8329354.877 7
  21350690.924     -530919.977 8   -396357.227 9
  25142986.732    15066858.584 5   5060430.477 3
  22817002.518   -13261284.042 7 -10329202.715 7
  21434523.868    -5545860.624 8  -8685647.044 9
  24263035.820    -6052116.601 5  -4752489.201 3
 94  5 10 16 50 30.0020000  0  8 31 29 18 19 28  2 27 16
  22878764.501     6874685.582 7  -3917092.187 6
  24790636.609    28132789.266 5  15324782.548 3
  22493245.130    15302000.121 7   8404771.764 7
  21355089.869     -507785.737 8   -378330.568 9
  25159337.563    15152784.351 5   5127385.594 3
  22807362.392   -13311949.236 7 -10368682.076 7
  21428993.836    -5574911.838 8  -8708284.354 9
  24264335.960    -6045324.752 5  -4747196.857 3
 94  5 10 16 51  0.0020000  0  8 31 29 18 19 28  2 27 16
  22886956.630     6917733.905 7  -3883548.053 6
  24812850.991    28249552.663 5  15415766.887 3
  22511731.353    15399141.288 7   8480466.126 7
  21359532.373     -484437.203 8   -360136.910 9
  25175761.153    15239078.264 5   5194627.489 3
  22797777.907   -13362324.920 7 -10407935.848 7
  21423510.512    -5603749.746 8  -8730755.459 9
  24265732.963    -6038012.639 5  -4741499.134 3
 94  5 10 16 51 30.0020000  0  8 31 29 18 19 28  2 27 16
  22895259.502     6961367.272 7  -3849548.040 6
  24835093.373    28366453.685 5  15506858.488 3
  22530283.559    15496644.152 7   8556442.341 6
  21364015.530     -460882.920 8   -341782.936 9
  25192246.561    15325729.194 5   5262147.695 3
  22788244.716   -13412417.688 7 -10446969.161 7
  21418058.607    -5632383.954 8  -8753067.836 9
  24267199.517    -6030199.856 5  -4735411.282 3
 94  5 10 16 52  0.0020000  0  8 31 29 18 19 28  2 27 16
  22903673.867     7005584.798 7  -3815092.853 6
  24857368.342    28483472.813 5  15598042.091 3
  22548907.776    15594517.204 7   8632707.025 6
  21368535.950     -437122.029 8   -323267.976 9
  25208805.417    15412732.961 5   5329942.803 3
  22778762.311   -13462247.791 7 -10485797.780 7
  21412649.032    -5660811.135 8  -8775218.889 9
  24268801.398    -6021893.419 5  -4728938.714 3
 94  5 10 16 52 30.0020000  0  8 31 29 18 19 28  2 27 16
  22912202.992     7050393.571 7  -3780176.941 6
  24879631.859    28600610.891 4  15689318.389 3
  22567605.622    15692756.445 7   8709257.035 6
  21373103.618     -413129.903 8   -304572.835 9
  25225433.886    15500101.133 5   5398021.827 3
  22769327.363   -13511819.760 7 -10524425.279 7
  21407278.340    -5689032.946 8  -8797209.920 9
  24270460.000    -6013083.428 5  -4722073.834 3
 94  5 10 16 53  0.0020000  0  8 31 29 18 19 28  2 27 16
  22920838.754     7095786.033 7  -3744806.217 6
  24901975.481    28717880.951 5  15780697.513 3
  22586365.285    15791352.994 7   8786085.481 6
  21377713.317     -388895.791 8   -285689.117 9
  25242128.578    15587845.496 5   5466394.033 3
  22759945.538   -13561127.428 7 -10562846.811 7
  21401947.910    -5717045.302 8  -8819037.732 9
  24272252.909    -6003744.083 5  -4714796.435 3
 94  5 10 16 53 30.0020000  0  8 31 29 18 19 28  2 27 16
  22929583.879     7141746.577 7  -3708992.815 6
  24924312.777    28835289.361 5  15872184.462 3
  22605194.020    15890291.929 7   8863180.714 6
  21382374.460     -364417.244 8   -266614.936 9
  25258900.707    15675958.730 5   5535053.619 3
  22750616.656   -13610174.198 7 -10601065.058 7
  21396658.072    -5744830.262 8  -8840688.348 9
  24274119.956    -5993859.257 5  -4707093.991 3
 94  5 10 16 54  0.0020000  0  8 31 29 18 19 28  2 27 16
  22938441.697     7188286.912 7  -3672727.638 6
  24946677.684    28952843.740 4  15963785.125 3
  22624081.994    15989542.884 7   8940519.063 6
  21387078.863     -339681.369 8   -247340.247 9
  25275725.869    15764433.820 5   5603995.193 3
  22741333.822   -13658950.613 7 -10639072.635 7
  21391414.942    -5772389.484 8  -8862163.067 9
  24276110.369    -5983414.531 5  -4698955.288 3
 94  5 10 16 54 30.0020000  0  8 31 29 18 19 28  2 27 16
  22947410.079     7235401.698 7  -3636014.846 6
  24969065.915    29070562.163 4  16055513.644 3
  22643023.601    16089089.781 7   9018088.039 6
  21391835.041     -314692.601 8   -227868.509 9
  25292638.241    15853281.136 5   5673226.818 3
  22732109.868   -13707419.372 7 -10676840.481 7
  21386216.720    -5799711.345 8  -8883452.822 9
  24278211.554    -5972414.496 5  -4690383.824 3
 94  5 10 16 55  0.0020000  0  8 31 29 18 19 28  2 27 16
  22956485.066     7283087.518 7  -3598857.077 6
  24991516.443    29188431.880 5  16147360.041 3
  22662025.706    16188942.262 7   9095895.141 6
  21396633.489     -289475.150 8   -208218.550 9
  25309615.848    15942493.010 5   5742742.510 3
  22722943.414   -13755574.654 7 -10714364.057 7
  21381060.140    -5826800.565 8  -8904561.304 9
  24280407.833    -5960873.398 5  -4681390.767 3
 94  5 10 16 55 30.0020000  0  8 31 29 18 19 28  2 27 16
  22965664.231     7331349.944 7  -3561250.018 6
  25013962.624    29306435.063 4  16239310.454 2
  22681084.772    16289102.067 7   9173941.671 6
  21401474.298     -264031.223 8   -188392.130 9
  25326665.374    16032060.388 5   5812535.198 3
  22713840.905   -13803416.574 7 -10751643.468 7
  21375949.128    -5853666.692 8  -8925495.948 9
  24282696.989    -5948806.796 5  -4671988.246 3
 94  5 10 16 56  0.0020000  0  8 31 29 18 19 28  2 27 16
  22974958.577     7380193.789 7  -3523189.901 6
  25036448.617    29424566.612 5  16331360.892 2
  22700201.907    16389570.155 7   9252228.467 6
  21406361.274     -238359.041 8   -168387.840 9
  25343770.123    16121990.894 4   5882610.867 3
  22704795.927   -13850942.837 7 -10788676.897 7
  21370878.079    -5880323.810 8  -8946267.726 9
  24285093.110    -5936227.544 5  -4662186.241 3
 94  5 10 16 56 30.0020000  0  8 31 29 18 19 28  2 27 16
  22984360.039     7429601.866 7  -3484690.126 6
  25058940.067    29542808.984 4  16423497.706 2
  22719381.070    16490358.503 7   9330764.802 6
  21411286.445     -212469.358 8   -148214.068 9
  25360946.972    16212289.630 4   5952973.473 3
  22695811.836   -13898176.100 7 -10825482.039 7
  21365840.037    -5906774.774 8  -8966878.864 9
  24287578.000    -5923148.913 5  -4651995.124 3
 94  5 10 16 57  0.0020000  0  7 31 29 18 19  2 27 16
  22993875.002     7479586.577 7  -3445741.022 6
  25081460.866    29661153.892 5  16515714.400 2
  22738624.328    16591474.845 7   9409556.708 6
  21416260.152     -186342.981 8   -127855.871 9
  22686870.676   -13945134.773 7 -10862073.209 7
  21360847.023    -5933029.082 8  -8987336.773 9
  24290165.418    -5909563.202 5  -4641408.909 3
 94  5 10 16 57 30.0020000  0  7 31 29 18 19  2 27 16
  23003491.774     7530134.265 7  -3406353.231 6
  25103993.057    29779602.905 5  16608012.204 2
  22757925.656    16692902.933 7   9488591.526 6
  21421280.416     -159961.177 8   -107298.636 9
  22677991.483   -13991814.746 7 -10898447.195 7
  21355887.497    -5959084.274 8  -9007639.523 9
  24292849.610    -5895464.396 5  -4630422.866 3
 94  5 10 16 58  0.0020000  0  7 31 29 18 19  2 27 16
  23013218.870     7581249.667 7  -3366523.080 6
  25126561.493    29898154.956 5  16700390.296 2
  22777286.433    16794653.672 7   9567877.768 6
  21426352.635     -133312.400 8    -86533.381 9
  22669161.756   -14038207.572 7 -10934597.447 7
  21350969.461    -5984928.741 8  -9027778.072 9
  24295641.308    -5880843.360 5  -4619029.866 3
 94  5 10 16 58 30.0020000  0  7 31 29 18 19  2 27 16
  23023058.119     7632941.991 7  -3326243.356 6
  25149142.611    30016805.860 5  16792845.423 2
  22796711.605    16896732.845 7   9647419.944 6
  21431470.272     -106407.019 8    -65568.166 9
  22660389.439   -14084309.036 7 -10970520.645 7
  21346092.708    -6010565.743 8  -9047754.957 9
  24298511.011    -5865700.985 5  -4607230.630 3
 94  5 10 16 59  0.0020000  0  7 31 29 18 19  2 27 16
  23033003.044     7685203.211 7  -3285520.365 6
  25171737.129    30135568.075 5  16885387.248 2
  22816196.916    16999131.951 7   9727211.385 6
  21436638.874      -79251.727 8    -44408.203 9
  22651672.493   -14130099.445 7 -11006201.477 7
  21341253.098    -6035988.310 8  -9067564.756 9
  24301495.924    -5850037.000 5  -4595024.956 3
 94  5 10 16 59 30.0020000  0  7 31 29 18 19  2 27 16
  23043052.207     7738021.638 7  -3244363.169 5
  25194364.474    30254448.457 5  16978021.221 2
  22835743.804    17101844.852 7   9807247.365 6
  21441849.327      -51866.087 8    -23068.762 9
  22643019.913   -14175574.154 7 -11041636.308 7
  21336458.247    -6061188.859 8  -9087201.552 9
  24304576.442    -5833846.113 5  -4582408.713 3
 94  5 10 17  0  0.0020000  0  7 31 29 18 19  2 27 16
  23053212.263     7791414.035 7  -3202758.725 5
  25217020.510    30373455.944 5  17070754.192 2
  22855350.200    17204876.986 7   9887532.100 6
  21447100.521      -24269.040 8     -1564.581 9
  22634425.223   -14220745.117 7 -11076834.449 7
  21331705.218    -6086165.770 8  -9106664.080 9
  24307758.499    -5817128.980 5  -4569382.399 3
 94  5 10 17  0 30.0020000  0  7 31 29 18 19  2 27 16
  23063481.504     7845376.044 7  -3160710.436 5
  25239685.779    30492602.883 5  17163595.842 2
  22875016.915    17308221.286 7   9968060.065 6
  21452391.468        3531.901 8     20098.483 9
  22625890.342   -14265614.126 7 -11111797.298 7
  21326995.988    -6110918.190 8  -9125951.689 9
  24311033.042    -5799885.905 5  -4555946.245 3
 94  5 10 17  1  0.0020000  0  7 31 29 18 19  2 27 16
  23073858.130     7899902.817 7  -3118222.065 5
  25262389.272    30611883.033 4  17256541.239 2
  22894739.931    17411870.230 7  10048825.438 6
  21457724.476       31553.500 8     41933.476 9
  22617406.575   -14310189.535 7 -11146531.377 7
  21322329.299    -6135434.802 8  -9145055.548 9
  24314419.168    -5782106.839 5  -4542092.475 3
 94  5 10 17  1 30.0020000  0  7 31 29 18 19  2 27 16
  23084344.721     7955001.649 6  -3075287.945 5
  25285106.975    30731280.443 4  17349578.067 2
  22914520.448    17515824.878 7  10129829.010 6
  21463099.605       59807.620 8     63949.658 9
  22608977.281   -14354483.695 7 -11181046.297 7
  21317706.349    -6159728.701 8  -9163985.850 9
  24317897.810    -5763800.406 5  -4527827.745 3
 94  5 10 17  2  0.0020000  0  7 31 29 18 19  2 27 16
  23094935.249     8010670.121 6  -3031909.934 5
  25307843.984    30850775.183 4  17442690.698 2
  22934361.342    17620088.267 7  10211073.134 6
  21468522.371       88303.386 8     86154.123 9
  22600602.249   -14398497.379 7 -11215342.669 7
  21313124.501    -6183810.159 8  -9182750.639 9
  24321488.184    -5744981.895 5  -4513163.996 3
 94  5 10 17  2 30.0020000  0  6 31 18 19  2 27 16
  23105633.493     8066893.355 6  -2988099.635 5
  22954261.775    17724653.319 7  10292552.368 6
  21473994.843      117051.133 8    108554.966 9
  22592277.192   -14442235.523 7 -11249424.326 7
  21308582.915    -6207672.913 8  -9201344.992 9
  24325166.757    -5725664.870 5  -4498111.803 3
 94  5 10 17  3  0.0020000  0  6 31 18 19  2 27 16
  23116439.332     8123670.495 6  -2943857.756 5
  22974212.544    17829505.419 7  10374255.245 6
  21479513.812      146057.598 8    131157.391 9
  22584007.207   -14485696.008 7 -11283289.626 7
  21304084.379    -6231318.060 8  -9219769.784 9
  24328931.191    -5705853.826 5  -4482674.663 3
 94  5 10 17  3 30.0020000  0  6 31 18 19  2 27 16
  23127349.529     8180997.770 6  -2899187.174 5
  22994218.024    17934639.928 7  10456178.173 6
  21485078.859      175312.275 8    153953.229 9
  22575787.438   -14528875.093 7 -11316935.660 7
  21299625.416    -6254753.379 8  -9238031.089 9
  24332791.289    -5685562.036 5  -4466862.900 3
 94  5 10 17  4  0.0020000  0  6 31 18 19  2 27 16
  23138362.195     8238877.155 6  -2854086.366 5
  23014278.906    18040051.505 7  10538317.025 6
  21490692.473      204805.614 8    176935.044 9
  22567626.697   -14571774.965 7 -11350364.136 7
  21295208.874    -6277957.497 8  -9256112.226 9
  24336746.691    -5664789.149 5  -4450676.281 3
 94  5 10 17  4 30.0020000  0  6 31 18 19  2 27 16
  23149481.677     8297305.770 6  -2808557.616 5
  23034391.862    18145734.690 7  10620667.490 6
  21496351.326      234538.676 8    200103.639 9
  22559516.562   -14614396.865 7 -11383576.006 7
  21290839.399    -6300914.302 8  -9274000.654 9
  24340798.476    -5643529.305 5  -4434110.219 3
 94  5 10 17  5  0.0020000  0  6 31 18 19  2 27 16
  23160705.307     8356289.798 6  -2762596.056 5
  23054555.753    18251700.269 7  10703238.012 5
  21502054.427      264515.014 8    223461.810 9
  22551461.618   -14656722.747 7 -11416557.209 8
  21286519.839    -6323624.777 8  -9291697.130 9
  24344938.939    -5621763.299 5  -4417149.702 3
 94  5 10 17  5 30.0020000  0  6 31 18 19  2 27 16
  23172036.563     8415830.919 6  -2716200.399 5
  23074776.784    18357967.429 7  10786043.537 5
  21507805.226      294732.119 8    247007.595 9
  22543459.018   -14698760.082 7 -11449313.572 8
  21282246.777    -6346078.387 8  -9309193.453 9
  24349168.741    -5599483.157 5  -4399788.576 3
 94  5 10 17  6  0.0020000  0  6 31 18 19  2 27 16
  23183470.377     8475926.795 6  -2669372.467 5
  23095055.736    18464537.670 7  10869085.234 5
  21513599.645      325191.970 8    270742.530 9
  22535519.345   -14740511.888 7 -11481847.441 8
  21278021.023    -6368270.537 8  -9326486.039 9
  24353514.203    -5576677.820 5  -4382018.224 3
 94  5 10 17  6 30.0020000  0  6 31 18 19  2 27 16
  23195009.569     8536567.238 6  -2622120.221 5
  23115394.735    18571405.856 7  10952359.100 5
  21519445.148      355904.872 8    294674.649 9
  22527628.747   -14781973.762 7 -11514155.395 8
  21273842.815    -6390225.393 8  -9343593.730 9
  24357954.069    -5553338.207 5  -4363831.568 3
 94  5 10 17  7  0.0020000  0  6 31 18 19  2 27 16
  23206652.279     8597742.302 6  -2574451.362 5
  23135783.530    18678557.617 7  11035853.916 5
  21525335.740      386858.656 8    318794.468 9
  22519790.553   -14823150.431 7 -11546241.118 8
  21269707.598    -6411963.075 8  -9360532.198 9
  24362504.229    -5529469.204 5  -4345232.388 3
 94  5 10 17  7 30.0020000  0  6 31 18 19  2 27 16
  23218399.167     8659453.897 6  -2526364.418 5
  23156227.038    18785986.703 7  11119564.847 5
  21531273.430      418053.191 8    343101.903 9
  22512009.350   -14864045.080 7 -11578107.056 8
  21265616.690    -6433473.063 8  -9377293.222 9
  24367127.569    -5505087.507 5  -4326233.700 3
 94  5 10 17  8  0.0020000  0  6 31 18 19  2 27 16
  23230238.091     8721698.081 6  -2477862.513 5
  23176722.109    18893684.139 7  11203484.866 5
  21537254.409      449492.542 8    367600.065 9
  22504281.930   -14904640.166 7 -11609739.625 8
  21261565.504    -6454754.164 8  -9393875.923 9
  24371875.082    -5480203.810 5  -4306843.876 3
 94  5 10 17  8 30.0020000  0  6 31 18 19  2 27 16
  23242185.060     8784471.634 6  -2428948.060 5
  23197265.387    19001643.000 7  11287608.583 5
  21543284.614      481184.456 8    392295.046 9
  22496616.267   -14944927.729 7 -11641132.512 8
  21257559.498    -6475803.950 8  -9410278.360 9
  24376709.775    -5454835.171 5  -4287076.138 3
 94  5 10 17  9  0.0020000  0  7 31 18 19  2 27 16  7
  23254233.299     8847785.294 6  -2379612.785 5
  23217860.350    19109873.947 7  11371944.348 5
  21549361.108      513124.555 8    417183.421 9
  22489007.534   -14984908.722 7 -11672286.509 8
  21253600.289    -6496605.348 8  -9426487.245 9
  24381611.951    -5428994.196 5  -4266940.350 3
  25051511.420    -9419463.95714   -187170.204
 94  5 10 17  9 30.0020000  0  7 31 18 19  2 27 16  7
  23266388.265     8911641.379 6  -2329854.827 5
  23238507.896    19218384.870 7  11456498.261 5
  21555489.765      545325.267 8    442274.872 9
  22481460.739   -15024593.044 7 -11703209.364 8
  21249691.145    -6517146.879 8  -9442493.632 9
  24386619.565    -5402686.317 5  -4246440.759 3
  25032937.118    -9517095.058 4   -263248.512
 94  5 10 17 10  0.0020000  0  7 31 18 19  2 27 16  7
  23278639.613     8976033.683 6  -2279679.032 5
  23259208.535    19327166.275 7  11541262.920 5
  21561667.738      577786.007 8    467568.948 9
  22473959.991   -15063988.864 7 -11733907.402 8
  21245832.186    -6537438.562 8  -9458305.348 9
  24391709.441    -5375904.332 5  -4225571.723 3
  25014359.969    -9614715.694 4   -339316.498 1
 94  5 10 17 10 30.0020000  0  7 31 18 19  2 27 16  7
  23290989.444     9040957.035 6  -2229089.421 5
  23279962.927    19436219.013 7  11626239.027 5
  21567895.267      610500.505 8    493060.760 9
  22466516.504   -15103116.599 7 -11764396.549 8
  21242019.276    -6557477.807 8  -9473920.348 9
  24396895.701    -5348637.855 5  -4204325.153 3
  24995786.507    -9712312.873 4   -415366.243 2
 94  5 10 17 11  0.0020000  0  7 31 18 19  2 27 16  7
  23303450.347     9106406.025 6  -2178090.252 5
  23300764.117    19545547.059 6  11711429.664 5
  21574163.777      643451.539 8    518736.876 9
  22459119.845   -15141987.090 7 -11794685.246 8
  21238249.176    -6577269.428 8  -9489342.397 9
  24402196.241    -5320880.615 5  -4182696.178 3
  24977215.324    -9809889.020 4   -491399.571 2
 94  5 10 17 11 30.0020000  0  7 31 18 19  2 27 16  7
  23315998.430     9172359.207 6  -2126698.182 5
  23321615.042    19655124.437 6  11796814.557 5
  21580478.096      676631.803 8    544591.613 9
  22451770.882   -15180595.158 8 -11824769.437 8
  21234530.460    -6596823.678 8  -9504579.490 9
  24407552.333    -5292638.637 5  -4160689.479 3
  24958658.920    -9907439.186 4   -567412.671 2
 94  5 10 17 12  0.0020000  0  7 31 18 19  2 27 16  7
  23328641.757     9238816.916 6  -2074912.971 5
  23342514.713    19764946.111 6  11882389.842 5
  21586833.996      710033.153 8    570618.637 9
  22444477.711   -15218932.662 8 -11854642.818 8
  21230855.515    -6616142.911 8  -9519633.453 9
  24413038.565    -5263908.289 5  -4138302.215 3
  24940090.615   -10004976.880 4   -643415.991 3
 94  5 10 17 12 30.0020000  0  7 31 18 19  2 27 16  7
  23341384.736     9305784.829 6  -2022730.207 5
  23363459.324    19875005.964 6  11968150.710 5
  21593233.306      743663.725 8    596824.272 9
  22437233.736   -15256994.955 8 -11884301.743 8
  21227222.030    -6635227.194 8  -9534504.325 9
  24418598.066    -5234687.329 5  -4115532.706 3
  24921532.232   -10102514.994 4   -719419.698 3
 94  5 10 17 13  0.0020000  0  7 31 18 19  2 27 16  7
  23354237.138     9373283.009 6  -1970134.273 5
  23384447.404    19985301.135 6  12054094.932 5
  21599678.214      777533.799 8    623216.506 9
  22430045.583   -15294760.889 8 -11913729.741 8
  21223635.133    -6654079.293 8  -9549194.289 9
  24424249.484    -5204981.138 5  -4092385.088 3
  24902985.452   -10200046.222 5   -795417.997 3
 94  5 10 17 13 30.0020000  0  7 31 18 19  2 27 16  7
  23367181.667     9441323.035 6  -1917116.083 5
  23405483.541    20095840.861 6  12140229.715 5
  21606173.487      811665.132 8    649812.338 9
  22422916.278   -15332220.936 8 -11942919.389 8
  21220092.845    -6672684.798 8  -9563692.103 9
  24430001.392    -5174772.700 5  -4068846.100 3
  24884418.406   -10297560.104 5   -871402.801 3
 94  5 10 17 14  0.0020000  0  7 31 18 19  2 27 16  7
  23380232.202     9509908.588 6  -1863672.840 5
  23426565.246    20206633.847 6  12226561.847 5
  21612721.344      846070.497 8    676621.696 9
  22415847.592   -15369383.928 8 -11971877.560 8
  21216601.223    -6691040.859 8  -9577995.538 9
  24435844.707    -5144049.157 5  -4044905.736 3
  24865861.882   -10395060.033 5   -947376.743 3
 94  5 10 17 14 30.0020000  0  7 31 18 19  2 27 16  7
  23393386.765     9579034.670 6  -1809808.397 5
  23447697.437    20317676.499 6  12313088.527 5
  21619321.665      880754.221 8    703647.972 9
  22408832.568   -15406239.105 8 -12000595.875 8
  21213155.408    -6709144.169 8  -9592102.018 9
  24441789.801    -5112818.448 5  -4020570.161 3
  24847315.102   -10492533.807 5  -1023330.299 3
 94  5 10 17 15  0.0020000  0  7 31 18 19  2 27 16  7
  23406637.382     9648675.239 6  -1755543.039 5
  23468875.735    20428975.402 6  12399814.870 5
  21625971.541      915704.834 8    730882.191 9
  22401875.914   -15442789.057 8 -12029076.363 8
  21209759.029    -6726998.289 8  -9606014.328 9
  24447805.257    -5081101.059 5  -3995855.360 3
  24828771.199   -10589984.569 5  -1099265.880 3
 94  5 10 17 15 30.0020000  0  7 31 18 19  2 27 16  7
  23419984.082     9718811.577 6  -1700891.375 5
  23490107.367    20540527.000 6  12486738.156 5
  21632674.241      950935.877 8    758334.947 9
  22394981.107   -15479034.626 8 -12057319.658 8
  21206414.485    -6744588.366 8  -9619720.885 9
  24453965.932    -5048890.760 5  -3970756.478 3
  24810229.845   -10687415.545 5  -1175186.078 3
 94  5 10 17 16  0.0020000  0  7 31 18 19  2 27 16  7
  23433424.648     9789433.714 6  -1645861.168 5
  23511371.796    20652304.712 6  12573837.608 5
  21639431.204      986434.255 8    785996.016 9
  22388138.854   -15514978.031 8 -12085327.505 8
  21203114.999    -6761921.011 8  -9633226.850 9
  24460177.901    -5016213.139 5  -3945293.422 3
  24791693.288   -10784825.122 5  -1251089.582 3
 94  5 10 17 16 30.0020000  0  7 31 18 19  2 27 16  7
  23446956.949     9860545.530 6  -1590449.400 5
  23532692.676    20764317.894 6  12661120.544 5
  21646234.364     1022181.201 8    813850.771 9
  22381357.459   -15550616.855 8 -12113098.023 8
  21199866.448    -6778988.879 8  -9646526.507 9
  24466479.479    -4983081.255 5  -3919476.416 3
  24773167.943   -10882199.979 5  -1326966.062 3
 94  5 10 17 17  0.0020000  0  7 31 18 19  2 27 16  7
  23460581.767     9932155.216 6  -1534649.670 5
  23554051.569    20876579.341 6  12748596.927 5
  21653080.065     1058179.045 8    841901.039 9
  22374634.463   -15585952.400 8 -12140632.211 8
  21196672.759    -6795785.626 8  -9659614.893 9
  24472884.365    -4949475.843 5  -3893290.433 3
  24754639.929   -10979539.115 5  -1402814.658 3
 94  5 10 17 17 30.0020000  0  7 31 18 19  2 27 16  7
  23474306.806    10004270.825 6  -1478455.719 5
  23575460.079    20989069.084 6  12836251.213 5
  21659977.779     1094410.819 8    870133.581 9
  22367963.451   -15620995.507 8 -12167938.538 8
  21193524.248    -6812313.332 8  -9672493.631 9
  24479342.854    -4915401.291 5  -3866738.901 3
  24736126.756   -11076841.242 5  -1478634.470 3
 94  5 10 17 18  0.0020000  0  7 31 18 19  2 27 16  7
  23488121.692    10076895.219 6  -1421865.320 5
  23596906.841    21101785.900 6  12924082.415 5
  21666915.936     1130860.166 8    898535.669 9
  22361351.588   -15655751.979 8 -12195021.503 8
  21190428.232    -6828588.848 8  -9685175.851 9
  24485919.760    -4880869.744 5  -3839831.256 3
  24717606.057   -11174103.824 5  -1554423.447 3
 94  5 10 17 18 30.0020000  0  7 31 18 19  2 27 16  7
  23502042.974    10150028.286 6  -1364878.545 5
  23618405.468    21214743.946 6  13012101.611 5
  21673893.036     1167533.325 8    927112.140 9
  22354791.110   -15690218.984 8 -12221878.904 8
  21187381.561    -6844610.668 8  -9697660.398 9
  24492579.590    -4845874.870 5  -3812562.529 3
  24699111.621   -11271332.593 4  -1630186.085 3
 94  5 10 17 19  0.0020000  0  7 31 18 19  2 27 16  7
  23516050.717    10223656.286 6  -1307506.116 5
  23639938.781    21327918.688 6  13100289.657 5
  21680917.143     1204442.787 8    955872.759 9
  22348285.884   -15724411.005 8 -12248522.055 9
  21184376.651    -6860382.361 8  -9709950.038 9
  24499321.742    -4810427.236 5  -3784941.073 3
  24680613.707   -11368537.251 4  -1705929.921 3
 94  5 10 17 19 30.0020000  0  7 31 18 19  2 27 16  7
  23530159.310    10297783.860 6  -1249744.403 5
  23661518.771    21441308.093 6  13188644.967 5
  21687985.080     1241602.952 8    984828.720 9
  22341830.063   -15758322.536 8 -12274946.632 8
  21181425.674    -6875886.864 8  -9722031.490 9
  24506154.103    -4774534.440 5  -3756972.725 3
  24662123.077   -11465689.794 4  -1781633.135 3
 94  5 10 17 20  0.0020000  0  7 31 18 19  2 27 16  7
  23544360.478    10372408.909 6  -1191595.042 5
  23683139.953    21554932.093 6  13277183.060 5
  21695107.610     1279035.726 8   1013997.106 9
  22335433.421   -15791941.661 8 -12301143.350 9
  21178530.608    -6891116.067 8  -9733898.404 9
  24513071.484    -4738186.934 5  -3728650.045 3
  24643659.639   -11562780.681 5  -1857288.352 3
 94  5 10 17 20 30.0020000  0  7 31 18 19  2 27 16  7
  23558653.623    10447518.626 6  -1133068.017 5
  23704800.888    21668786.194 6  13365900.482 4
  21702283.682     1316735.222 8   1043373.321 9
  22329089.933   -15825281.967 8 -12327122.810 9
  21175684.469    -6906058.470 8  -9745541.857 9
  24520072.927    -4701389.336 5  -3699976.646 3
  24625189.036   -11659811.477 5  -1932896.715 2
 94  5 10 17 21  0.0020000  0  7 31 18 19  2 27 16  7
  23573036.317    10523102.907 6  -1074171.235 5
  23726513.327    21782864.994 6  13454792.967 4
  21709510.509     1354703.051 8   1072958.635 9
  22322797.319   -15858346.605 8 -12352887.474 9
  21172894.060    -6920711.268 8  -9756959.624 9
  24527165.387    -4664134.698 5  -3670947.124 3
  24606737.470   -11756766.205 5  -2008445.800 3
 94  5 10 17 21 30.0020000  0  7 31 18 19  2 27 16  7
  23587507.149    10599152.856 6  -1014911.589 5
  23748262.280    21897173.152 6  13543864.204 4
  21716787.671     1392929.278 8   1102745.285 9
  22316559.897   -15891126.612 8 -12378430.341 9
  21170161.032    -6935084.766 8  -9768159.758 9
  24534331.236    -4626422.016 5  -3641560.698 3
  24588301.883   -11853632.283 5  -2083925.827 3
 94  5 10 17 22  0.0020000  0  7 31 18 19  2 27 16  7
  23602068.338    10675657.283 6   -955297.761 5
  23770060.729    22011696.839 6  13633103.356 4
  21724104.735     1431406.931 8   1132727.874 9
  22310374.279   -15923628.520 8 -12403756.488 9
  21167474.143    -6949198.866 8  -9779157.762 9
  24541604.051    -4588252.243 5  -3611818.100 3
  24569884.163   -11950413.800 5  -2159339.950 3
 94  5 10 17 22 30.0020000  0  7 31 18 19  2 27 16  7
  23616712.810    10752617.786 6   -895328.579 5
  23791887.449    22126418.861 6  13722497.080 4
  21731476.392     1470144.972 7   1162913.340 9
  22304241.815   -15955860.362 8 -12428872.221 9
  21164838.008    -6963055.174 8  -9789954.898 9
  24548959.489    -4549625.959 5  -3581719.749 3
  24551490.547   -12047105.488 5  -2234684.104 3
 94  5 10 17 23  0.0020000  0  7 31 18 19  2 27 16  7
  23631444.881    10830048.057 6   -834993.331 5
  23813758.838    22241328.255 6  13812036.806 4
  21738901.352     1509158.038 7   1193313.123 9
  22298161.874   -15987809.317 8 -12453767.522 9
  21162246.092    -6976670.320 8  -9800564.112 9
  24556390.445    -4510544.366 5  -3551266.621 3
  24533110.811   -12143704.744 5  -2309956.220 3
 94  5 10 17 23 30.0020000  0  7 31 18 19  2 27 16  7
  23646274.984    10907968.755 6   -774275.956 5
  23835660.266    22356422.449 6  13901720.496 4
  21746380.454     1548458.042 7   1223936.481 9
  22292139.643   -16019468.338 8 -12478436.868 9
  21159702.413    -6990037.061 8  -9810979.770 9
  24563931.814    -4471008.462 5  -3520459.472 3
  24514736.651   -12240223.658 5  -2385165.726 3
 94  5 10 17 24  0.0020000  0  7 31 18 19  2 27 16  7
  23661196.015    10986391.317 6   -713167.486 5
  23857588.855    22471696.879 6  13991544.668 4
  21753917.117     1588063.524 7   1254797.888 9
  22286168.377   -16050839.010 8 -12502881.553 9
  21157209.069    -7003140.305 8  -9821190.092 9
  24571523.488    -4431020.930 5  -3489300.392 3
  24496382.997   -12336686.504 5  -2460331.552 3
 94  5 10 17 24 30.0020000  0  7 31 18 19  2 27 16  7
  23676215.767    11065326.050 6   -651659.935 5
  23879565.681    22587156.394 6  14081513.048 4
  21761510.500     1627976.357 8   1285898.787 9
  22280254.521   -16081918.442 8 -12527099.283 9
  21154768.758    -7015964.299 8  -9831182.816 9
  24579214.184    -4390594.060 5  -3457798.972 3
  24478040.975   -12433104.064 5  -2535462.072 3
 94  5 10 17 25  0.0020000  0  7 31 18 19  2 27 16  7
  23691338.138    11144761.464 6   -589762.272 5
  23901574.434    22702806.510 6  14171629.938 4
  21769158.445     1668160.194 7   1317210.841 9
  22274395.497   -16112708.338 8 -12551091.423 9
  21152385.168    -7028503.214 8  -9840953.424 9
  24587001.053    -4349749.016 5  -3425971.719 3
  24459694.846   -12529486.835 5  -2610565.495 3
 94  5 10 17 25 30.0020000  0  7 31 18 19  2 27 16  7
  23706542.682    11224683.837 6   -527485.120 5
  23923616.735    22818658.600 6  14261904.235 4
  21776854.178     1708601.475 7   1348723.513 9
  22268590.496   -16143209.373 8 -12574858.451 9
  21150057.220    -7040738.634 8  -9850487.521 9
  24594850.010    -4308491.327 5  -3393822.909 3
  24441360.828   -12625833.643 5  -2685640.890 3
 94  5 10 17 26  0.0020000  0  7 31 18 19  2 27 16  7
  23721842.500    11305072.864 6   -464844.371 5
  23945700.796    22934709.291 6  14352333.260 4
  21784593.650     1749281.164 7   1380421.951 9
  22262841.526   -16173423.497 8 -12598401.923 9
  21147782.035    -7052678.536 8  -9859791.349 9
  24602766.179    -4266826.275 5  -3361356.702 3
  24423027.140   -12722124.215 5  -2760672.456 3
 94  5 10 17 26 30.0020000  0  7 31 18 19  2 27 16  7
  23737227.040    11385933.242 6   -401836.327 5
  23967825.720    23050963.304 6  14442920.734 4
  21792379.140     1790177.228 7   1412288.993 9
  22257148.587   -16203346.758 8 -12621718.755 9
  21145567.348    -7064324.618 8  -9868866.227 9
  24610772.167    -4224733.986 5  -3328557.558 3
  24404729.577   -12818321.732 5  -2835631.524 4
 94  5 10 17 27  0.0020000  0  7 31 18 19  2 27 16  7
  23752703.166    11467257.716 6   -338466.632 4
  23989986.588    23167424.563 6  14533669.690 4
  21800201.924     1831291.265 7   1444325.871 9
  22251509.251   -16232973.776 8 -12644804.753 9
  21143404.795    -7075682.227 8  -9877716.325 9
  24618879.544    -4182193.220 5  -3295408.943 3
  24386443.197   -12914415.577 5  -2910509.832 3
 94  5 10 17 27 30.0020000  0  7 31 18 19  2 27 16  7
  23768266.501    11549035.879 6   -274743.427 4
  24012188.408    23284071.435 6  14624563.265 4
  21808070.907     1872647.357 7   1476551.382 8
  22245927.745   -16262306.833 8 -12667661.675 9
  21141298.933    -7086761.108 8  -9886349.221 9
  24627056.713    -4139182.927 5  -3261894.508 3
  24368177.262   -13010403.370 5  -2985305.449 4
 94  5 10 17 28  0.0020000  0  7 31 18 19  2 27 16  7
  23783913.000    11631263.358 6   -210670.118 4
  24034416.999    23400893.011 6  14715592.947 4
  21815989.954     1914248.716 7   1508968.007 8
  22240398.612   -16291358.798 8 -12690299.564 9
  21139241.248    -7097569.183 8  -9894771.106 9
  24635331.255    -4095696.354 5  -3228008.893 3
  24349936.570   -13106284.510 5  -3060018.008 3
 94  5 10 17 28 30.0020000  0  7 31 18 19  2 27 16  7
  23799641.701    11713938.465 6   -146248.004 4
  24056681.686    23517891.427 6  14806760.494 4
  21823952.412     1956109.316 8   1541586.626 8
  22234922.813   -16320133.320 8 -12712721.282 9
  21137235.277    -7108102.669 8  -9902979.034 9
  24643688.120    -4051739.004 5  -3193756.439 3
  24331693.869   -13202068.750 5  -3134655.025 3
 94  5 10 17 29  0.0020000  0  7 31 18 19  2 27 16  7
  23815461.299    11797044.956 6    -81489.722 4
  24078978.660    23635059.470 6  14898060.172 4
  21831972.880     1998243.876 8   1574418.732 8
  22229501.726   -16348623.570 8 -12734921.471 9
  21135286.176    -7118357.485 8  -9910969.808 9
  24652150.271    -4007335.407 5  -3159156.314 3
  24313488.702   -13297778.454 5  -3209233.965 3
 94  5 10 17 29 30.0020000  0  7 31 18 19  2 27 16  7
  23831352.938    11880575.094 6    -16401.364 4
  24101306.153    23752394.240 6  14989489.765 4
  21840042.273     2040654.104 8   1607465.648 8
  22224132.983   -16376830.595 8 -12756900.968 9
  21133391.547    -7128320.812 8  -9918733.455 9
  24660679.517    -3962505.078 5  -3124223.617 3
  24295291.450   -13393404.932 5  -3283748.042 3
 94  5 10 17 30  0.0020000  0  7 31 18 19  2 27 16  7
  23847332.056    11964546.546 6     49030.918 4
  24123664.315    23869914.005 6  15081063.553 4
  21848165.030     2083342.048 8   1640728.961 8
  22218821.620   -16404746.324 8 -12778653.475 9
  21131551.631    -7137982.656 8  -9926262.163 9
  24669285.149    -3917263.032 5  -3088970.124 3
  24277125.466   -13488926.565 5  -3358180.466 3
 94  5 10 17 30 30.0020000  0  7 31 18 19  2 27 16  7
  23863399.702    12048962.129 6    114809.235 4
  24146063.248    23987612.648 6  15172776.693 4
  21856341.480     2126307.242 8   1674208.301 8
  22213566.378   -16432370.305 8 -12800178.652 9
  21129768.016    -7147346.593 8  -9933558.752 9
  24677971.606    -3871631.368 5  -3053413.024 3
  24258952.467   -13584341.054 5  -3432529.371 3
 94  5 10 17 31  0.0020000  0  7 31 18 19  2 27 16  7
  23879544.365    12133814.838 6    180928.196 4
  24168485.686    24105496.047 6  15264633.802 4
  21864572.162     2169549.857 7   1707903.837 8
  22208363.120   -16459709.625 8 -12821482.025 9
  21128046.608    -7156402.338 8  -9940615.177 9
  24686733.040    -3825612.728 5  -3017554.418 3
  24240817.301   -13679637.939 5  -3506786.653 3
 94  5 10 17 31 30.0020000  0  7 31 18 19  2 27 16  7
  23895774.440    12219108.615 6    247390.845 4
  24190963.045    24223556.247 6  15356628.693 4
  21872851.290     2213066.386 7   1741812.804 8
  22203212.236   -16486778.165 8 -12842574.381 9
  21126382.370    -7165150.747 8  -9947432.120 9
  24695555.962    -3779203.011 5  -2981391.050 3
  24222717.032   -13774792.967 5  -3580933.390 3
 94  5 10 17 32  0.0020000  0  7 31 18 19  2 27 16  7
  23912093.012    12304846.889 6    314199.847 4
  24213461.030    24341782.391 6  15448752.875 4
  21881184.801     2256861.371 7   1775938.756 8
  22198110.488   -16513583.382 8 -12863461.553 9
  21124774.943    -7173593.852 8  -9954011.173 9
  24704479.675    -3732397.587 5  -2944919.333 3
  24204638.168   -13869810.537 5  -3654973.003 3
 94  5 10 17 32 30.0020000  0  7 31 18 19  2 27 16  7
  23928486.683    12391006.117 6    381336.871 4
  24235988.424    24460160.946 6  15540995.823 4
  21889569.996     2300930.014 7   1810277.917 8
  22193058.325   -16540127.830 8 -12884145.542 9
  21123228.703    -7181733.113 8  -9960353.465 9
  24713463.675    -3685195.189 5  -2908138.291 3
  24186575.672   -13964703.543 5  -3728915.587 3
 94  5 10 17 33  0.0020000  0  7 31 18 19  2 27 16  7
  23944961.688    12477585.341 6    448801.168 4
  24258544.779    24578687.734 6  15633354.271 4
  21898007.115     2345267.898 7   1844826.897 8
  22188058.777   -16566407.327 8 -12904623.075 9
  21121735.017    -7189564.629 8  -9966455.951 9
  24722521.964    -3637577.035 5  -2871033.325 3
  24168548.732   -14059466.393 6  -3802756.744 3
 94  5 10 17 33 30.0020000  0  7 31 18 19  2 27 16  7
  23961520.664    12564598.515 6    516603.616 4
  24281120.050    24697348.326 6  15725816.991 4
  21906493.460     2389866.237 7   1879578.840 8
  22183110.612   -16592413.328 8 -12924887.489 9
  21120302.909    -7197099.210 8  -9972327.060 9
  24731649.745    -3589540.289 5  -2833602.137 3
  24150535.762   -14154103.606 6  -3876499.986 3
 94  5 10 17 34  0.0020000  0  7 31 18 19  2 27 16  7
  23978157.887    12652043.310 6    584742.356 4
  24303726.320    24816148.424 6  15818388.418 4
  21915029.181     2434716.817 7   1914527.327 8
  22178211.614   -16618151.020 8 -12944942.834 9
  21118925.302    -7204349.400 8  -9977976.569 9
  24740866.714    -3541088.064 5  -2795847.227 3
  24132546.686   -14248633.618 6  -3950159.709 3
 94  5 10 17 34 30.0020000  0  8 31 18 19  2 26 27 16  7
  23994882.708    12739926.560 6    653222.778 4
  24326364.338    24935092.258 6  15911071.823 3
  21923610.800     2479809.805 7   1949664.694 8
  22173365.139   -16643615.908 8 -12964785.595 9
  25726740.598    -3219813.66515  -2475273.688 2
  21117595.573    -7211329.116 8  -9983415.316 9
  24750167.835    -3492217.465 5  -2757766.287 2
  24114583.032   -14343048.042 6  -4023729.343 3
 94  5 10 17 35  0.0020000  0  8 31 18 19  2 26 27 16  7
  24011695.249    12828258.853 6    722053.094 4
  24349030.327    25054189.834 6  16003875.046 3
  21932239.816     2525152.982 7   1984997.016 8
  22168570.858   -16668811.326 8 -12984418.381 9
  25710403.198    -3305616.095 5  -2542132.692 2
  21116319.596    -7218038.690 8  -9988643.566 9
  24759550.920    -3442935.144 5  -2719364.508 3
  24096640.873   -14437339.492 6  -4097203.163 4
 94  5 10 17 35 30.0020000  0  8 31 18 19  2 26 27 16  7
  24028584.327    12917041.204 6    791234.127 4
  24371726.145    25173446.868 6  16096802.526 3
  21940918.748     2570761.689 7   2020536.246 8
  22163827.422   -16693739.140 8 -13003842.654 9
  25694111.277    -3391296.046 5  -2608896.292 2
  21115095.244    -7224472.168 8  -9993656.671 9
  24769018.365    -3393248.627 5  -2680647.795 3
  24078719.309   -14531510.495 6  -4170583.125 4
 94  5 10 17 36  0.0020000  0  8 31 18 19  2 26 27 16  7
  24045562.713    13006257.944 6    860753.622 4
  24394442.349    25292865.929 5  16189856.259 3
  21949649.484     2616649.959 7   2056293.324 8
  22159135.040   -16718398.576 8 -13023057.788 9
  25677811.741    -3476847.388 4  -2675559.599 2
  21113922.126    -7230631.300 8  -9998455.978 9
  24778530.510    -3343146.646 5  -2641607.342 3
  24060823.049   -14625549.233 6  -4243860.025 4
 94  5 10 17 36 30.0020000  0  8 31 18 19  2 26 27 16  7
  24062621.774    13095889.779 6    930596.545 4
  24417204.091    25412445.689 5  16283035.197 3
  21958435.831     2662830.633 7   2092278.228 8
  22154495.422   -16742776.094 8 -13042053.266 9
  25661577.020    -3562246.638 5  -2742104.404 2
  21112805.969    -7236495.776 8 -10003025.724 9
  24788151.240    -3292633.777 5  -2602246.712 3
  24042952.091   -14719442.354 6  -4317023.471 4
 94  5 10 17 37  0.0020000  0  8 31 18 19  2 26 27 16  7
  24079751.225    13185908.675 6   1000741.098 4
  24439983.821    25532179.543 5  16376334.225 3
  21967283.156     2709306.762 7   2128493.385 8
  22149911.086   -16766877.364 8 -13060833.464 9
  25645357.289    -3647489.099 5  -2808527.100 2
  21111749.110    -7242049.406 8 -10007353.218 9
  24797841.012    -3241719.655 5  -2562573.430 3
  24025117.557   -14813202.467 6  -4390083.224 4
 94  5 10 17 37 30.0020000  0  8 31 18 19  2 26 27 16  7
  24096948.700    13276307.296 6   1071181.555 4
  24462790.533    25652055.863 5  16469744.227 3
  21976179.378     2756063.577 7   2164927.248 8
  22145377.324   -16790701.657 8 -13079397.841 9
  25629164.269    -3732557.039 5  -2874813.749 2
  21110750.292    -7247293.487 8 -10011439.527 9
  24807610.529    -3190400.888 5  -2522584.840 3
  24007293.786   -14906829.715 5  -4463039.501 4
 94  5 10 17 38  0.0020000  0  8 31 18 19  2 26 27 16  7
  24114221.362    13367061.667 6   1141899.170 4
  24485632.080    25772057.004 5  16563251.555 3
  21985125.274     2803077.697 7   2201561.596 8
  22140896.416   -16814245.615 8 -13097743.789 9
  25613009.083    -3817446.984 4  -2940961.712 2
  21109811.432    -7252237.143 8 -10015291.727 9
  24817452.835    -3138700.305 5  -2482298.755 3
  23989502.183   -15000324.522 5  -4535892.524 4
 94  5 10 17 38 30.0020000  0  8 31 18 19  2 26 27 16  7
  24131562.467    13458176.421 6   1212897.638 4
  24508493.413    25892184.773 5  16656857.515 3
  21994121.806     2850347.429 7   2238395.137 8
  22136471.690   -16837507.703 8 -13115870.076 9
  25596893.649    -3902159.505 4  -3006971.444 2
  21108928.693    -7256864.643 8 -10018897.565 9
  24827346.496    -3086645.155 5  -2441736.310 3
  23971732.525   -15093690.501 5  -4608645.187 4
 94  5 10 17 39  0.0020000  0  8 31 18 19  2 26 27 16  7
  24148976.392    13549674.904 6   1284195.136 4
  24531368.957    26012437.304 5  16750560.670 3
  22003166.335     2897872.238 7   2275427.423 8
  22132095.769   -16860489.151 8 -13133777.698 9
  25580810.893    -3986708.866 5  -3072854.046 2
  21108106.122    -7261182.469 8 -10022262.111 9
  24837312.886    -3034239.881 5  -2400901.072 3
  23953999.921   -15186917.606 5  -4681289.655 4
 94  5 10 17 39 30.0020000  0  8 31 18 19  2 26 27 16  7
  24166460.977    13641576.375 6   1355806.620 4
  24554288.450    26132810.209 5  16844357.663 3
  22012257.571     2945653.121 7   2312659.266 8
  22127780.346   -16883183.389 8 -13151461.505 9
  25564739.469    -4071093.974 4  -3138608.617 2
  21107344.649    -7265188.973 8 -10025384.052 9
  24847370.923    -2981491.567 5  -2359798.539 3
  23936290.311   -15279983.586 5  -4753808.529 4
 94  5 10 17 40  0.0020000  0  8 31 18 19  2 26 27 16  7
  24184023.929    13733875.334 5   1427727.863 4
  24577204.465    26253296.433 5  16938242.925 3
  22021401.661     2993708.372 7   2350104.865 8
  22123513.101   -16905593.905 8 -13168924.246 9
  25548704.110    -4155314.340 4  -3204234.866 2
  21106641.276    -7268876.370 8 -10028257.367 9
  24857447.187    -2928407.002 5  -2318434.026 3
  23918608.222   -15372887.890 5  -4826201.446 4
 94  5 10 17 40 30.0020000  0  8 31 18 19  2 26 27 16  7
  24201673.880    13826583.702 6   1499968.069 4
  24600166.079    26373908.437 5  17032226.203 3
  22030601.692     3042055.876 7   2387778.242 8
  22119302.126   -16927721.479 8 -13186166.508 9
  25532717.887    -4239363.333 5  -3269727.520 2
  21106004.937    -7272232.637 8 -10030872.636 9
  24867642.110    -2874971.474 5  -2276795.969 3
  23900959.200   -15465618.868 6  -4898459.297 4
 94  5 10 17 41  0.0020000  0  8 31 18 19  2 26 27 16  7
  24219390.175    13919702.075 6   1572527.813 4
  24623132.880    26494637.913 5  17126301.033 3
  22039857.454     3090695.971 7   2425679.590 8
  22115146.942   -16949570.159 8 -13203191.450 9
  25516773.006    -4323232.871 5  -3335080.377 3
  21105429.755    -7275257.015 8 -10033229.300 9
  24877887.547    -2821171.899 5  -2234874.266 3
  23883354.578   -15558167.903 6  -4970575.380 4
 94  5 10 17 41 30.0020000  0  8 31 18 19  2 26 27 16  7
  24237184.266    14013214.083 6   1645394.279 4
  24646127.621    26615476.911 5  17220461.166 3
  22049169.697     3139626.138 7   2463806.975 8
  22111043.323   -16971136.951 8 -13219996.738 9
  25500839.666    -4406897.929 5  -3400273.902 3
  21104913.512    -7277954.785 8 -10035331.470 9
  24888164.432    -2766999.703 4  -2192662.266 3
  23865773.369   -15650548.021 6  -5042559.849 4
 94  5 10 17 42  0.0020000  0  8 31 18 19  2 26 27 16  7
  24255049.589    14107104.643 6   1718555.704 4
  24669151.772    26736431.780 5  17314711.633 3
  22058532.935     3188845.691 7   2502159.868 8
  22106989.889   -16992428.157 8 -13236587.284 9
  25484952.824    -4490358.114 5  -3465307.782 3
  21104462.625    -7280335.422 8 -10037186.508 9
  24898553.770    -2712450.981 4  -2150156.802 3
  23848219.381   -15742778.740 6  -5114427.879 4
 94  5 10 17 42 30.0020000  0  8 31 18 19  2 26 27 16  7
  24272989.079    14201382.055 6   1792018.564 4
  24692192.981    26857514.723 5  17409061.851 3
  22067953.374     3238332.373 7   2540720.893 8
  22102992.067   -17013444.926 8 -13252963.985 9
  25469106.664    -4573613.830 5  -3530182.292 3
  21104070.346    -7282402.262 8 -10038797.045 9
  24908996.710    -2657524.234 4  -2107356.809 2
  23830706.315   -15834850.488 6  -5186172.040 4
 94  5 10 17 43  0.0020000  0  8 31 18 19  2 26 27 16  7
  24291005.557    14296046.534 6   1865783.081 4
  24715249.329    26978723.983 5  17503510.532 3
  22077419.231     3288075.513 7   2579481.774 8
  22099043.411   -17034197.256 8 -13269134.623 9
  25453314.467    -4656651.122 5  -3594886.623 3
  21103735.628    -7284157.919 8 -10040165.095 9
  24919530.068    -2602218.513 4  -2064261.487 2
  23813212.616   -15926765.310 6  -5257793.913 4
 94  5 10 17 43 30.0020000  0  8 31 18 19  2 26 27 16  7
  24309092.935    14391095.635 6   1939847.282 4
  24738349.447    27100071.457 5  17598066.916 3
  22086933.744     3338079.919 7   2618446.227 8
  22095142.511   -17054683.795 8 -13285098.152 9
  25437557.316    -4739460.864 5  -3659413.628 3
  21103461.048    -7285598.365 8 -10041287.525 9
  24930123.744    -2546533.279 4  -2020870.444 2
  23795753.842   -16018520.183 6  -5329291.171 4
 94  5 10 17 44  0.0020000  0  8 31 18 19  2 26 27 16  7
  24327253.283    14486532.227 6   2014213.419 4
  24761467.073    27221561.437 5  17692734.334 3
  22096498.472     3388343.735 7   2657612.837 8
  22091292.037   -17074916.392 8 -13300863.805 9
  25421843.484    -4822047.145 5  -3723766.536 3
  21103251.133    -7286704.615 8 -10042149.537 9
  24940784.124    -2490475.215 4  -1977188.916 2
  23778323.369   -16110096.438 6  -5400649.230 4
 94  5 10 17 44 30.0020000  0  8 31 18 19  2 26 27 16  7
  24345488.759    14582357.603 6   2088882.486 4
  24784608.383    27343179.716 5  17787501.698 3
  22106112.787     3438870.329 7   2696984.183 8
  22087493.187   -17094887.681 8 -13316425.857 9
  25406164.998    -4904400.675 5  -3787938.115 3
  21103105.794    -7287460.946 8 -10042738.887 9
  24951541.098    -2434055.392 4  -1933225.445 2
  23760941.193   -16201473.634 6  -5471852.198 4
 94  5 10 17 45  0.0020000  0  8 31 18 19  2 26 27 16  7
  24363795.645    14678561.685 6   2163846.688 4
  24807765.731    27464907.444 5  17882354.409 3
  22115782.562     3489686.004 7   2736580.806 8
  22083739.365   -17114604.121 8 -13331789.307 9
  25390536.068    -4986527.264 5  -3851932.766 3
  21103029.826    -7287871.864 8 -10043059.091 9
  24962337.493    -2377280.061 5  -1888985.017 2
  23743584.948   -16292653.887 6  -5542901.694 4
 94  5 10 17 45 30.0020000  0  8 31 18 19  2 26 27 16  7
  24382174.991    14775145.936 6   2239107.120 4
  24830951.740    27586731.515 5  17977282.174 3
  22125510.018     3540799.486 7   2776409.492 8
  22080037.888   -17134059.805 8 -13346949.573 9
  25374943.322    -5068446.616 5  -3915766.022 3
  21103016.246    -7287939.389 8 -10043111.703 9
  24973192.858    -2320158.572 4  -1844474.815 2
  23726272.204   -16383630.206 6  -5613792.276 4
 94  5 10 17 46  0.0020000  0  8 31 18 19  2 26 27 16  7
  24400625.598    14872113.396 6   2314666.137 4
  24854160.623    27708632.657 5  18072269.924 3
  22135293.655     3592203.584 7   2816464.601 8
  22076389.084   -17153241.432 8 -13361896.311 9
  25359410.415    -5150179.930 5  -3979454.259 3
  21103067.900    -7287666.181 8 -10042898.827 9
  24984150.662    -2262705.712 5  -1799706.390 2
  23708999.571   -16474408.887 6  -5684528.853 5
 94  5 10 17 46 30.0020000  0  8 31 18 19  2 26 27 16  7
  24419151.963    14969459.514 6   2390520.222 4
  24877366.657    27830611.328 5  18167318.141 3
  22145128.586     3643898.484 7   2856746.337 8
  22072790.105   -17172147.036 8 -13376627.923 9
  25343866.896    -5231738.546 5  -4043006.374 3
  21103178.464    -7287074.198 8 -10042437.546 9
  24995151.367    -2204925.229 5  -1754682.700 2
  23691760.785   -16564992.275 6  -5755113.265 5
 94  5 10 17 47  0.0020000  0  8 31 18 19  2 26 27 16  7
  24437743.892    15067172.960 6   2466660.530 4
  24900585.913    27952676.888 5  18262434.102 2
  22155019.999     3695876.784 7   2897248.888 8
  22069244.700   -17190787.388 8 -13391152.895 9
  25328400.393    -5313125.899 5  -4106425.040 3
  21103350.964    -7286182.570 8 -10041742.774 9
  25006182.500    -2146803.599 5  -1709393.176 2
  23674561.272   -16655386.011 6  -5825549.883 5
 94  5 10 17 47 30.0020000  0  8 31 18 19  2 26 27 16  7
  24456410.979    15165239.885 6   2543076.254 4
  24923841.324    28074824.709 5  18357614.079 2
  22164960.547     3748116.173 7   2937954.910 7
  22065752.118   -17209144.779 8 -13405457.330 9
  25312924.927    -5394339.258 5  -4169708.143 3
  21103575.179    -7284982.099 8 -10040807.341 9
  25017331.482    -2088352.312 5  -1663846.746 2
  23657393.987   -16745595.773 6  -5895843.151 5
 94  5 10 17 48  0.0020000  0  8 31 18 19  2 26 27 16  7
  24475131.159    15263637.098 6   2619749.388 3
  24947092.867    28197062.826 5  18452864.441 2
  22174950.891     3800614.272 7   2978862.496 7
  22062309.421   -17227223.510 8 -13419544.665 9
  25297529.745    -5475366.139 5  -4232845.918 3
  21103865.528    -7283464.731 8 -10039624.989 9
  25028515.299    -2029571.684 5  -1618043.745 2
  23640264.386   -16835621.302 6  -5965992.889 5
 94  5 10 17 48 30.0020000  0  8 31 18 19  2 26 27 16  7
  24493911.658    15362340.300 6   2696660.950 3
  24970380.595    28319392.863 5  18548186.471 2
  22184991.900     3853372.953 7   3019973.149 7
  22058919.338   -17245041.978 8 -13433429.182 9
  25282135.672    -5556187.360 5  -4295823.436 3
  21104216.555    -7281633.069 8 -10038197.711 9
  25039752.870    -1970453.380 5  -1571977.562 2
  23623171.029   -16925452.001 6  -6035990.757 5
 94  5 10 17 49  0.0020000  0  8 31 18 19  2 26 27 16  7
  24512757.451    15461355.314 5   2773815.467 3
  24993670.842    28441793.479 5  18643563.468 2
  22195080.246     3906396.672 7   3061290.316 7
  22055580.279   -17262592.727 8 -13447105.075 9
  25266796.521    -5636792.336 5  -4358632.486 3
  21104626.161    -7279464.890 8 -10036508.229 9
  25051071.774    -1911003.185 5  -1525652.777 2
  23606109.690   -17015094.076 6  -6105841.712 5
 94  5 10 17 49 30.0030000  0  8 31 18 19  2 26 27 16  7
  24531658.586    15560693.097 5   2851221.505 3
  25016972.570    28564261.089 5  18738992.640 2
  22205221.325     3959685.690 7   3102814.226 7
  22052292.396   -17279871.163 8 -13460568.797 9
  25251504.107    -5717177.679 5  -4421270.362 3
  21105110.416    -7276934.244 8 -10034536.296 9
  25062448.088    -1851233.163 5  -1479078.773 2
  23589082.378   -17104549.714 6  -6175547.344 5
 94  5 10 17 50  0.0030000  0  8 31 18 19  2 26 27 16  7
  24550620.639    15660360.943 6   2928884.720 3
  25040293.545    28686793.916 5  18834472.688 2
  22215412.530     4013247.918 7   3144551.022 7
  22049056.256   -17296892.078 8 -13473831.849 9
  25236249.138    -5797327.770 5  -4483724.912 3
  21105655.379    -7274049.467 8 -10032288.418 9
  25073880.644    -1791132.173 5  -1432246.886 2
  23572105.911   -17193797.078 6  -6245090.747 5
 94  5 10 17 50 30.0030000  0  8 31 18 19  2 26 27 16  7
  24569659.439    15760378.755 5   3006820.657 3
  25063616.379    28809379.446 5  18929993.767 2
  22225655.659     4067077.680 7   3186496.279 7
  22045864.905   -17313655.156 8 -13486893.977 9
  25221052.928    -5877247.392 5  -4545999.923 3
  21106272.112    -7270824.457 8 -10029775.433 9
  25085380.832    -1730709.457 5  -1385164.321 2
  23555158.343   -17282848.558 6  -6314481.443 5
 94  5 10 17 51  0.0030000  0  8 31 18 19  2 26 27 16  7
  24588760.865    15860756.086 5   3085036.715 3
  25086953.454    28932024.106 5  19025560.927 2
  22235957.037     4121189.791 7   3228661.563 7
  22042721.012   -17330153.631 8 -13499749.930 9
  25205876.685    -5956933.649 5  -4608093.064 3
  21106950.272    -7267257.565 8 -10026996.036 9
  25096916.366    -1669969.906 5  -1337834.872 2
  23538252.477   -17371699.811 6  -6383716.151 5
 94  5 10 17 51 30.0030000  0  8 31 18 19  2 26 27 16  7
  24607927.167    15961476.455 5   3163520.073 3
  25110313.402    29054741.440 5  19121184.687 2
  22246308.301     4175596.758 7   3271056.592 7
  22039632.820   -17346393.207 8 -13512404.145 9
  25190750.746    -6036380.266 5  -4669999.481 3
  21107690.790    -7263359.891 8 -10023958.893 9
  25108544.356    -1608920.709 5  -1290264.096 2
  23521385.434   -17460336.690 6  -6452783.826 5
 94  5 10 17 52  0.0030000  0  8 31 18 19  2 26 27 16  7
  24627157.803    16062536.806 5   3242268.331 3
  25133676.078    29177521.618 5  19216857.470 2
  22256725.879     4230323.350 7   3313700.678 7
  22036591.485   -17362371.723 8 -13524854.927 9
  25175689.143    -6115586.513 5  -4731718.582 3
  21108494.353    -7259145.301 8 -10020674.806 9
  25120233.085    -1547567.077 5  -1242456.120 2
  23504555.355   -17548761.213 6  -6521685.984 5
 94  5 10 17 52 30.0030000  0  8 31 18 19  2 26 27 16  7
  24646449.358    16163929.608 5   3321275.674 3
  25157046.759    29300359.782 5  19312575.408 2
  22267195.651     4285369.034 7   3356593.399 7
  22033601.145   -17378081.284 8 -13537096.150 9
  25160669.271    -6194539.979 5  -4793240.757 3
  21109359.824    -7254600.251 8 -10017133.203 9
  25131965.672    -1485917.442 5  -1194417.488 2
  23487769.346   -17636984.703 6  -6590431.533 5
 94  5 10 17 53  0.0030000  0  8 31 18 19  2 26 27 16  7
  24665805.398    16265635.851 5   3400527.233 3
  25180436.507    29423251.913 5  19408335.381 2
  22277731.887     4340729.645 7   3399731.527 7
  22030664.288   -17393523.306 8 -13549128.897 9
  25145688.672    -6273230.131 5  -4854557.722 3
  21110289.511    -7249722.596 8 -10013332.449 9
  25143753.242    -1423970.082 5  -1146146.899 2
  23471020.720   -17724994.363 6  -6659010.467 5
 94  5 10 17 53 30.0030000  0  8 31 18 19  2 26 27 16  7
  24685218.039    16367660.138 5   3480026.633 3
  25203829.882    29546189.790 5  19504131.057 2
  22288320.946     4396381.360 7   3443096.493 7
  22027775.099   -17408693.039 8 -13560949.453 9
  25130757.808    -6351655.731 5  -4915668.528 3
  21111283.682    -7244498.615 8 -10009261.808 9
  25155588.089    -1361733.484 5  -1097650.894 2
  23454309.060   -17812793.769 6  -6727425.543 5
 94  5 10 17 54  0.0030000  0  8 31 18 19  2 26 27 16  7
  24704698.193    16470000.541 5   3559772.379 3
  25227228.773    29669173.759 5  19599962.586 2
  22298962.919     4452296.691 7   3486666.865 7
  22024940.081   -17423596.385 8 -13572562.441 9
  25115892.659    -6429820.450 5  -4976576.085 3
  21112339.911    -7238932.306 8 -10004924.441 9
  25167490.359    -1299192.523 5  -1048917.748 2
  23437649.473   -17900379.861 6  -6795674.423 5
 94  5 10 17 54 30.0030000  0  8 31 18 19  2 26 27 16  7
  24724226.434    16572642.300 5   3639752.957 3
  25250652.097    29792219.959 5  19695842.631 2
  22309646.323     4508442.054 7   3530416.475 7
  22022153.450   -17438247.501 8 -13583978.884 9
  25101057.190    -6507724.819 5  -5037280.742 3
  21113466.022    -7233021.539 8 -10000318.650 9
  25179456.995    -1236348.163 5   -999948.147 2
  23421020.945   -17987731.150 6  -6863740.322 5
 94  5 10 17 55  0.0030000  0  8 31 18 19  2 26 27 16  7
  24743815.683    16675588.993 5   3719971.086 3
  25274075.122    29915335.525 5  19791776.690 2
  22320375.805     4564818.793 7   3574346.383 7
  22019413.647   -17452655.563 8 -13595205.949 9
  25086291.602    -6585380.662 5  -5097791.749 3
  21114655.808    -7226760.289 8  -9995439.772 9
  25191473.816    -1173193.454 5   -950736.778 2
  23404454.563   -18074824.271 6  -6931605.075 5
 94  5 10 17 55 30.0030000  0  8 31 18 19  2 26 27 16  7
  24763465.280    16778841.218 5   3800427.325 3
  25297512.836    30038527.881 5  19887770.646 2
  22331149.777     4621443.475 7   3618469.504 7
  22016712.847   -17466832.425 8 -13606252.847 9
  25071563.907    -6662796.131 5  -5158115.446 3
  21115916.885    -7220137.680 8  -9990279.301 9
  25203556.111    -1109715.195 5   -901273.271 2
  23387929.733   -18161667.854 6  -6999275.365 5
 94  5 10 17 56  0.0030000  0  8 31 18 19  2 26 27 16  7
  24783169.709    16882391.578 5   3881115.878 3
  25320978.551    30161791.744 5  19983820.302 2
  22341975.162     4678333.827 7   3662799.621 7
  22014057.675   -17480792.087 8 -13617130.516 9
  25056859.657    -6739969.425 5  -5218250.492 3
  21117243.287    -7213167.980 8  -9984848.373 9
  25215673.812    -1045912.552 5   -851556.952 2
  23371445.165   -18248262.023 6  -7066751.307 5
 94  5 10 17 56 30.0030000  0  8 31 18 19  2 26 27 16  7
  24802933.706    16986245.585 5   3962041.033 3
  25344448.373    30285115.852 5  20079916.881 2
  22352855.770     4735511.486 7   3707353.626 7
  22011442.495   -17494524.970 8 -13627831.467 9
  25042223.280    -6816900.492 5  -5278196.740 3
  21118640.979    -7205839.514 8  -9979137.888 9
  25227873.926     -981804.105 5   -801602.399 2
  23355008.924   -18334613.609 6  -7134038.260 5
 94  5 10 17 57  0.0030000  0  8 31 18 19  2 26 27 16  7
  24822756.793    17090417.246 5   4043213.689 3
  25367922.663    30408484.137 4  20176047.898 2
  22363797.625     4793008.567 7   3752156.527 7
  22008875.223   -17508020.361 8 -13638347.340 9
  25027637.687    -6893592.479 5  -5337956.651 3
  21120104.026    -7198147.637 8  -9973144.221 9
  25240147.220     -917391.770 5   -751411.045 2
  23338622.658   -18420735.308 6  -7201146.028 5
 94  5 10 17 57 30.0030000  0  8 31 18 19  2 26 27 16  7
  24842641.487    17194905.319 5   4124632.946 3
  25391407.085    30531890.572 4  20272208.640 2
  22374801.657     4850830.838 7   3797212.825 7
  22006355.047   -17521262.069 8 -13648665.562 9
  25013082.943    -6970040.065 5  -5397526.190 3
  21121632.188    -7190104.343 8  -9966876.730 9
  25252458.827     -852695.929 5   -700998.724 2
  23322278.692   -18506632.892 6  -7268079.179 5
 94  5 10 17 58  0.0030000  0  8 31 18 19  2 26 27 16  7
  24862583.292    17299706.044 5   4206295.801 3
  25414893.545    30655327.213 4  20368392.920 2
  22385862.860     4908966.264 7   3842513.118 7
  22003886.526   -17534237.658 8 -13658776.407 9
  24998586.299    -7046245.900 5  -5456907.327 3
  21123230.712    -7181715.263 8  -9960339.780 9
  25264820.349     -787746.924 5   -650389.189 2
  23305973.520   -18592295.030 6  -7334828.883 5
 94  5 10 17 58 30.0030000  0  8 31 18 19  2 26 27 16  7
  24882577.770    17404809.587 5   4288194.614 3
  25438390.469    30778786.111 4  20464594.535 2
  22396980.303     4967398.127 7   3888044.434 7
  22001471.009   -17546940.924 8 -13668675.062 9
  24984130.636    -7122204.013 5  -5516095.433 3
  21124893.091    -7172972.008 8  -9953526.866 9
  25277231.517     -722550.370 5   -599586.727 2
  23289723.210   -18677718.451 6  -7401392.541 5
 94  5 10 17 59  0.0030000  0  8 31 18 19  2 26 27 16  7
  24902637.633    17510198.595 5   4370315.911 3
  25461880.707    30902258.804 4  20560806.916 2
  22408153.118     5026105.961 7   3933790.768 7
  21999104.387   -17559377.837 8 -13678366.154 9
  24969722.491    -7197899.664 5  -5575079.010 3
  21126621.214    -7163885.435 8  -9946446.420 9
  25289683.696     -657104.405 4   -548589.931 2
  23273514.032   -18762901.650 6  -7467769.026 5
 94  5 10 17 59 30.0030000  0  8 31 18 19  2 26 27 16  7
  24922744.983    17615860.821 5   4452650.037 3
  25485383.116    31025749.292 4  20657033.211 2
  22419376.449     5085078.282 7   3979743.207 7
  21996788.670   -17571537.038 8 -13687840.847 9
  24955379.161    -7273305.089 5  -5633836.453 3
  21128417.781    -7154450.122 8  -9939094.234 9
  25302186.421     -591405.910 5   -497396.347 2
  23257349.792   -18847831.282 6  -7533947.945 5
 94  5 10 18  0  0.0030000  0  8 31 18 19  2 26 27 16  7
  24942898.381    17721779.802 5   4535184.248 3
  25508879.590    31149259.516 5  20753274.795 2
  22430648.135     5144311.058 7   4025898.594 7
  21994528.445   -17583424.207 8 -13697103.568 9
  24941079.270    -7348407.095 5  -5692357.431 3
  21130283.809    -7144651.337 8  -9931458.812 9
  25314718.765     -525444.034 4   -445997.535 2
  23241240.444   -18932494.733 6  -7599919.423 5
 94  5 10 18  0 30.0030000  0  8 31 18 19  2 26 27 16  7
  24963101.544    17827957.431 5   4617920.030 3
  25532396.959    31272788.769 5  20849531.260 2
  22441969.258     5203807.310 7   4072259.280 7
  21992315.317   -17595039.144 8 -13706154.170 9
  24926854.568    -7423191.639 5  -5750631.018 3
  21132215.162    -7134491.479 8  -9923542.049 9
  25327322.040     -459203.448 4   -394381.558 2
  23225178.523   -19016887.985 6  -7665680.389 6
 94  5 10 18  1  0.0030000  0  8 31 18 19  2 26 27 16  7
  24983359.840    17934396.376 5   4700859.436 3
  25555907.403    31396343.812 5  20945807.803 2
  22453344.943     5263583.263 7   4118837.928 7
  21990158.220   -17606380.148 8 -13714991.305 9
  24912693.541    -7497666.688 5  -5808663.508 3
  21134219.874    -7123968.049 8  -9915341.967 9
  25339977.389     -392674.369 3   -342540.771 2
  23209172.035   -19101001.540 6  -7731223.368 6
 94  5 10 18  1 30.0030000  0  8 31 18 19  2 26 27 16  7
  25003659.956    18041099.196 5   4784004.405 3
  25579416.109    31519926.688 4  21042106.021 2
  22464773.781     5323639.059 7   4165634.618 7
  21988054.876   -17617442.133 8 -13723611.036 9
  24898573.886    -7571851.446 5  -5866469.770 3
  21136292.069    -7113071.790 8  -9906851.382 9
  25352722.735     -325864.057 4   -290480.855 2
  23193220.018   -19184828.879 6  -7796543.332 6
 94  5 10 18  2  0.0030000  0  8 31 18 19  2 26 27 16  7
  25024023.269    18148086.874 5   4867371.385 3
  25602941.273    31643544.045 5  21138431.176 2
  22476253.823     5383971.459 7   4212646.860 7
  21986002.377   -17628225.970 8 -13732014.029 9
  24884497.431    -7645753.253 5  -5924055.577 3
  21138436.215    -7101800.527 8  -9898068.570 9
  25365480.313     -258769.879 4   -238199.771 2
  23177321.964   -19268373.003 6  -7861642.630 6
 94  5 10 18  2 30.0030000  0  8 31 18 19  2 26 27 16  7
  25044441.414    18255378.653 5   4950975.322 3
  25626476.479    31767197.495 5  21234784.382 2
  22487787.439     5444580.418 7   4259874.590 7
  21983998.714   -17638735.611 8 -13740203.358 9
  24870502.250    -7719375.793 5  -5981423.735 3
  21140651.921    -7090161.726 8  -9888999.387 9
  25378260.226     -191403.775 3   -185706.753 2
  23161472.956   -19351651.226 6  -7926534.717 6
 94  5 10 18  3  0.0030000  0  8 31 18 19  2 26 27 16  7
  25064913.342    18362970.762 5   5034813.261 3
  25650010.367    31890887.097 5  21331165.816 2
  22499371.659     5505467.611 7   4307319.111 7
  21982049.104   -17648988.149 8 -13748192.334 9
  24856535.369    -7792730.211 5  -6038582.997 3
  21142935.890    -7078154.136 8  -9879642.837 9
  25391162.544     -123784.427 3   -133016.377 2
  23145680.219   -19434664.723 6  -7991220.520 6
 94  5 10 18  3 30.0030000  0  8 31 18 19  2 26 27 16  7
  25085444.058    18470863.856 5   5118885.769 2
  25673556.277    32014605.663 4  21427569.793 2
  22511014.549     5566631.786 7   4354979.498 7
  21980143.054   -17659001.189 8 -13755994.702 9
  24842629.645    -7865814.451 5  -6095531.713 3
  21145293.188    -7065780.821 8  -9870001.286 9
  25404068.070      -55938.111 3    -80149.258 2
  23129930.203   -19517423.319 6  -8055707.697 6
 94  5 10 18  4  0.0030000  0  8 31 18 19  2 26 27 16  7
  25106036.503    18579053.718 5   5203189.529 2
  25697106.503    32138354.107 5  21523997.025 2
  22522704.506     5628081.624 7   4402862.455 7
  21978283.261   -17668799.375 8 -13763629.658 9
  24828775.786    -7938611.204 5  -6152256.401 4
  21147711.164    -7053042.431 8  -9860075.282 9
  25417040.659       12134.617 4    -27105.595 2
  23114233.939   -19599927.771 6  -8119996.841 6
 94  5 10 18  4 30.0030000  0  8 31 18 19  2 26 27 16  7
  25126674.155    18687522.918 5   5287710.932 2
  25720654.122    32262115.600 4  21620434.438 2
  22534455.531     5689824.490 7   4450973.742 7
  21976454.017   -17678391.670 8 -13771104.177 9
  24814981.915    -8011115.996 5  -6208753.618 4
  21150207.596    -7039935.774 8  -9849862.307 9
  25430003.565       80429.360 3     26111.039 2
  23098581.924   -19682166.764 6  -8184079.162 6
 94  5 10 18  5  0.0030000  0  8 31 18 19  2 26 27 16  7
  25147362.203    18796245.933 5   5372430.107 2
  25744203.569    32385876.764 4  21716871.586 2
  22546261.538     5751863.914 7   4499316.123 7
  21974669.143   -17687777.234 8 -13778417.598 9
  24801240.269    -8083326.313 6  -6265021.369 4
  21152772.410    -7026458.387 8  -9839360.440 9
  25443077.724      148942.165 4     79497.532 2
  23082985.072   -19764123.593 6  -8247941.570 6
 94  5 10 18  5 30.0030000  0  8 31 18 19  2 26 27 16  7
  25168104.754    18905210.856 5   5457337.798 2
  25767751.037    32509634.041 4  21813305.750 2
  22558122.287     5814185.664 7   4547878.484 7
  21972922.732   -17696950.439 8 -13785565.555 9
  24787553.574    -8155225.587 6  -6321046.746 4
  21155411.064    -7012612.055 8  -9828571.099 9
  25456137.673      217671.407 3    133052.738 2
  23067446.559   -19845794.036 6  -8311580.844 6
 94  5 10 18  6  0.0030000  0  7 31 19  2 26 27 16  7
  25188876.444    19014403.789 5   5542423.141 2
  22570034.360     5876781.518 7   4596654.433 7
  21971220.990   -17705893.878 8 -13792534.470 9
  24773926.987    -8226812.806 6  -6376828.977 4
  21158112.733    -6998402.867 8  -9817499.018 9
  25469260.398      286626.788 4    186784.119 2
  23051957.482   -19927173.700 6  -8374993.544 6
 94  5 10 18  6 30.0030000  0  7 31 19  2 26 27 16  7
  25209705.724    19123823.100 5   5627684.900 2
  22582000.576     5939666.697 7   4645655.850 7
  21969566.855   -17714594.518 8 -13799314.184 9
  24760365.396    -8298097.578 6  -6432375.536 3
  21160884.165    -6983834.047 8  -9806146.692 9
  25482421.557      355809.388 4    240692.615 2
  23036526.445   -20008258.506 6  -8438176.482 6
 94  5 10 18  7  0.0030000  0  7 31 19  2 26 27 16  7
  25230570.080    19233471.396 5   5713125.068 2
  22594021.744     6002841.808 7   4694883.158 7
  21967959.248   -17723054.472 8 -13805906.357 9
  24746854.169    -8369085.712 6  -6487690.949 3
  21163725.927    -6968908.806 8  -9794516.642 9
  25495639.436      425211.981 4    294772.522 2
  23021153.357   -20089047.620 6  -8501129.004 6
 94  5 10 18  7 30.0030000  0  8 31 19 15  2 26 27 16  7
  25251478.085    19343359.744 5   5798752.312 2
  22606094.746     6066294.214 7   4744326.560 7
  25654370.849    -3127243.99314  -2442711.091 2
  21966394.901   -17731265.337 8 -13812304.437 9
  24733407.189    -8439775.795 6  -6542774.082 3
  21166633.674    -6953617.260 8  -9782601.149 9
  25508885.916      494853.723 4    349038.779 2
  23005837.440   -20169543.769 6  -8563853.233 6
 94  5 10 18  8  0.0030000  0  8 31 19 15  2 26 27 16  7
  25272436.816    19453491.880 5   5884569.498 2
  22618226.148     6130043.338 7   4794001.183 7
  25644674.991    -3178242.659 4  -2482450.195 2
  21964878.671   -17739225.062 8 -13818506.816 9
  24720010.423    -8510174.429 5  -6597630.160 3
  21169616.819    -6937952.537 8  -9770394.889 9
  25522198.140      564741.301 4    403496.560 2
  22990575.516   -20249750.245 6  -8626351.755 6
 94  5 10 18  8 30.0030000  0  8 31 19 15  2 26 27 16  7
  25293443.753    19563871.679 5   5970579.690 2
  22630415.919     6194089.088 7   4843906.924 7
  25635011.871    -3229001.609 4  -2522002.567 2
  21963412.086   -17746932.813 8 -13824512.857 9
  24706671.337    -8580272.492 5  -6652251.983 4
  21172666.518    -6921915.113 8  -9757898.193 9
  25535543.881      634857.079 4    458132.197 2
  22975363.567   -20329666.124 6  -8688623.830 6
 94  5 10 18  9  0.0030000  0  8 31 19 15  2 26 27 16  7
  25314489.753    19674490.841 5   6056776.435 2
  22642656.265     6258422.782 7   4894037.059 7
  25625405.111    -3279511.749 4  -2561361.019 2
  21961994.188   -17754376.641 8 -13830313.250 9
  24693393.709    -8650035.932 5  -6706613.082 4
  21175794.043    -6905490.285 8  -9745099.638 9
  25548901.314      705206.376 4    512949.757 2
  22960213.495   -20409294.769 6  -8750672.086 6
 94  5 10 18  9 30.0030000  0  8 31 19 15  2 26 27 16  7
  25335584.320    19785344.858 5   6143156.104 2
  22654955.041     6323051.974 7   4944397.426 7
  25615838.434    -3329773.190 4  -2600525.717 2
  21960629.473   -17761557.791 8 -13835908.937 9
  24680189.770    -8719458.492 6  -6760708.564 4
  21178992.109    -6888678.641 8  -9731999.654 9
  25562356.869      775796.323 4    567954.854 2
  22945114.118   -20488648.307 6  -8812505.984 6
 94  5 10 18 10  0.0030000  0  8 31 19 15  2 26 27 16  7
  25356724.545    19896424.845 5   6229711.885 2
  22667311.916     6387991.191 7   4994999.372 7
  25606320.743    -3379785.533 4  -2639496.342 2
  21959307.808   -17768489.505 8 -13841310.278 9
  24667036.616    -8788536.462 6  -6814535.547 4
  21182264.104    -6871486.488 8  -9718603.173 9
  25575825.464      846606.191 4    623131.326 2
  22930063.817   -20567727.609 6  -8874126.165 6
 94  5 10 18 10 30.0030000  0  8 31 19 15  2 26 27 16  7
  25377899.066    20007726.464 5   6316440.351 2
  22679729.830     6453225.537 7   5045831.302 7
  25596851.678    -3429544.161 4  -2678269.229 2
  21958036.388   -17775171.995 8 -13846517.407 9
  24653961.318    -8857253.374 5  -6868081.144 4
  21185607.899    -6853913.327 8  -9704909.812 9
  25589340.798      917626.744 5    678471.956 2
  22915072.216   -20646511.159 6  -8935515.914 6
 94  5 10 18 11  0.0030000  0  8 31 19 15  2 26 27 16  7
  25399121.434    20119248.802 5   6403340.804 2
  22692197.598     6518755.188 7   5096893.339 7
  25587439.724    -3479046.314 4  -2716842.238 2
  21956810.596   -17781619.142 8 -13851541.155 9
  24640958.389    -8925611.221 5  -6921346.934 4
  21189027.392    -6835948.241 8  -9690911.035 9
  25602895.914      988872.459 4    733988.018 2
  22900137.934   -20724980.917 7  -8996661.127 6
 94  5 10 18 11 30.0030000  0  8 31 19 15  2 26 27 16  7
  25420387.062    20230997.145 5   6490417.384 2
  22704722.568     6584569.319 7   5148177.031 7
  25578056.730    -3528291.713 4  -2755215.175 2
  21955626.416   -17787832.822 8 -13856382.993 9
  24628011.283    -8993636.845 5  -6974353.896 4
  21192518.535    -6817598.079 8  -9676612.214 9
  25616488.924     1060321.430 4    789662.522 2
  22885273.475   -20803110.631 7  -9057541.391 6
 94  5 10 18 12  0.0030000  0  8 31 19 15  2 26 27 16  7
  25441694.541    20342967.580 5   6577667.030 2
  22717293.915     6650651.611 7   5199669.686 7
  25568737.441    -3577273.143 4  -2793382.467 2
  21954488.884   -17793817.234 8 -13861046.157 9
  24615127.912    -9061323.718 6  -7027096.894 4
  21196081.928    -6798865.289 8  -9662015.240 9
  25630136.586     1131944.805 5    845472.825 2
  22870470.952   -20880881.120 7  -9118141.724 6
 94  5 10 18 12 30.0030000  0  8 31 19 15  2 26 27 16  7
  25463045.191    20455149.962 5   6665081.851 2
  22729920.663     6716990.789 7   5251362.522 7
  25559471.096    -3625992.817 4  -2831345.893 2
  21953390.834   -17799584.229 8 -13865539.935 9
  24602313.972    -9128687.548 5  -7079588.165 4
  21199719.010    -6779758.179 8  -9647126.595 9
  25643797.828     1203734.154 5    901412.554 2
  22855739.661   -20958295.194 7  -9178464.336 6
 94  5 10 18 13  0.0030000  0  8 31 19 15  2 26 27 16  7
  25484434.423    20567550.421 5   6752666.582 2
  22742593.190     6783587.999 7   5303256.411 7
  25550248.971    -3674450.442 4  -2869104.989 2
  21952335.145   -17805137.399 8 -13869867.073 9
  24589551.298    -9195750.884 5  -7131845.281 4
  21203426.843    -6760276.053 8  -9631945.716 9
  25657473.641     1275687.511 5    957480.073 2
  22841070.546   -21035380.278 7  -9238530.596 6
 94  5 10 18 13 30.0030000  0  8 31 19 15  2 26 27 16  7
  25505865.417    20680168.217 5   6840420.649 3
  22755313.324     6850445.241 7   5355352.938 7
  25541079.249    -3722638.629 4  -2906654.087 2
  21951322.116   -17810471.175 8 -13874023.264 9
  24576840.457    -9262509.285 5  -7183864.783 4
  21207203.808    -6740417.253 8  -9616471.332 9
  25671206.414     1347795.333 5   1013667.928 2
  22826462.379   -21112151.334 7  -9298352.173 6
 94  5 10 18 14  0.0030000  0  8 31 19 15  2 26 27 16  7
  25527333.884    20792998.520 5   6928340.319 3
  22768087.991     6917564.198 7   5407653.399 7
  25531958.873    -3770559.352 4  -2943994.878 2
  21950344.433   -17815595.280 8 -13878016.076 9
  24564205.644    -9328955.101 6  -7235640.725 4
  21211055.962    -6720183.082 8  -9600704.457 9
  25684961.731     1420070.429 5   1069986.136 2
  22811910.423   -21188634.636 7  -9357949.492 7
 94  5 10 18 14 30.0030000  0  8 31 19 15  2 26 27 16  7
  25548845.672    20906039.865 5   7016424.426 3
  22780913.472     6984959.899 7   5460169.485 7
  25522896.476    -3818203.579 4  -2981120.207 2
  21949418.014   -17820489.284 8 -13881829.582 9
  24551614.301    -9395088.034 6  -7287172.885 4
  21214977.637    -6699562.637 8  -9584636.575 9
  25698745.139     1492540.597 5   1126456.331 2
  22797409.402   -21264831.806 7  -9417323.878 7
 94  5 10 18 15  0.0030000  0  8 31 19 15  2 26 27 16  7
  25570393.525    21019284.370 5   7104666.854 3
  22793789.888     7052631.097 7   5512900.275 6
  25513872.544    -3865566.733 4  -3018026.496 2
  21948533.177   -17825139.165 8 -13885452.859 9
  24539097.846    -9460886.815 6  -7338444.606 4
  21218977.977    -6678555.133 8  -9568267.106 9
  25712554.059     1565202.782 4   1183076.157 2
  22782962.193   -21340746.487 7  -9476478.138 7
 94  5 10 18 15 30.0030000  0  8 31 19 15  2 26 27 16  7
  25591979.691    21132710.310 5   7193050.660 3
  22806720.896     7120584.686 7   5565851.102 6
  25504921.460    -3912648.348 4  -3054713.396 2
  21947693.938   -17829543.169 8 -13888884.552 9
  24526642.609    -9526332.339 6  -7389441.083 4
  21223048.379    -6657163.904 8  -9551598.610 9
  25726442.005     1638053.437 4   1239842.848 2
  22768572.575   -21416358.188 7  -9535396.301 7
 94  5 10 18 16  0.0030000  0  7 31 19 15  2 26 27  7
  25613590.860    21246313.158 5   7281572.301 3
  22819710.093     7188834.036 7   5619032.361 6
  25496010.459    -3959444.153 4  -3091177.575 2
  21946902.156   -17833700.587 8 -13892124.095 9
  24514253.835    -9591424.702 6  -7440162.387 4
  21227189.922    -6635393.048 8  -9534634.311 9
  22754246.483   -21491652.005 7  -9594066.783 7
 94  5 10 18 16 30.0030000  0  7 31 19 15  2 26 27  7
  25635261.478    21360086.010 4   7370226.383 3
  22832754.963     7257388.571 7   5672451.469 6
  25487166.312    -4005951.138 5  -3127416.727 2
  21946157.022   -17837607.997 8 -13895168.846 9
  24501938.601    -9656164.777 6  -7490609.188 4
  21231406.923    -6613242.131 8  -9517373.875 9
  22739981.159   -21566607.299 7  -9652473.495 7
 94  5 10 18 17  0.0030000  0  6 19 15  2 26 27  7
  22845858.951     7326249.231 7   5726109.099 6
  25478370.611    -4052164.604 5  -3163427.161 2
  21945461.353   -17841267.975 8 -13898020.769 9
  24489684.344    -9720546.864 6  -7540777.014 4
  21235694.585    -6590700.737 8  -9499809.152 9
  22725787.245   -21641209.183 7  -9710604.776 7
 94  5 10 18 17 30.0030000  0  6 19 15  2 26 27  7
  22859021.099     7395422.768 7   5780010.522 6
  25469633.520    -4098080.319 5  -3199205.570 2
  21944806.547   -17844687.133 8 -13900685.049 9
  24477498.530    -9784583.553 6  -7590675.688 4
  21240060.762    -6567762.365 8  -9481935.111 9
  22711661.804   -21715433.617 7  -9768441.958 7
 94  5 10 18 18  0.0030000  0  6 19 15  2 26 27  7
  22872243.415     7464903.280 7   5834151.144 6
  25460953.359    -4143694.695 4  -3234749.198 2
  21944205.133   -17847877.941 8 -13903171.394 9
  24465378.911    -9848281.914 6  -7640310.765 4
  21244502.967    -6544424.782 8  -9463749.987 9
  22697608.493   -21789285.835 7  -9825989.121 7
 94  5 10 18 18 30.0030000  0  6 19 15  2 26 27  7
  22885517.236     7534666.536 7   5888512.094 6
  25452331.388    -4189005.996 4  -3270056.619 2
  21943638.525   -17850840.879 8 -13905480.174 9
  24453322.427    -9911621.512 6  -7689666.252 4
  21249023.537    -6520663.224 8  -9445234.498 9
  22683626.292   -21862771.784 7  -9883250.846 7
 94  5 10 18 19  0.0030000  0  6 19 15  2 26 27  7
  22898846.249     7604700.490 7   5943083.972 6
  25443770.874    -4234010.696 4  -3305125.174 2
  21943116.347   -17853592.413 8 -13907624.231 9
  24441338.284    -9974591.286 6  -7738733.611 4
  21253626.161    -6496473.368 8  -9426385.258 9
  22669708.667   -21935906.078 7  -9940238.577 7
 94  5 10 18 19 30.0030000  0  6 19 15  2 26 27  7
  22912222.748     7674996.098 7   5997859.728 6
  25435260.486    -4278706.158 4  -3339952.771 2
  21942629.694   -17856152.114 8 -13909618.803 9
  24429428.459   -10037178.304 6  -7787502.695 5
  21258308.769    -6471868.870 8  -9407212.933 9
  22655854.388   -22008703.667 7  -9996963.944 7
 94  5 10 18 20  0.0030000  0  6 19 15  2 26 27  7
  22925647.694     7745542.928 7   6052831.256 6
  25426821.298    -4323092.921 4  -3374539.849 2
  21942178.806   -17858519.330 8 -13911463.390 9
  24417599.907   -10099366.146 6  -7835960.724 5
  21263067.045    -6446856.687 8  -9387722.929 9
  22642058.929   -22081188.456 7 -10053445.566 7
 94  5 10 18 20 30.0030000  0  6 19 15  2 26 27  7
  22939119.768     7816345.338 7   6108001.949 6
  25418436.702    -4367164.332 4  -3408881.111 2
  21941770.039   -17860674.714 8 -13913142.911 9
  24405842.617   -10161148.581 6  -7884102.853 5
  21267904.076    -6421447.403 8  -9367923.495 9
  22628333.051   -22153344.969 7 -10109671.387 7
 94  5 10 18 21  0.0030000  0  6 19 15  2 26 27  7
  22952646.613     7887436.191 7   6163397.360 6
  25410101.873    -4410910.741 5  -3442969.231 2
  21941401.804   -17862606.352 8 -13914648.076 9
  24394160.214   -10222534.513 6  -7931936.024 5
  21272808.171    -6395668.305 8  -9347835.894 9
  22614667.911   -22225158.317 7 -10165629.814 7
 94  5 10 18 21 30.0030000  0  6 19 15  2 26 27  7
  22966230.839     7958824.328 7   6219024.446 6
  25401838.873    -4454330.600 4  -3476802.856 2
  21941077.488   -17864299.209 8 -13915967.190 9
  24382549.912   -10283529.568 6  -7979464.614 5
  21277783.347    -6369518.962 8  -9327459.808 9
  22601062.790   -22296628.166 7 -10221320.573 7
 94  5 10 18 22  0.0030000  0  6 19 15  2 26 27  7
  22979876.103     8030521.219 7   6274892.105 6
  25393643.926    -4497422.393 4  -3510380.840 2
  21940807.705   -17865734.826 8 -13917085.846 9
  24371017.316   -10344147.622 6  -8026699.422 5
  21282832.871    -6342983.334 8  -9306782.692 9
  22587534.086   -22367736.950 7 -10276729.973 8
 94  5 10 18 22 30.0030000  0  6 19 15  2 26 27  7
  22993580.575     8102523.187 6   6330997.501 6
  25385492.269    -4540188.834 4  -3543705.343 2
  21940578.454   -17866922.407 8 -13918011.228 9
  24359549.625   -10404403.740 6  -8073652.221 5
  21287958.363    -6316059.766 8  -9285803.302 9
  22574070.346   -22438480.731 7 -10331854.970 8
 94  5 10 18 23  0.0030000  0  6 19 15  2 26 27  7
  23007336.013     8174818.447 6   6387331.427 6
  25377424.674    -4582629.658 5  -3576776.106 2
  21940395.670   -17867873.804 8 -13918752.580 9
  24348157.781   -10464291.007 6  -8120317.615 5
  21293156.914    -6288733.953 8  -9264510.473 9
  22560676.039   -22508879.269 7 -10386710.947 8
 94  5 10 18 23 30.0030000  0  6 19 15  2 26 27  7
  23021148.141     8247394.988 7   6443884.541 6
  25369408.554    -4624734.096 4  -3609584.754 2
  21940264.301   -17868580.525 8 -13919303.273 9
  24336833.151   -10523792.389 6  -8166682.310 5
  21298437.728    -6260979.284 8  -9242883.465 9
  22547351.224   -22578906.516 7 -10441277.607 8
 94  5 10 18 24  0.0030000  0  6 19 15  2 26 27  7
  23035008.655     8320246.658 7   6500652.035 6
  25361461.835    -4666499.178 5  -3642128.945 2
  21940176.672   -17869036.102 8 -13919658.259 9
  24325585.598   -10582895.780 6  -8212736.878 5
  21303802.904    -6232798.406 8  -9220924.343 9
  22534097.849   -22648545.124 7 -10495541.421 8
 94  5 10 18 24 30.0030000  0  6 19 15  2 26 27  7
  23048924.482     8393370.752 7   6557631.807 6
  25353577.713    -4707922.512 5  -3674406.913 2
  21940136.530   -17869246.058 8 -13919821.853 9
  24314418.928   -10641586.239 6  -8258469.682 5
  21309246.506    -6204195.539 8  -9198636.402 9
  22520918.852   -22717806.874 7 -10549511.594 8
 94  5 10 18 25  0.0030000  0  6 19 15  2 26 27  7
  23062890.853     8466763.924 7   6614821.247 6
  25345766.291    -4749007.692 5  -3706421.285 2
  21940140.307   -17869222.691 8 -13919803.654 9
  24303329.155   -10699866.948 6  -8303883.207 5
  21314767.543    -6175173.096 8  -9176021.540 9
  22507808.988   -22786689.234 7 -10603186.132 8
 94  5 10 18 25 30.0030000  0  6 19 15  2 26 27  7
  23076909.958     8540441.412 7   6672232.260 6
  25338006.913    -4789752.798 5  -3738170.725 2
  21940192.291   -17868966.780 8 -13919604.258 9
  24292308.095   -10757747.284 6  -8348984.736 5
  21320372.253    -6145725.776 8  -9153075.567 9
  22494774.702   -22855180.138 7 -10656555.640 8
 94  5 10 18 26  0.0030000  0  6 19 15  2 26 27  7
  23090987.822     8614415.132 7   6729874.077 6
  25330327.519    -4830155.107 5  -3769653.053 2
  21940281.239   -17868486.293 8 -13919229.865 9
  24281370.437   -10815233.704 6  -8393779.346 5
  21326056.498    -6115858.198 8  -9129802.137 9
  22481812.455   -22923303.735 7 -10709638.918 8
 94  5 10 18 26 30.0030000  0  6 19 15  2 26 27  7
  23105122.826     8688678.211 7   6787741.371 6
  25322702.418    -4870212.781 5  -3800866.793 2
  21940411.259   -17867797.895 8 -13918693.450 9
  24270506.618   -10872347.554 6  -8438283.607 5
  21331818.689    -6085575.581 7  -9106205.309 9
  22468917.722   -22991061.096 7 -10762436.833 8
 94  5 10 18 27  0.0030000  0  6 19 15  2 26 27  7
  23119304.089     8763221.558 7   6845827.071 6
  25315148.068    -4909919.940 5  -3831807.410 2
  21940582.891   -17866895.437 8 -13917990.233 9
  24259702.727   -10929099.326 6  -8482505.757 5
  21337657.597    -6054884.015 8  -9082289.819 9
  22456097.337   -23058430.237 7 -10814932.237 8
 94  5 10 18 27 30.0030000  0  6 19 15  2 26 27  7
  23133543.661     8838039.795 7   6904126.948 6
  25307651.847    -4949277.125 5  -3862475.314 2
  21940797.062   -17865774.534 8 -13917116.814 9
  24248971.656   -10985485.623 6  -8526443.102 5
  21343572.832    -6023799.249 8  -9058067.935 9
  22443350.911   -23125418.969 7 -10867131.224 8
 94  5 10 18 28  0.0030000  0  6 19 15  2 26 27  7
  23147832.279     8913125.030 7   6962634.876 6
  25300224.939    -4988278.999 5  -3892866.376 2
  21941053.685   -17864436.742 8 -13916074.385 9
  24238315.114   -11041501.150 6  -8570091.549 5
  21349559.567    -5992331.137 8  -9033547.337 9
  22430677.815   -23192016.557 7 -10919025.406 8
 94  5 10 18 28 30.0030000  0  6 19 15  2 26 27  7
  23162168.954     8988473.034 6   7021347.549 6
  25292875.107    -5026922.434 5  -3922978.080 2
  21941347.751   -17862887.156 8 -13914866.913 9
  24227731.241   -11097125.956 6  -8613435.537 5
  21355624.729    -5960473.776 8  -9008723.429 9
  22418079.546   -23258210.357 7 -10970604.961 8
 94  5 10 18 29  0.0030000  0  6 19 15  2 26 27  7
  23176561.151     9064099.484 6   7080277.204 6
  25285593.298    -5065205.741 5  -3952809.185 2
  21941682.080   -17861132.575 8 -13913499.720 9
  24217225.644   -11152323.238 6  -8656446.386 5
  21361759.562    -5928224.442 8  -8983594.083 9
  22405558.475   -23324007.683 7 -11021875.580 8
 94  5 10 18 29 30.0030000  0  6 19 15  2 26 27  7
  23191006.141     9140018.922 6   7139435.165 6
  25278376.304    -5103126.227 5  -3982357.582 2
  21942051.544   -17859178.777 8 -13911977.272 9
  24206809.894   -11207071.602 6  -8699107.412 5
  21367972.820    -5895575.282 8  -8958153.190 9
  22393114.389   -23389420.823 7 -11072846.808 8
 94  5 10 18 30  0.0030000  0  6 19 15  2 26 27  7
  23205508.751     9216231.809 6   7198821.798 6
  25271232.670    -5140678.161 5  -4011618.826 2
  21942461.570   -17857029.170 8 -13910302.262 9
  24196474.579   -11261370.243 6  -8741418.037 5
  21374266.333    -5862514.202 8  -8932391.329 9
  22380739.077   -23454446.693 7 -11123516.288 8
 94  5 10 18 30 30.0030000  0  6 19 15  2 26 27  7
  23220071.019     9292742.559 6   7258440.547 6
  25264156.878    -5177860.235 5  -4040591.832 2
  21942907.151   -17854677.598 8 -13908469.872 9
  24186228.213   -11315210.135 6  -8783371.168 5
  21380635.994    -5829037.848 7  -8906305.868 9
  22368436.254   -23519104.328 7 -11173898.838 9
 94  5 10 18 31  0.0030000  0  6 19 15  2 26 27  7
  23234686.531     9369559.212 6   7318297.624 6
  25257154.955    -5214668.432 5  -4069273.418 2
  21943398.631   -17852113.159 8 -13906471.614 9
  24176067.677   -11368608.146 6  -8824980.003 5
  21387086.148    -5795138.589 7  -8879890.866 9
  22356200.285   -23583391.562 7 -11223992.743 9
 94  5 10 18 31 30.0030000  0  6 19 15  2 26 27  7
  23249360.233     9446663.833 6   7378379.091 6
  25250219.707    -5251103.634 5  -4097664.491 2
  21943921.589   -17849330.280 8 -13904303.142 9
  24165980.979   -11421605.958 6  -8866276.973 5
  21393616.497    -5760811.221 7  -8853142.279 9
  22344038.304   -23647305.363 7 -11273795.683 9
 94  5 10 18 32  0.0030000  0  6 19 15  2 26 27  7
  23264086.548     9524051.004 6   7438680.745 6
  25243354.339    -5287163.547 5  -4125763.097 2
  21944498.300   -17846333.922 8 -13901968.319 9
  24155973.518   -11474215.794 6  -8907271.626 5
  21400232.228    -5726054.495 7  -8826059.131 9
  22331950.432   -23710841.215 7 -11323304.090 9
 94  5 10 18 32 30.0030000  0  6 19 15  2 26 27  7
  23278865.807     9601720.544 6   7499202.423 5
  25236560.203    -5322847.631 5  -4153568.795 2
  21945106.819   -17843118.090 8 -13899462.477 9
  24146037.376   -11526434.385 6  -8947961.440 5
  21406927.043    -5690864.708 7  -8798638.527 9
  22319931.663   -23773989.543 7 -11372510.562 9
 94  5 10 18 33  0.0030000  0  6 19 15  2 26 27  7
  23293697.889     9679651.795 6   7559928.036 5
  25229851.447    -5358152.514 5  -4181079.102 2
  21945760.636   -17839686.415 8 -13896788.442 9
  24136172.795   -11578265.721 6  -8988349.471 5
  21413707.359    -5655244.329 8  -8770882.410 9
  22307993.178   -23836731.003 7 -11421399.969 9
 94  5 10 18 33 30.0030000  0  6 19 15  2 26 27  7
  23308576.408     9757836.180 6   7620850.888 5
  25223207.537    -5393070.509 5  -4208287.843 2
  21946458.823   -17836025.168 8 -13893935.523 9
  24126384.422   -11629683.901 6  -9028415.562 5
  21420566.580    -5619200.138 8  -8742796.038 9
  22296129.521   -23899067.435 7 -11469973.784 9
 94  5 10 18 34  0.0030000  0  6 19 15  2 26 27  7
  23323501.336     9836278.294 6   7681974.566 5
  25216636.566    -5427600.901 5  -4235194.668 2
  21947200.899   -17832129.398 8 -13890899.870 9
  24116687.155   -11680659.007 6  -9068136.430 5
  21427503.058    -5582743.271 8  -8714388.104 9
  22284344.379   -23961000.672 7 -11518233.425 9
 94  5 10 18 34 30.0030000  0  6 19 15  2 26 27  7
  23338476.569     9914974.553 6   7743296.282 5
  25210134.637    -5461741.312 5  -4261797.537 2
  21947989.503   -17827989.183 8 -13887673.722 9
  24107071.132   -11731186.843 6  -9107508.749 5
  21434518.412    -5545882.361 8  -8685665.339 9
  22272638.143   -24022524.147 7 -11566173.765 9
 94  5 10 18 35  0.0030000  0  6 19 15  2 26 27  7
  23353504.775     9993929.461 6   7804819.550 5
  25203710.624    -5495491.036 5  -4288095.986 2
  21948818.729   -17823615.183 8 -13884265.413 9
  24097541.179   -11781269.602 6  -9146534.236 6
  21441607.034    -5508632.040 8  -8656639.115 9
  22261006.226   -24083644.135 7 -11613799.693 9
 94  5 10 18 35 30.0030000  0  6 19 15  2 26 27  7
  23368581.338    10073172.383 6   7866567.257 5
  25197370.703    -5528847.385 5  -4314087.919 2
  21949697.451   -17819009.420 8 -13880676.514 9
  24088099.096   -11830893.173 6  -9185201.961 6
  21448766.258    -5470992.156 8  -8627309.356 9
  22249452.584   -24144350.611 7 -11661103.427 9
 94  5 10 18 36  0.0030000  0  6 19 15  2 26 27  7
  23383717.020    10152705.839 6   7928541.343 5
  25191082.107    -5561811.549 4  -4339774.260 2
  21950611.548   -17814198.084 8 -13876927.419 9
  24078738.346   -11880072.818 6  -9223523.742 6
  21456008.764    -5432958.155 8  -8597672.487 9
  22237982.465   -24204627.608 7 -11708072.492 9
 94  5 10 18 36 30.0030000  0  6 19 15  2 26 27  7
  23398907.623    10232527.047 6   7990739.638 5
  25184898.797    -5594380.168 5  -4365152.342 2
  21951566.297   -17809190.463 8 -13873025.383 9
  24069465.975   -11928821.703 6  -9261509.870 6
  21463318.244    -5394530.623 8  -8567728.960 9
  22226596.527   -24264472.674 7 -11754704.978 9
 94  5 10 18 37  0.0030000  0  6 19 15  2 26 27  7
  23414151.710    10312644.113 6   8053168.473 5
  25178766.842    -5626546.546 4  -4390217.031 2
  21952553.693   -17803987.720 8 -13868971.299 9
  24060267.773   -11977129.439 6  -9299152.240 6
  21470708.908    -5355689.197 8  -8537462.947 9
  22215291.444   -24323877.117 7 -11800994.139 9
 94  5 10 18 37 30.0030000  0  6 19 15  2 26 27  7
  23429455.156    10393050.546 6   8115822.793 5
  25172727.673    -5658309.656 4  -4414967.475 2
  21953580.453   -17798590.779 8 -13864765.888 9
  24051159.839   -12025001.260 6  -9336454.951 6
  21478180.515    -5316420.625 8  -8506864.062 9
  22204069.822   -24382847.153 7 -11846944.779 9
 94  5 10 18 38  0.0030000  0  6 19 15  2 26 27  7
  23444805.459    10473731.845 6   8178691.283 5
  25166761.114    -5689664.825 4  -4439400.046 2
  21954645.135   -17793000.135 8 -13860409.548 9
  24042133.148   -12072450.359 6  -9373428.262 6
  21485737.144    -5276714.684 7  -8475924.402 9
  22192927.886   -24441400.608 7 -11892570.815 9
 94  5 10 18 38 30.0030000  0  6 19 15  2 26 27  7
  23460206.217    10554683.440 6   8241770.372 5
  25160872.920    -5720615.788 4  -4463517.599 2
  21955745.194   -17787220.637 8 -13855906.045 9
  24033184.403   -12119475.306 6  -9410071.073 6
  21493378.434    -5236574.801 8  -8444646.571 9
  22181861.767   -24499550.701 7 -11937882.565 9
 94  5 10 18 39  0.0030000  0  6 19 15  2 26 27  7
  23475667.234    10635912.133 6   8305065.444 5
  25155065.940    -5751153.984 5  -4487313.541 2
  21956881.557   -17781255.918 8 -13851258.213 9
  24024317.771   -12166061.429 6  -9446371.938 6
  21501100.008    -5195992.149 8  -8413023.740 9
  22170874.913   -24557294.731 7 -11982877.874 9
 94  5 10 18 39 30.0030000  0  6 19 15  2 26 27  7
  23491177.087    10717409.246 6   8368569.633 6
  25149335.018    -5781276.904 5  -4510785.936 2
  21958050.838   -17775112.937 8 -13846471.483 9
  24015532.593   -12212214.143 6  -9482335.076 6
  21508904.865    -5154977.803 8  -8381064.518 9
  22159959.499   -24614644.506 7 -12027565.991 9
 94  5 10 18 40  0.0030000  0  6 19 15  2 26 27  7
  23506734.426    10799168.634 6   8432278.189 6
  25143676.345    -5810982.537 5  -4533933.172 2
  21959252.766   -17768789.639 8 -13841544.260 9
  24006837.083   -12257928.350 6  -9517956.536 6
  21516791.026    -5113541.374 8  -8348776.410 9
  22149124.190   -24671595.999 7 -12071943.764 9
 94  5 10 18 40 30.0030000  0  6 19 15  2 26 27  7
  23522341.622    10881188.732 6   8496189.913 6
  25138113.546    -5840270.232 5  -4556754.678 2
  21960491.658   -17762278.928 8 -13836470.980 9
  23998222.666   -12303188.849 6  -9553224.440 6
  21524753.903    -5071697.844 8  -8316171.082 9
  22138361.701   -24728135.669 7 -12116000.620 9
 94  5 10 18 41  0.0030000  0  6 19 15  2 26 27  7
  23538001.850    10963476.174 6   8560309.933 5
  25132604.170    -5869135.486 5  -4579247.056 2
  21961768.954   -17755555.275 8 -13831231.784 9
  23989701.935   -12347978.318 6  -9588125.305 6
  21532790.349    -5029453.963 8  -8283253.799 9
  22127682.614   -24784258.725 7 -12159732.863 9
 94  5 10 18 41 30.0030000  0  6 19 15  2 26 27  7
  23553709.896    11046029.784 6   8624637.366 5
  25127196.094    -5897580.067 5  -4601411.655 2
  21963092.897   -17748615.760 8 -13825824.374 9
  23981267.964   -12392292.021 6  -9622655.448 6
  21540907.170    -4986810.513 8  -8250025.144 9
  22117084.561   -24839954.166 7 -12203131.883 9
 94  5 10 18 42  0.0030000  0  6 19 15  2 26 27  7
  23569471.245    11128858.582 6   8689179.227 5
  25121869.472    -5925599.899 4  -4623245.242 2
  21964457.492   -17741458.959 8 -13820247.647 9
  23972927.797   -12436116.112 6  -9656804.077 6
  21549096.721    -4943766.351 8  -8216484.264 9
  22106571.499   -24895199.661 7 -12246180.298 9
 94  5 10 18 42 30.0030000  0  6 19 15  2 26 27  7
  23585284.008    11211963.889 6   8753936.567 5
  25116614.739    -5953196.212 4  -4644748.824 2
  21965858.363   -17734084.187 8 -13814501.071 9
  23964682.486   -12479451.052 6  -9690571.555 6
  21557365.626    -4900317.308 8  -8182627.888 9
  22096145.167   -24949984.602 7 -12288869.840 9
 94  5 10 18 43  0.0030000  0  6 19 15  2 26 27  7
  23601155.560    11295349.205 6   8818912.072 5
  25111452.763    -5980364.052 5  -4665918.529 2
  21967300.514   -17726504.422 8 -13808594.768 9
  23956529.000   -12522311.354 6  -9723969.186 6
  21565714.367    -4856439.337 8  -8148437.279 9
  22085809.342   -25004306.725 7 -12331198.741 9
 94  5 10 18 43 30.0030000  0  6 19 15  2 26 27  7
  23617074.210    11378999.213 6   8884093.853 5
  25106356.111    -6007099.208 4  -4686751.112 2
  21968777.322   -17718738.032 8 -13802543.036 9
  23948454.480   -12564724.472 6  -9757018.352 6
  21574152.415    -4812105.613 8  -8113891.545 9
  22075559.498   -25058170.188 7 -12373170.245 9
 94  5 10 18 44  0.0030000  0  6 19 15  2 26 27  7
  23633042.415    11462907.984 6   8949477.251 5
  25101348.738    -6033395.640 4  -4707241.772 2
  21970291.993   -17710776.720 8 -13796339.421 9
  23940464.561   -12606700.746 6  -9789727.115 6
  21582675.575    -4767313.361 8  -8078988.516 9
  22065394.975   -25111583.168 7 -12414790.716 9
 94  5 10 18 44 30.0030000  0  6 19 15  2 26 27  7
  23649056.129    11547074.531 6   9015061.541 5
  25096438.257    -6059254.009 4  -4727391.107 3
  21971847.137   -17702618.995 8 -13789982.760 9
  23932558.584   -12648247.730 6  -9822101.396 6
  21591285.704    -4722068.110 8  -8043732.505 9
  22055311.605   -25164567.584 7 -12456077.256 9
 94  5 10 18 45  0.0030000  0  6 19 15  2 26 27  7
  23665123.446    11631504.809 6   9080851.320 5
  25091603.594    -6084669.899 4  -4747195.710 3
  21973434.958   -17694265.739 8 -13783473.731 9
  23924736.070   -12689361.244 6  -9854137.880 6
  21599978.456    -4676378.659 8  -8008130.354 9
  22045308.101   -25217139.926 7 -12497042.707 9
 94  5 10 18 45 30.0030000  0  6 19 15  2 26 27  7
  23681240.918    11716202.730 6   9146849.643 5
  25086847.477    -6109642.545 4  -4766654.834 2
  21975064.929   -17685704.730 8 -13776802.822 9
  23917001.754   -12730020.511 6  -9885820.436 6
  21608752.512    -4630273.897 8  -7972204.594 9
  22035383.591   -25269298.146 7 -12537685.454 9
 94  5 10 18 46  0.0030000  0  6 19 15  2 26 27  7
  23697411.873    11801172.541 6   9213059.865 5
  25082178.689    -6134175.372 5  -4785771.302 3
  21976732.675   -17676935.007 8 -13769969.271 9
  23909355.218   -12770196.033 6  -9917126.004 6
  21617600.287    -4583778.590 8  -7935974.505 9
  22025534.090   -25321037.853 7 -12578002.084 9
 94  5 10 18 46 30.0030000  0  6 19 15  2 26 27  7
  23713632.594    11886418.263 6   9279485.042 5
  25077591.265    -6158265.230 5  -4804542.578 3
  21978442.481   -17667952.478 8 -13762969.909 9
  23901800.388   -12809882.842 6  -9948050.786 6
  21626523.969    -4536888.294 8  -7899436.634 9
  22015771.139   -25372350.495 7 -12617985.942 9
 94  5 10 18 47  0.0030000  0  6 19 15  2 26 27  7
  23729902.870    11971931.527 6   9346118.719 5
  25073087.483    -6181909.042 5  -4822966.292 3
  21980194.708   -17658758.992 8 -13755806.161 9
  23894343.110   -12849079.081 6  -9978593.324 6
  21635524.548    -4489586.651 8  -7862578.239 9
  22006092.939   -25423218.744 7 -12657623.510 9
 94  5 10 18 47 30.0030000  0  6 19 15  2 26 27  7
  23746225.400    12057693.618 6   9412946.281 5
  25068678.705    -6205106.440 5  -4841042.158 3
  21981978.803   -17649369.550 8 -13748489.708 9
  23886977.270   -12887794.977 6 -10008761.556 6
  21644605.022    -4441863.935 8  -7825391.723 9
  21996501.259   -25473624.922 7 -12696901.037 9
 94  5 10 18 48  0.0030000  0  6 19 15  2 26 27  7
  23762592.899    12143705.456 6   9479968.430 5
  25064346.194    -6227850.061 5  -4858764.447 3
  21983800.072   -17639786.845 8 -13741022.670 9
  23879693.872   -12926049.499 6 -10038570.250 6
  21653770.696    -4393698.197 8  -7787860.003 9
  21986997.928   -25523561.424 7 -12735812.579 9
 94  5 10 18 48 30.0030000  0  6 19 15  2 26 27  7
  23779006.117    12229972.968 6   9547189.827 5
  25060112.675    -6250136.744 5  -4876130.625 3
  21985660.194   -17630017.322 8 -13733410.044 9
  23872499.752   -12963862.028 6 -10068034.562 6
  21663020.193    -4345092.351 7  -7749985.323 9
  21977586.513   -25573027.113 7 -12774357.247 9
 94  5 10 18 49  0.0030000  0  6 19 15  2 26 27  7
  23795473.297    12316494.819 6   9614609.400 5
  25055959.140    -6271966.507 5  -4893140.822 3
  21987550.386   -17620081.240 8 -13725667.652 9
  23865389.994   -13001223.249 6 -10097147.196 6
  21672354.711    -4296047.315 7  -7711768.442 9
  21968264.077   -25622025.468 7 -12812537.760 9
 94  5 10 18 49 30.0030000  0  6 19 15  2 26 27  7
  23811987.184    12403277.135 6   9682231.942 5
  25051884.002    -6293334.453 5  -4909791.151 3
  21989472.115   -17609977.640 8 -13717794.717 9
  23858370.474   -13038127.761 6 -10125903.974 6
  21681768.704    -4246570.606 7  -7673215.186 9
  21959024.624   -25670565.957 7 -12850361.504 9
 94  5 10 18 50  0.0030000  0  6 19 15  2 26 27  7
  23828554.285    12490329.019 6   9750064.510 5
  25047904.167    -6314235.303 5  -4926077.508 3
  21991430.929   -17599689.654 8 -13709778.114 9
  23851437.923   -13074549.584 6 -10154284.601 6
  21691265.439    -4196663.402 7  -7634326.483 9
  21949871.870   -25718663.637 8 -12887840.198 9
 94  5 10 18 50 30.0030000  0  6 19 15  2 26 27  7
  23845167.194    12577643.082 6   9818101.402 5
  25044028.150    -6334668.400 5  -4941999.375 3
  21993425.808   -17589216.281 8 -13701617.050 9
  23844605.803   -13110458.592 6 -10182265.634 6
  21700844.348    -4146326.124 7  -7595102.652 9
  21940802.189   -25766328.674 8 -12924981.764 9
 94  5 10 18 51  0.0030000  0  6 19 15  2 26 27  7
  23861832.147    12665206.182 6   9886332.321 5
  25040232.957    -6354635.497 5  -4957558.115 3
  21995457.262   -17578547.098 8 -13693303.396 9
  23837872.464   -13145847.417 6 -10209841.340 6
  21710505.969    -4095556.757 7  -7555542.110 9
  21931814.261   -25813557.126 8 -12961783.141 9
 94  5 10 18 51 30.0030000  0  6 19 15  2 26 27  7
  23878536.523    12753019.294 6   9954758.076 5
  25036507.287    -6374134.647 5  -4972752.270 3
  21997525.200   -17567658.102 8 -13684818.472 9
  23831235.539   -13180719.183 6 -10237014.150 6
  21720248.505    -4044364.351 7  -7515651.963 9
  21922911.984   -25860340.109 7 -12998237.396 9
 94  5 10 18 52  0.0030000  0  6 19 15  2 26 27  7
  23895298.969    12841089.843 6  10023384.429 5
  25032892.449    -6393161.018 5  -4987577.966 3
  21999641.285   -17556540.638 8 -13676155.515 9
  23824697.695   -13215068.129 7 -10263779.552 6
  21730071.325    -3992744.683 7  -7475428.846 9
  21914100.334   -25906658.915 7 -13034329.950 9
 94  5 10 18 52 30.0030000  0  6 19 15  2 26 27  7
  23912110.670    12929427.258 6  10092218.700 4
  25029358.256    -6411710.044 5  -5002031.721 3
  22001799.641   -17545201.626 8 -13667319.925 9
  23818263.040   -13248911.943 7 -10290151.350 6
  21739975.688    -3940696.394 7  -7434871.765 9
  21905373.945   -25952498.968 7 -13070049.455 9
 94  5 10 18 53  0.0030000  0  6 19 15  2 26 27  7
  23928973.306    13018036.401 6  10161264.733 4
  25025924.493    -6429782.702 5  -5016114.297 3
  22003997.240   -17533650.760 8 -13658319.241 9
  23811913.046   -13282268.110 6 -10316143.165 6
  21749964.413    -3888217.932 7  -7393979.471 9
  21896739.233   -25997867.213 7 -13105401.305 9
 94  5 10 18 53 30.0030000  0  6 19 15  2 26 27  7
  23945889.606    13106923.490 6  10230527.328 4
  25022572.813    -6447377.069 5  -5029824.192 3
  22006233.092   -17521906.894 8 -13649168.186 9
  23805657.936   -13315130.416 6 -10341750.148 6
  21760028.865    -3835311.529 7  -7352753.711 9
  21888195.538   -26042778.032 7 -13140396.731 9
 94  5 10 18 54  0.0030000  0  6 19 15  2 26 27  7
  23962855.280    13196079.345 6  10299999.363 4
  25019323.303    -6464490.469 5  -5043159.271 3
  22008499.283   -17509998.253 8 -13639888.726 9
  23799496.362   -13347497.302 6 -10366971.100 6
  21770178.579    -3781968.015 8  -7311187.362 9
  21879731.167   -26087242.734 7 -13175044.534 9
 94  5 10 18 54 30.0030000  0  6 19 15  2 26 27  7
  23979865.954    13285489.658 6  10369669.673 4
  25016156.115    -6481125.328 5  -5056121.512 3
  22010795.214   -17497934.356 8 -13630488.289 9
  23793432.999   -13379367.320 6 -10391804.875 6
  21780411.815    -3728192.962 8  -7269284.734 9
  21871355.146   -26131277.639 7 -13209357.428 9
 94  5 10 18 55  0.0030000  0  6 19 15  2 26 27  7
  23996929.631    13375150.952 6  10439535.577 4
  25013080.904    -6497279.491 5  -5068709.185 3
  22013121.033   -17485709.959 8 -13620962.789 9
  23787463.861   -13410723.673 7 -10416238.389 6
  21790728.842    -3673994.889 8  -7227052.497 9
  21863059.049   -26174864.669 7 -13243321.330 9
 94  5 10 18 55 30.0030000  0  6 19 15  2 26 27  7
  24014038.727    13465054.111 6  10509589.907 4
  25010089.036    -6512955.399 5  -5080924.185 3
  22015480.220   -17473311.205 8 -13611301.413 9
  23781596.413   -13441570.547 7 -10440274.922 6
  21801118.240    -3619391.659 8  -7184504.543 9
  21854854.779   -26217989.975 7 -13276925.453 9
 94  5 10 18 56  0.0030000  0  6 19 15  2 26 27  7
  24031189.973    13555195.730 6  10579830.097 4
  25007204.493    -6528149.702 5  -5092763.864 3
  22017877.900   -17460719.513 8 -13601489.714 9
  23775821.002   -13471909.759 7 -10463915.834 6
  21811588.282    -3564371.782 7  -7141631.927 9
  21846738.827   -26260636.845 7 -13310156.755 9
 94  5 10 18 56 30.0030000  0  6 19 15  2 26 27  7
  24048392.095    13645597.121 6  10650272.674 4
  25004406.020    -6542854.790 5  -5104222.357 3
  22020313.774   -17447909.812 8 -13591508.127 9
  23770148.778   -13501737.951 7 -10487158.594 6
  21822136.989    -3508934.245 7  -7098433.880 9
  21838718.840   -26302777.214 7 -13342993.392 9
 94  5 10 18 57  0.0030000  0  6 19 15  2 26 27  7
  24065646.320    13736265.444 6  10720923.254 4
  25001703.661    -6557069.227 5  -5115298.565 3
  22022793.657   -17434880.378 8 -13581355.323 9
  23764565.893   -13531064.732 7 -10510010.631 6
  21832765.741    -3453074.585 7  -7054906.883 9
  21830799.252   -26344396.948 7 -13375424.325 9
 94  5 10 18 57 30.0030000  0  6 19 15  2 26 27  7
  24082950.730    13827197.685 6  10791779.464 4
  24999088.841    -6570789.965 5  -5125990.027 3
  22025316.950   -17421633.238 8 -13571032.885 9
  23759080.171   -13559898.955 7 -10532478.836 6
  21843480.383    -3396770.822 7  -7011033.867 9
  21822975.838   -26385505.664 7 -13407457.093 9
 94  5 10 18 58  0.0030000  0  6 19 15  2 26 27  7
  24100306.075    13918391.594 6  10862839.607 4
  24996571.064    -6584011.984 5  -5136292.930 3
  22027873.730   -17408187.070 8 -13560555.361 9
  23753682.798   -13588242.170 6 -10554564.466 6
  21854279.777    -3340007.108 7  -6966802.428 9
  21815250.666   -26426097.938 7 -13439087.422 9
 94  5 10 18 58 30.0030000  0  6 19 15  2 26 27  7
  24117708.038    14009847.677 6  10934104.002 4
  24994160.793    -6596738.514 5  -5146209.681 3
  22030468.374   -17394553.958 8 -13549932.154 9
  23748382.677   -13616113.586 6 -10576282.450 6
  21865167.490    -3282799.325 7  -6922224.947 9
  21807624.426   -26466177.420 7 -13470318.161 9
 94  5 10 18 59  0.0030000  0  6 19 15  2 26 27  7
  24135157.848    14101541.724 6  11005553.865 4
  24991827.358    -6608978.693 5  -5155747.481 3
  22033096.655   -17380747.714 8 -13539174.051 9
  23743167.367   -13643516.374 6 -10597635.265 6
  21876137.975    -3225160.487 7  -6877311.603 9
  21800089.322   -26505777.379 7 -13501175.266 9
 94  5 10 18 59 30.0030000  0  6 19 15  2 26 27  7
  24152647.950    14193470.692 6  11077186.770 4
  24989587.159    -6620725.241 5  -5164900.609 3
  22035756.473   -17366763.910 8 -13528277.575 9
  23738044.933   -13670426.482 6 -10618604.184 6
  21887189.134    -3167093.149 7  -6832064.344 9
  21792642.328   -26544910.946 7 -13531668.928 9
 94  5 10 19  0  0.0030000  0  6 19 15  2 26 27  7
  24170191.055    14285634.442 6  11149002.593 4
  24987442.264    -6631973.842 5  -5173665.747 3
  22038450.648   -17352598.771 8 -13517239.815 9
  23733023.140   -13696834.594 7 -10639181.931 6
  21898313.023    -3108616.383 7  -6786498.059 9
  21785283.022   -26583590.118 7 -13561808.536 9
 94  5 10 19  0 30.0030000  0  6 19 15  2 26 27  7
  24187770.135    14378031.593 6  11221000.294 4
  24985401.067    -6642726.727 5  -5182044.644 3
  22041184.456   -17338243.343 8 -13506053.771 9
  23728095.092   -13722719.414 7 -10659351.920 6
  21909514.918    -3049749.925 7  -6740628.118 9
  21778004.841   -26621832.383 7 -13591607.677 9
 94  5 10 19  1  0.0030000  0  6 19 15  2 26 27  7
  24205396.852    14470659.177 5  11293177.568 4
  24983454.215    -6652981.226 5  -5190035.132 3
  22043948.902   -17323707.806 8 -13494727.379 9
  23723275.988   -13748053.862 7 -10679093.049 6
  21920795.449    -2990485.158 7  -6694447.799 9
  21770810.631   -26659643.630 8 -13621070.969 9
 94  5 10 19  1 30.0030000  0  6 19 15  2 26 27  7
  24223069.408    14563525.036 5  11365540.500 4
  24981599.399    -6662731.866 5  -5197633.006 3
  22046748.304   -17308999.288 8 -13483266.209 9
  23718557.314   -13772847.811 7 -10698413.012 6
  21932146.221    -2930819.260 7  -6647954.913 9
  21763699.225   -26697002.922 8 -13650182.095 9
 94  5 10 19  2  0.0030000  0  6 19 15  2 26 27  7
  24240784.324    14656639.583 5  11438097.235 4
  24979827.385    -6671972.241 5  -5204833.291 3
  22049578.944   -17294119.710 8 -13471671.740 9
  23713939.881   -13797108.344 7 -10717317.320 6
  21943579.496    -2870749.214 7  -6601147.124 9
  21756680.603   -26733893.370 8 -13678927.880 9
 94  5 10 19  2 30.0030000  0  6 19 15  2 26 27  7
  24258556.291    14750007.016 5  11510850.981 4
  24978182.154    -6680702.266 5  -5211635.883 3
  22052443.071   -17279076.438 8 -13459949.719 9
  23709428.364   -13820831.448 7 -10735802.878 6
  21955088.019    -2810263.530 7  -6554015.446 9
  21749751.290   -26770305.036 8 -13707300.594 9
 94  5 10 19  3  0.0030000  0  6 19 15  2 26 27  7
  24276368.999    14843629.946 5  11583803.835 4
  24976609.653    -6688922.224 5  -5218041.045 3
  22055334.000   -17263882.041 8 -13448109.931 9
  23705010.023   -13844045.648 7 -10753891.874 6
  21966680.124    -2749350.831 7  -6506551.024 9
  21742912.005   -26806233.478 8 -13735296.764 9
 94  5 10 19  3 30.0030000  0  6 19 15  2 26 27  7
  24294232.343    14937498.698 5  11656948.258 4
  24975140.880    -6696632.071 5  -5224048.727 3
  22058257.936   -17248523.793 8 -13436142.489 9
  23700686.416   -13866761.135 7 -10771592.259 6
  21978354.882    -2688011.313 7  -6458754.037 9
  21736169.163   -26841676.596 8 -13762914.773 9
 94  5 10 19  4  0.0040000  0  6 19 15  2 26 27  7
  24312138.107    15031609.625 5  11730281.348 4
  24973772.147    -6703832.388 5  -5229659.324 3
  22061212.960   -17232992.900 8 -13424040.503 9
  23696461.561   -13888961.619 7 -10788891.345 6
  21990111.093    -2626233.360 7  -6410615.410 9
  21729515.659   -26876645.916 8 -13790163.565 9
 94  5 10 19  4 30.0040000  0  6 19 15  2 26 27  7
  24330096.005    15125958.800 5  11803800.105 4
  24972499.708    -6710521.711 5  -5234871.787 3
  22064200.902   -17217276.348 8 -13411793.838 9
  23692332.549   -13910648.547 7 -10805790.261 6
  22001951.636    -2564003.012 7  -6362124.254 9
  21722950.804   -26911127.435 8 -13817032.276 9
 94  5 10 19  5  0.0040000  0  6 19 15  2 26 27  7
  24348094.105    15220547.559 5  11877505.561 4
  24971320.744    -6716700.879 5  -5239686.736 3
  22067228.715   -17201367.894 8 -13399397.653 9
  23688304.178   -13931820.381 7 -10822287.787 6
  22013876.750    -2501323.035 7  -6313282.753 9
  21716485.270   -26945112.842 8 -13843514.395 9
 94  5 10 19  5 30.0040000  0  6 19 15  2 26 27  7
  24366136.305    15315364.963 5  11951389.164 4
  24970242.091    -6722368.224 5  -5244102.815 3
  22070296.372   -17185254.182 8 -13386841.518 9
  23684376.208   -13952458.069 7 -10838369.107 6
  22025889.404    -2438208.365 7  -6264102.508 9
  21710114.141   -26978603.540 8 -13869611.019 9
 94  5 10 19  6  0.0040000  0  6 19 15  2 26 27  7
  24384231.088    15410433.038 5  12025468.111 4
  24969264.408    -6727517.608 5  -5248115.289 3
  22073401.472   -17168931.181 8 -13374122.306 9
  23680551.096   -13972567.664 7 -10854038.927 6
  22037980.304    -2374660.372 7  -6214584.611 9
  21703837.746   -27011584.288 8 -13895310.298 9
 94  5 10 19  6 30.0040000  0  6 19 15  2 26 27  7
  24402371.230    15505759.008 6  12099747.992 4
  24968378.821    -6732151.193 5  -5251725.901 3
  22076548.364   -17152402.797 8 -13361243.057 9
  23676817.600   -13992167.111 7 -10869311.231 6
  22050157.064    -2310686.523 7  -6164734.912 9
  21697657.614   -27044053.003 8 -13920610.583 9
 94  5 10 19  7  0.0040000  0  6 19 15  2 26 27  7
  24420554.902    15601335.147 6  12174222.839 4
  24967599.181    -6736265.702 5  -5254932.028 3
  22079729.731   -17135678.802 8 -13348211.374 9
  23673190.082   -14011254.748 7 -10884184.711 6
  22062407.993    -2246299.357 7  -6114563.116 9
  21691575.335   -27076023.624 8 -13945522.746 9
 94  5 10 19  7 30.0040000  0  6 19 15  2 26 27  7
  24438793.675    15697151.801 6  12248885.105 4
  24966916.313    -6739865.435 5  -5257737.012 3
  22082945.695   -17118766.481 8 -13335032.945 9
  23669651.511   -14029854.117 7 -10898677.737 6
  22074736.568    -2181509.466 7  -6064077.514 9
  21685581.105   -27107514.774 8 -13970061.296 9
 94  5 10 19  8  0.0040000  0  6 19 15  2 26 27  7
  24457076.099    15793215.130 6  12323739.528 4
  24966327.281    -6742948.355 5  -5260139.270 3
  22086198.293   -17101681.352 8 -13321719.863 9
  23666201.440   -14047968.781 7 -10912793.050 6
  22087148.695    -2116302.142 7  -6013266.633 9
  21679678.641   -27138532.694 8 -13994231.073 9
 94  5 10 19  8 30.0040000  0  6 19 15  2 26 27  7
  24475395.336    15889508.919 6  12398773.552 4
  24965847.493    -6745505.458 5  -5262131.839 3
  22089485.727   -17084423.185 8 -13308271.944 9
  23662854.557   -14065573.351 7 -10926510.906 6
  22099634.901    -2050675.758 7  -5962129.228 8
  21673862.277   -27169094.777 8 -14018045.681 9
 94  5 10 19  9  0.0040000  0  6 19 15  2 26 27  7
  24493759.033    15986015.829 5  12473973.657 4
  24965453.086    -6747529.255 5  -5263708.800 3
  22092800.323   -17066991.970 8 -13294689.179 9
  23659603.277   -14082644.149 7 -10939812.817 6
  22112202.591    -1984638.845 7  -5910671.928 8
  21668133.753   -27199198.496 8 -14041503.108 9
 94  5 10 19  9 30.0040000  0  6 19 15  2 26 27  7
  24512165.121    16082728.496 5  12549334.094 4
  24965171.461    -6749022.218 5  -5264872.121 3
  22096150.174   -17049391.446 8 -13280974.492 9
  23656460.493   -14099164.978 7 -10952686.186 6
  22124844.239    -1918193.413 7  -5858896.286 8
  21662494.357   -27228838.876 8 -14064599.499 9
 94  5 10 19 10  0.0040000  0  6 19 15  2 26 27  7
  24530608.683    16179639.481 5  12624849.071 4
  24964996.952    -6749983.950 5  -5265621.551 3
  22099529.764   -17031629.423 8 -13267133.960 9
  23653424.585   -14115124.100 7 -10965121.866 6
  22137567.071    -1851335.418 7  -5806799.188 8
  21656944.120   -27258005.485 8 -14087326.717 9
 94  5 10 19 10 30.0040000  0  6 19 15  2 26 27  7
  24549088.460    16276749.915 5  12700519.451 4
  24964911.841    -6750411.282 5  -5265954.554 3
  22102945.090   -17013693.591 8 -13253157.992 9
  23650492.585   -14130514.190 7 -10977114.143 6
  22150369.648    -1784063.174 7  -5754379.295 8
  21651489.516   -27286667.931 8 -14109661.077 9
 94  5 10 19 11  0.0040000  0  6 19 15  2 26 27  7
  24567603.372    16374076.896 5  12776358.557 4
  24964928.839    -6750306.337 5  -5265872.710 3
  22106389.765   -16995583.380 8 -13239046.148 9
  23647670.368   -14145346.413 7 -10988671.710 6
  22163251.310    -1716372.691 7  -5701633.498 8
  21646136.691   -27314800.455 8 -14131582.517 9
 94  5 10 19 11 30.0040000  0  6 19 15  2 26 27  7
  24586174.106    16471647.602 5  12852387.577 4
  24965051.844    -6749669.329 5  -5265376.347 3
  22109867.627   -16977300.303 8 -13224799.599 9
  23644950.591   -14159646.646 7 -10999814.756 6
  22176214.726    -1648248.249 7  -5648549.529 8
  21640883.218   -27342404.460 8 -14153092.109 9
 94  5 10 19 12  0.0040000  0  6 19 15  2 26 27  7
  24604791.038    16569471.733 5  12928614.097 4
  24965270.813    -6748499.761 5  -5264465.001 3
  22113381.135   -16958842.861 8 -13210417.181 9
  23642323.750   -14173443.296 7 -11010565.399 6
  22189261.574    -1579686.501 7  -5595124.819 8
  21635729.096   -27369477.194 7 -14174187.746 9
 94  5 10 19 12 30.0040000  0  6 19 15  2 26 27  7
  24623455.007    16667545.394 5  13005035.024 4
  24965595.068    -6746799.672 5  -5263140.294 3
  22116930.078   -16940207.115 8 -13195895.828 9
  23639791.493   -14186746.124 7 -11020931.253 6
  22202387.867    -1510701.510 7  -5541370.316 8
  21630679.842   -27396028.839 8 -14194877.325 9
 94  5 10 19 13  0.0040000  0  6 19 15  2 26 27  7
  24642165.624    16765865.318 5  13081647.885 4
  24966020.803    -6744568.901 5  -5261401.995 3
  22120506.872   -16921401.084 8 -13181241.775 9
  23637355.499   -14199566.229 7 -11030920.923 6
  22215596.003    -1441297.690 7  -5487289.440 8
  21625720.225   -27422083.729 8 -14215179.814 9
 94  5 10 19 13 30.0040000  0  6 19 15  2 26 27  7
  24660919.381    16864411.663 5  13158437.157 3
  24966548.408    -6741800.240 5  -5259244.596 3
  22124120.840   -16902418.315 8 -13166450.023 9
  23635009.413   -14211889.239 7 -11040523.288 6
  22228882.145    -1371476.584 7  -5432883.416 8
  21620854.954   -27447649.286 8 -14235101.018 9
 94  5 10 19 14  0.0040000  0  6 19 15  2 26 27  7
  24679700.779    16963154.788 5  13235379.776 3
  24967172.966    -6738496.427 5  -5256670.227 3
  22127767.096   -16883251.141 8 -13151514.563 9
  23632760.251   -14223690.123 7 -11049718.791 6
  22242242.906    -1301264.139 7  -5378172.447 8
  21616084.356   -27472724.258 7 -14254639.955 9
 94  5 10 19 14 30.0040000  0  6 19 15  2 26 27  7
  24698533.831    17062087.905 5  13312470.375 3
  24967900.082    -6734656.401 5  -5253677.991 3
  22131445.969   -16863903.528 8 -13136438.500 9
  23630625.338   -14234940.178 7 -11058485.061 6
  22255678.914    -1230664.353 7  -5323159.651 8
  21611405.255   -27497310.949 8 -14273798.392 9
 94  5 10 19 15  0.0040000  0  6 19 15  2 26 27  7
  24717399.950    17161217.107 5  13389713.819 3
  24968736.204    -6730279.070 5  -5250267.095 3
  22135163.905   -16844381.017 8 -13121226.153 9
  23628586.810   -14245622.972 7 -11066809.331 6
  22269188.522    -1159662.724 7  -5267833.731 8
  21606821.189   -27521399.852 7 -14292568.946 9
 94  5 10 19 15 30.0040000  0  6 19 15  2 26 27  7
  24736293.051    17260541.128 5  13467109.059 3
  24969679.291    -6725365.194 5  -5246438.097 3
  22138911.610   -16824681.676 8 -13105876.022 9
  23626661.692   -14255733.694 7 -11074687.827 6
  22282776.345    -1088259.418 7  -5212194.831 8
  21602333.656   -27544986.786 7 -14310948.374 9
 94  5 10 19 16  0.0040000  0  6 19 15  2 26 27  7
  24755233.279    17360073.355 5  13544666.508 3
  24970705.930    -6719914.269 5  -5242190.622 3
  22142693.252   -16804810.328 8 -13090391.858 9
  23624849.507   -14265285.038 7 -11082130.428 6
  22296447.331    -1016429.993 7  -5156223.892 8
  21597943.495   -27568070.964 7 -14328936.033 9
 94  5 10 19 16 30.0040000  0  6 19 15  2 26 27  7
  24774213.499    17459819.718 5  13622390.859 3
  24971853.086    -6713929.428 5  -5237527.116 3
  22146505.773   -16784779.581 8 -13074783.480 9
  23623133.795   -14274290.671 7 -11089147.817 6
  22310198.331     -944159.859 7  -5099909.528 8
  21593642.283   -27590657.582 7 -14346535.982 9
 94  5 10 19 17  0.0040000  0  6 19 15  2 26 27  7
  24793240.757    17559785.959 5  13700286.538 3
  24973093.597    -6707407.061 5  -5232444.771 3
  22150346.864   -16764577.567 8 -13059041.657 9
  23621524.389   -14282760.044 7 -11095747.331 6
  22324033.843     -871448.557 7  -5043251.395 8
  21589436.554   -27612758.097 7 -14363757.148 9
 94  5 10 19 17 30.0040000  0  6 19 15  2 26 27  7
  24812310.465    17659972.087 5  13778353.549 3
  24974436.367    -6700343.271 5  -5226940.519 3
  22154228.787   -16744202.041 8 -13043164.626 9
  23620011.516   -14290706.436 7 -11101939.326 6
  22337953.656     -798307.425 7  -4986258.348 8
  21585320.494   -27634382.924 7 -14380607.651 9
 94  5 10 19 18  0.0040000  0  6 19 15  2 26 27  7
  24831408.564    17760376.100 5  13856590.342 3
  24975881.127    -6692739.486 5  -5221015.503 3
  22158136.971   -16723654.045 8 -13027153.205 9
  23618596.976   -14298122.861 7 -11107718.381 6
  22351950.037     -724749.071 7  -4928940.171 8
  21581297.279   -27655531.464 7 -14397087.023 9
 94  5 10 19 18 30.0040000  0  6 19 15  2 26 27  7
  24850557.987    17861004.696 5  13935002.117 3
  24977428.806    -6684596.640 5  -5214670.472 3
  22162077.023   -16702941.480 8 -13011013.541 9
  23617288.501   -14305009.191 7 -11113084.357 6
  22366021.785     -650802.451 7  -4871319.464 8
  21577365.081   -27676199.010 7 -14413191.594 9
 94  5 10 19 19  0.0040000  0  6 19 15  2 26 27  7
  24869752.529    17961856.150 5  14013587.553 3
  24979082.671    -6675911.592 5  -5207902.879 3
  22166047.115   -16682070.397 8 -12994750.362 9
  23616080.428   -14311373.692 7 -11118043.713 6
  22380165.244     -576474.299 7  -4813401.458 8
  21573521.532   -27696382.563 7 -14428919.031 9
 94  5 10 19 19 30.0040000  0  6 19 15  2 26 27  7
  24888986.643    18062929.847 5  14092346.184 3
  24980844.581    -6666681.127 5  -5200710.309 3
  22170050.543   -16661042.455 8 -12978364.961 9
  23614967.298   -14317213.955 7 -11122594.581 6
  22394383.651     -501767.179 7  -4755188.166 8
  21569778.113   -27716057.999 8 -14444250.537 9
 94  5 10 19 20  0.0040000  0  6 19 15  2 26 27  7
  24908263.358    18164220.510 5  14171273.880 3
  24982692.562    -6656904.404 5  -5193092.094 3
  22174080.623   -16639847.136 8 -12961849.125 9
  23613956.908   -14322524.495 7 -11126732.665 6
  22408670.800     -426679.905 7  -4696678.622 8
  21566133.027   -27735211.933 7 -14459175.658 9
 94  5 10 19 20 30.0040000  0  6 19 15  2 26 27  7
  24927577.008    18265731.168 5  14250372.925 3
  24984671.252    -6646580.622 5  -5185047.597 3
  22178150.936   -16618486.544 8 -12945204.527 9
  23613045.629   -14327317.496 7 -11130467.491 6
  22423032.088     -351212.909 7  -4637873.215 8
  21562587.981   -27753847.635 7 -14473696.982 9
 94  5 10 19 21  0.0040000  0  6 19 15  2 26 27  7
  24946939.793    18367445.367 5  14329630.674 3
  24986737.991    -6635708.042 5  -5176575.427 3
  22182249.848   -16596939.525 8 -12928414.646 9
  23612231.722   -14331576.991 7 -11133786.576 6
  22437467.335     -275355.390 7  -4578763.494 8
  21559138.719   -27771971.953 7 -14487819.825 9
 94  5 10 19 21 30.0040000  0  6 19 15  2 26 27  7
  24966325.063    18469359.024 5  14409043.792 4
  24988909.268    -6624287.849 5  -5167676.564 3
  22186387.913   -16575197.407 8 -12911472.735 9
  23611527.150   -14335288.694 7 -11136678.807 6
  22451978.369     -199103.756 7  -4519346.662 8
  21555787.879   -27789585.905 7 -14501544.958 9
 94  5 10 19 22  0.0040000  0  6 19 15  2 26 27  7
  24985763.576    18571469.768 5  14488610.478 3
  24991188.860    -6612315.156 5  -5158347.201 3
  22190561.144   -16553259.521 8 -12894378.289 9
  23610923.218   -14338451.036 7 -11139142.988 6
  22466564.981     -122437.856 7  -4459607.040 8
  21552530.634   -27806699.510 8 -14514880.229 9
 94  5 10 19 22 30.0040000  0  6 19 15  2 26 27  7
  25005229.850    18673777.441 5  14568330.635 3
  24993570.711    -6599787.618 5  -5148585.491 3
  22194774.277   -16531132.455 8 -12877136.419 9
  23610429.280   -14341054.166 7 -11141171.384 6
  22481239.941      -45334.579 7  -4399526.604 7
  21549368.722   -27823323.275 8 -14527833.796 9
 94  5 10 19 23  0.0040000  0  6 19 15  2 26 27  7
  25024728.471    18776262.371 5  14648188.895 3
  24996057.190    -6586704.890 5  -5138391.114 3
  22199019.698   -16508815.001 8 -12859746.208 9
  23610041.528   -14343097.247 7 -11142763.417 6
  22495998.694       32222.936 7  -4339092.224 8
  21546298.068   -27839447.888 8 -14540398.433 9
 94  5 10 19 23 30.0040000  0  6 19 15  2 26 27  7
  25044260.999    18878931.284 5  14728190.543 3
  24998658.309    -6573067.402 5  -5127764.504 3
  22203294.319   -16486332.293 8 -12842227.219 9
  23609757.625   -14344591.793 7 -11143928.004 6
  22510841.539      110226.574 7  -4278310.203 7
  21543323.108   -27855078.009 8 -14552577.735 9
 94  5 10 19 24  0.0040000  0  6 19 15  2 26 27  7
  25063848.149    18981793.621 5  14808342.899 3
  25001355.782    -6558874.241 5  -5116704.919 3
  22207603.326   -16463701.215 8 -12824592.623 9
  23609574.692   -14345548.292 7 -11144673.319 6
  22525766.316      188666.303 7  -4217188.373 7
  21540444.620   -27870221.143 8 -14564377.561 9
 94  5 10 19 24 30.0040000  0  6 19 15  2 26 27  7
  25083455.145    19084847.994 5  14888644.905 3
  25004162.259    -6544127.978 5  -5105214.307 3
  22211934.218   -16440933.342 8 -12806851.429 9
  23609495.157   -14345964.669 7 -11144997.784 6
  22540772.818      267515.840 7  -4155747.218 7
  21537657.150   -27884870.737 8 -14575792.835 9
 94  5 10 19 25  0.0040000  0  6 19 15  2 26 27  7
  25103103.303    19188111.304 4  14969109.705 3
  25007078.310    -6528822.108 5  -5093287.628 3
  22216294.190   -16418033.004 8 -12789007.022 9
  23609521.328   -14345840.984 7 -11144901.413 6
  22555849.380      346745.748 7  -4094009.658 7
  21534963.275   -27899011.362 8 -14586811.486 9
 94  5 10 19 25 30.0040000  0  6 19 15  2 26 27  7
  25122795.830    19291599.650 4  15049749.867 3
  25010094.432    -6512959.171 5  -5080926.920 3
  22220674.577   -16395004.239 8 -12771062.534 9
  23609645.323   -14345184.810 7 -11144390.108 6
  22570995.195      426334.360 7  -4031992.607 7
  21532367.013   -27912659.652 7 -14597446.513 9
 94  5 10 19 26  0.0040000  0  6 19 15  2 26 27  7
  25142535.905    19395312.358 4  15130564.825 3
  25013217.880    -6496539.236 5  -5068132.151 3
  22225085.274   -16371826.456 8 -12753001.940 9
  23609867.319   -14344004.325 7 -11143470.275 6
  22586213.380      506295.801 7  -3969685.035 7
  21529867.883   -27925797.429 8 -14607683.745 9
 94  5 10 19 26 30.0040000  0  6 19 15  2 26 27  7
  25162307.337    19499228.308 4  15211538.181 3
  25016444.276    -6479568.443 5  -5054908.169 3
  22229529.397   -16348478.132 8 -12734808.450 9
  23610192.714   -14342296.635 7 -11142139.617 6
  22601497.579      586624.818 7  -3907091.035 7
  21527467.594   -27938415.106 7 -14617515.668 9
 94  5 10 19 27  0.0040000  0  6 19 15  2 26 27  7
  25182115.824    19603355.704 4  15292676.241 3
  25019781.116    -6462043.012 5  -5041251.959 3
  22234009.466   -16324934.787 8 -12716462.981 9
  23610618.359   -14340066.182 7 -11140401.586 6
  22616857.745      667338.750 7  -3844197.102 7
  21525163.270   -27950523.370 7 -14626950.687 9
 94  5 10 19 27 30.0040000  0  6 19 15  2 26 27  7
  25201969.340    19707671.356 5  15373961.062 3
  25023226.151    -6443962.825 5  -5027163.554 3
  22238530.126   -16301182.536 8 -12697954.753 9
  23611144.105   -14337306.844 7 -11138251.486 6
  22632293.909      748460.118 7  -3780985.690 7
  21522954.309   -27962120.576 7 -14635987.462 9
 94  5 10 19 28  0.0040000  0  6 19 15  2 26 27  7
  25221851.815    19812162.560 5  15455382.687 2
  25026775.604    -6425325.993 5  -5012641.367 3
  22243091.138   -16277214.898 8 -12679278.672 9
  23611774.898   -14334001.633 7 -11135676.000 6
  22647808.079      829993.226 7  -3717453.438 7
  21520846.648   -27973197.380 7 -14644618.730 9
 94  5 10 19 28 30.0040000  0  6 19 15  2 26 27  7
  25241770.656    19916818.174 5  15536932.354 2
  25030420.720    -6406127.803 6  -4997681.694 3
  22247690.285   -16253037.638 8 -12660439.250 9
  23612509.240   -14330132.726 7 -11132661.289 6
  22663399.625      911923.958 7  -3653611.349 7
  21518831.233   -27983772.764 7 -14652859.280 9
 94  5 10 19 29  0.0040000  0  6 19 15  2 26 27  7
  25261716.598    20021637.587 5  15618609.731 2
  25034188.152    -6386366.173 6  -4982283.037 3
  22252326.725   -16228671.334 8 -12641452.520 9
  23613355.674   -14325697.152 7 -11129205.006 6
  22679068.158      994263.645 7  -3589450.604 7
  21516914.630   -27993856.359 7 -14660716.615 9
 94  5 10 19 29 30.0040000  0  6 19 15  2 26 27  7
  25281693.328    20126614.394 5  15700409.702 2
  25038055.265    -6366044.527 6  -4966447.988 3
  22257000.369   -16204125.692 8 -12622326.048 9
  23614303.558   -14320695.018 7 -11125307.254 6
  22694813.647     1077002.347 7  -3524978.926 7
  21515091.172   -28003441.218 7 -14668185.330 9
 94  5 10 19 30  0.0040000  0  6 19 15  2 26 27  7
  25301704.684    20231766.844 5  15782346.556 2
  25042027.305    -6345161.111 5  -4950175.192 3
  22261702.164   -16179398.782 8 -12603058.330 9
  23615363.804   -14315136.310 7 -11120975.806 6
  22710630.128     1160126.882 7  -3460206.610 7
  21513360.980   -28012536.045 7 -14675272.198 9
 94  5 10 19 30 30.0040000  0  6 19 15  2 26 27  7
  25321747.849    20337102.841 5  15864426.425 2
  25046105.712    -6323716.217 5  -4933464.870 3
  22266441.943   -16154498.475 8 -12583655.506 9
  23616523.251   -14309030.779 7 -11116218.257 6
  22726523.745     1243639.725 7  -3395131.698 7
  21511723.454   -28021139.144 7 -14681975.905
 94  5 10 19 31  0.0040000  0  6 19 15  2 26 27  7
  25341829.057    20442632.308 5  15946657.063 2
  25050296.481    -6301717.338 5  -4916322.922 3
  22271211.041   -16129432.344 8 -12564123.456 9
  23617783.938   -14302403.870 7 -11111054.448 6
  22742487.214     1327530.622 7  -3329762.213 7
  21510183.390   -28029243.486 7 -14688290.961
 94  5 10 19 31 30.0040000  0  6 19 15  2 26 27  7
  25361950.647    20548371.550 5  16029051.108 2
  25054581.024    -6279160.022 5  -4898745.785 3
  22276016.924   -16104191.682 8 -12544455.418 9
  23619144.516   -14295252.592 7 -11105482.042 6
  22758524.012     1411794.850 7  -3264101.813 7
  21508734.343   -28036834.398 7 -14694205.956 1
 94  5 10 19 32  0.0040000  0  6 19 15  2 26 27  7
  25382109.831    20654311.025 5  16111601.229 2
  25058983.687    -6256044.018 5  -4880733.300 3
  22280849.009   -16078794.083 8 -12524665.091 9
  23620605.765   -14287572.886 7 -11099497.868 6
  22774629.192     1496438.545 7  -3198145.718 7
  21507389.654   -28043904.859 7 -14699715.392
 94  5 10 19 32 30.0040000  0  6 19 15  2 26 27  7
  25402301.573    20760440.240 5  16194299.163 2
  25063488.488    -6232374.226 5  -4862289.316 3
  22285706.966   -16053264.203 8 -12504771.668 9
  23622170.442   -14279362.728 7 -11093100.358 6
  22790809.771     1581471.856 7  -3131886.042 7
  21506144.346   -28050456.462 7 -14704820.526 1
 94  5 10 19 33  0.0040000  0  6 19 15  2 26 27  7
  25422532.827    20866744.719 5  16277133.696 2
  25068099.686    -6208153.553 5  -4843416.076 3
  22290590.046   -16027607.705 8 -12484779.612 9
  23623836.209   -14270621.681 7 -11086289.171 6
  22807063.858     1666892.898 7  -3065324.228 7
  21504992.424   -28056496.034 7 -14709526.691 1
 94  5 10 19 33 30.0040000  0  6 19 15  2 26 27  7
  25442799.996    20973213.734 5  16360096.441 2
  25072811.794    -6183380.215 5  -4824112.168 3
  22295495.310   -16001827.761 8 -12464691.347 9
  23625599.078   -14261333.048 7 -11079051.285 6
  22823398.800     1752715.397 7  -2998449.596 7
  21503940.062   -28062035.391 7 -14713843.064 1
 94  5 10 19 34  0.0040000  0  6 19 15  2 26 27  7
  25463085.693    21079837.476 5  16443179.711 2
  25077630.837    -6158054.228 5  -4804377.612 3
  22300424.347   -15975916.579 8 -12444500.812 9
  23627469.693   -14251506.397 7 -11071394.174 6
  22839804.792     1838940.309 7  -2931261.400 7
  21502974.191   -28067109.405 7 -14717796.834 1
 94  5 10 19 34 30.0040000  0  6 19 15  2 26 27  7
  25483412.910    21186628.100 5  16526393.099 2
  25082557.147    -6132173.899 5  -4784211.132 3
  22305385.403   -15949844.115 8 -12424184.612 9
  23629439.899   -14241139.383 7 -11063315.998 6
  22856285.853     1925548.562 7  -2863774.482 7
  21502094.300   -28071741.690 7 -14721406.387 1
 94  5 10 19 35  0.0040000  0  6 19 15  2 26 27  7
  25503754.818    21293580.038 4  16609732.116 2
  25087588.144    -6105737.867 5  -4763611.669 3
  22310380.755   -15923587.676 8 -12403725.056 9
  23631522.018   -14230230.688 7 -11054815.703 6
  22872839.073     2012529.190 7  -2795997.414 7
  21501296.432   -28075929.763 7 -14724669.807 1
 94  5 10 19 35 30.0040000  0  6 19 15  2 26 27  7
  25524146.551    21400704.937 4  16693205.888 2
  25092724.488    -6078745.194 6  -4742578.391 3
  22315416.339   -15897140.897 8 -12383117.179 9
  23633700.220   -14218790.807 7 -11045901.561 6
  22889459.957     2099878.573 7  -2727933.016 7
  21500584.725   -28079674.626 7 -14727587.888 1
 94  5 10 19 36  0.0040000  0  6 19 15  2 26 27  7
  25544569.912    21508007.475 4  16776818.142 2
  25097967.289    -6051194.462 6  -4721110.290 3
  22320486.609   -15870494.944 8 -12362354.112 9
  23635970.788   -14206824.698 7 -11036577.332 6
  22906150.992     2187593.095 7  -2659584.081 7
  21499962.566   -28082953.175 7 -14730142.609 1
 94  5 10 19 36 30.0040000  0  6 19 15  2 26 27  7
  25565013.210    21615486.896 4  16860568.188 2
  25103318.854    -6023084.605 6  -4699206.532 3
  22325590.096   -15843668.901 8 -12341450.701 9
  23638348.862   -14194332.777 7 -11026843.369 6
  22922912.268     2275666.897 7  -2590955.187 7
  21499434.361   -28085718.935 7 -14732297.727 1
 94  5 10 19 37  0.0040000  0  7  9 19 15  2 26 27  7
  26046523.277     -412464.45415  -1086343.086 1
  25585492.722    21723135.819 4  16944450.324 2
  25108765.783    -5994418.253 5  -4676869.139 3
  22330724.611   -15816698.001 8 -12320434.421 9
  23640824.488   -14181329.821 7 -11016711.233 6
  22939745.045     2364113.571 7  -2522035.755 7
  21499009.256   -28087950.631 7 -14734036.708 1
 94  5 10 19 37 30.0040000  0  7  9 19 15  2 26 27  7
  26029739.966     -500624.689 4  -1155039.389 1
  25606020.321    21830965.244 4  17028473.102 2
  25114333.379    -5965191.287 5  -4654094.831 3
  22335881.971   -15789580.921 8 -12299304.223 9
  23643396.527   -14167812.633 7 -11006178.368 6
  22956642.937     2452936.637 7  -2452823.018 7
  21498687.788   -28089647.895 7 -14735359.238 1
 94  5 10 19 38  0.0040000  0  7  9 19 15  2 26 27  7
  26012951.858     -588795.260 5  -1223743.629 1
  25626573.642    21938965.426 4  17112628.949 2
  25119998.317    -5935406.110 5  -4630885.645 3
  22341071.918   -15762321.101 8 -12278062.822 9
  23646075.203   -14153762.725 7 -10995230.417 6
  22973619.194     2542133.638 7  -2383318.930 7
  21498464.952   -28090813.016 7 -14736267.117 1
 94  5 10 19 38 30.0040000  0  7  9 19 15  2 26 27  7
  25996184.106     -676972.554 5  -1292453.286 1
  25647165.127    22047123.189 4  17196907.551 2
  25125769.232    -5905061.854 6  -4607240.783 3
  22346286.508   -15734916.400 8 -12256708.510 9
  23648848.913   -14139173.382 7 -10983862.122 6
  22990660.027     2631694.683 7  -2313531.150 7
  21498341.678   -28091460.387 7 -14736771.559 2
 94  5 10 19 39  0.0040000  0  7  9 19 15  2 26 27  7
  25979408.020     -765152.248 5  -1361164.671 1
  25667771.452    22155433.649 4  17281305.212 2
  25131657.905    -5874160.553 6  -4583161.832 3
  22351535.334   -15707340.879 8 -12235221.091 9
  23651729.199   -14124034.163 7 -10972065.356 6
  23007775.508     2721627.780 7  -2243453.451 6
  21498311.249   -28091608.304 7 -14736886.811 2
 94  5 10 19 39 30.0040000  0  7  9 19 15  2 26 27  7
  25962593.441     -853324.191 4  -1429869.992 1
  25688403.288    22263896.856 4  17365821.816 2
  25137648.718    -5842699.127 5  -4558646.411 3
  22356820.375   -15679564.387 8 -12213577.073 9
  23654716.990   -14108330.137 7 -10959828.457 6
  23024959.582     2811931.262 7  -2173087.172 6
  21498379.542   -28091251.854 7 -14736609.062 2
 94  5 10 19 40  0.0040000  0  7  9 19 15  2 26 27  7
  25945858.066     -941485.354 5  -1498566.958 2
  25709070.711    22372499.692 4  17450447.288 2
  25143730.218    -5810681.366 5  -4533697.555 2
  22362143.220   -15651591.007 8 -12191779.638 9
  23657813.247   -14092070.174 7 -10947158.393 6
  23042212.848     2902593.919 7  -2102440.988 6
  21498548.924   -28090376.918 7 -14735927.277 2
 94  5 10 19 40 30.0040000  0  7  9 19 15  2 26 27  7
  25929060.995    -1029613.559 4  -1567238.217 2
  25729770.870    22481247.795 4  17535185.953 2
  25149927.737    -5778105.344 5  -4508313.645 3
  22367503.749   -15623416.952 8 -12169825.833 9
  23661007.715   -14075275.657 7 -10934071.772 6
  23059533.567     2993617.350 7  -2031513.705 6
  21498810.823   -28088985.124 7 -14734842.770 2
 94  5 10 19 41  0.0040000  0  8  9  4 19 15  2 26 27  7
  25912276.364    -1117696.156 4  -1635873.943 2
  25966009.096   -33804238.00114  -1151471.458 2
  25750495.343    22590154.656 5  17620048.291 2
  25156237.379    -5744974.231 5  -4482497.239 3
  22372904.211   -15595046.828 8 -12147719.246 9
  23664297.937   -14057962.467 7 -10920580.989 6
  23076926.776     3085013.359 7  -1960296.075 6
  21499174.681   -28087083.984 7 -14733361.356 2
 94  5 10 19 41 30.0040000  0  8  9  4 19 15  2 26 27  7
  25895536.553    -1205741.218 4  -1704480.431 2
  25949030.350   -33893445.193 4  -1220983.514 2
  25771248.566    22699213.538 5  17705029.068 2
  25162650.510    -5711288.764 5  -4456248.814 3
  22378336.750   -15566492.636 8 -12125469.224 9
  23667690.509   -14040145.640 7 -10906697.779 6
  23094386.479     3176765.788 7  -1888800.738 6
  21499628.807   -28084696.098 7 -14731500.655 3
 94  5 10 19 42  0.0040000  0  8  9  4 19 15  2 26 27  7
  25878802.348    -1293761.359 5  -1773067.465 2
  25932051.874   -33982711.976 4  -1290541.937 2
  25792029.490    22808425.705 5  17790129.333 2
  25169162.541    -5677045.906 5  -4429566.077 3
  22383802.506   -15537763.704 8 -12103083.037 9
  23671177.305   -14021837.969 7 -10892432.084 6
  23111916.573     3268878.982 7  -1817024.255 6
  21500170.831   -28081849.859 7 -14729282.804 3
 94  5 10 19 42 30.0040000  0  8  9  4 19 15  2 26 27  7
  25862025.722    -1381751.323 4  -1841631.033 2
  25915054.151   -34072028.520 4  -1360139.156 2
  25812840.692    22917792.312 5  17875350.018 2
  25175780.370    -5642244.968 5  -4402448.441 3
  22389301.239   -15508864.490 8 -12080564.174 9
  23674754.129   -14003040.609 7 -10877784.809 6
  23129511.992     3361369.411 7  -1744953.842 6
  21500796.708   -28078567.729 7 -14726725.299 2
 94  5 10 19 43  0.0040000  0  8  9  4 19 15  2 26 27  7
  25845304.858    -1469735.434 5  -1910190.025 2
  25898040.869   -34161398.862 5  -1429778.323 2
  25833686.431    23027302.227 5  17960682.229 1
  25182511.940    -5606886.309 5  -4374896.284 3
  22394835.018   -15479797.625 8 -12057914.667 9
  23678424.997   -13983741.718 7 -10862746.732 6
  23147185.177     3454225.155 7  -1672598.759 6
  21501506.437   -28074838.392 7 -14723819.310 3
 94  5 10 19 43 30.0040000  0  8  9  4 19 15  2 26 27  7
  25828586.662    -1557728.319 5  -1978755.840 2
  25881025.579   -34250832.807 5  -1499467.016 2
  25854543.802    23136950.021 5  18046122.018 2
  25189352.514    -5570969.376 5  -4346909.105 3
  22400394.639   -15450572.544 8 -12035141.886 9
  23682191.080   -13963930.829 7 -10847309.714 6
  23164917.991     3547433.481 7  -1599968.945 6
  21502301.846   -28070651.122 7 -14720556.500 2
 94  5 10 19 44  0.0040000  0  8  9  4 19 15  2 26 27  7
  25811831.921    -1645717.601 5  -2047318.884 2
  25863992.810   -34340332.178 5  -1569206.708 2
  25875434.180    23246743.754 5  18131675.431 1
  25196289.712    -5534500.195 5  -4318491.519 3
  22405984.570   -15421197.076 8 -12012251.909 9
  23686067.097   -13943598.833 7 -10831466.644 6
  23182727.342     3641000.998 7  -1527059.232 6
  21503192.829   -28065978.523 7 -14716915.516 2
 94  5 10 19 44 30.0040000  0  8  9  4 19 15  2 26 27  7
  25795113.215    -1733677.934 5  -2115859.331 2
  25846937.977   -34429913.038 4  -1639009.889 2
  25896362.032    23356684.848 5  18217343.665 2
  25203333.725    -5497476.935 5  -4289642.197 3
  22411603.040   -15391666.707 8 -11989241.243 9
  23690038.208   -13922721.134 7 -10815198.280 6
  23200603.037     3734920.336 6  -1453875.367 6
  21504181.845   -28060782.849 7 -14712866.929 2
 94  5 10 19 45  0.0040000  0  8  9  4 19 15  2 26 27  7
  25778339.707    -1821609.462 5  -2184377.371 2
  25829882.365   -34519567.712 5  -1708870.650 2
  25917312.578    23466787.641 5  18303137.919 2
  25210485.514    -5459897.818 5  -4260359.817 3
  22417254.757   -15361977.748 8 -11966106.996 9
  23694117.754   -13901287.122 7 -10798496.491 6
  23218535.992     3829171.530 6  -1380432.938 6
  21505271.350   -28055050.970 7 -14708400.536 2
 94  5 10 19 45 30.0040000  0  8  9  4 19 15  2 26 27  7
  25761620.281    -1909494.887 5  -2252859.419 2
  25812809.814   -34609286.787 5  -1778781.532 2
  25938292.024    23577053.173 4  18389058.959 2
  25217744.569    -5421766.323 5  -4230646.988 3
  22422935.855   -15332121.539 8 -11942842.424 9
  23698299.738   -13879303.598 7 -10781366.527 6
  23236536.610     3923763.665 6  -1306724.828 6
  21506460.957   -28048793.111 7 -14703524.284 2
 94  5 10 19 46  0.0040000  0  8  9  4 19 15  2 26 27  7
  25744920.163    -1997325.234 5  -2321298.613 2
  25795725.391   -34699062.844 5  -1848736.782 2
  25959302.499    23687472.007 4  18475099.461 2
  25225105.343    -5383081.844 5  -4200503.209 3
  22428652.387   -15302081.563 8 -11919434.663 9
  23702588.330   -13856772.465 7 -10763809.797 6
  23254601.684     4018699.382 6  -1232748.981 6
  21507748.835   -28042017.141 7 -14698244.303 2
 94  5 10 19 46 30.0040000  0  8  9  4 19 15  2 26 27  7
  25728202.416    -2085107.960 5  -2389700.692 2
  25778635.572   -34788898.746 5  -1918738.671 2
  25980345.141    23798031.351 4  18561249.423 2
  25232568.706    -5343842.054 5  -4169926.770 3
  22434405.135   -15271853.316 8 -11895880.187 9
  23706978.011   -13833696.231 7 -10745828.341 6
  23272729.684     4113968.751 6  -1158513.151 5
  21509135.256   -28034746.342 7 -14692578.745 2
 94  5 10 19 47  0.0040000  0  8  9  4 19 15  2 26 27  7
  25711534.465    -2172863.413 5  -2458081.494 3
  25761526.356   -34878798.274 4  -1988790.184 2
  26001407.060    23908723.477 3  18647502.865 2
  25240144.522    -5304050.276 5  -4138920.225 3
  22440191.699   -15241437.591 8 -11872179.639 9
  23711468.152   -13810099.557 7 -10727441.365 6
  23290924.958     4209580.035 6  -1084010.925 5
  21510606.037   -28027001.232 8 -14686543.590 2
 94  5 10 19 47 30.0040000  0  8  9  4 19 15  2 26 27  7
  25694812.851    -2260592.412 5  -2526441.671 3
  25744406.678   -34968773.602 5  -2058900.741 2
  26022494.342    24019537.367 3  18733851.198 2
  25247818.159    -5263707.056 5  -4107483.966 3
  22446013.098   -15210839.453 8 -11848336.939 9
  23716055.666   -13785981.088 7 -10708647.773 6
  23309186.336     4305551.676 6  -1009227.865 5
  21512170.444   -28018790.646 7 -14680145.725 2
 94  5 10 19 48  0.0040000  0  8  9  4 19 15  2 26 27  7
  25678121.456    -2348303.648 5  -2594788.070 3
  25727270.841   -35058818.422 4  -2129065.465 2
  26043603.568    24130472.245 3  18820293.728 3
  25255602.180    -5222813.476 5  -4075618.809 3
  22451867.625   -15180086.413 8 -11824373.549 9
  23720742.981   -13761336.781 7 -10689444.444 6
  23327516.996     4401884.207 6   -934163.612 5
  21513822.241   -28010118.576 8 -14673388.272 2
 94  5 10 19 48 30.0040000  0  8  9  4 19 15  2 26 27  7
  25661450.537    -2436001.561 5  -2663124.042 3
  25710127.479   -35148927.798 5  -2199280.445 2
  26064740.885    24241543.753 3  18906842.795 3
  25263492.688    -5181371.151 5  -4043326.103 2
  22457744.757   -15149196.516 8 -11800303.508 9
  23725534.924   -13736178.355 7 -10669840.498 6
  23345917.658     4498578.828 6   -858817.221 5
  21515557.529   -28000979.863 8 -14666267.181 1
 94  5 10 19 49  0.0040000  0  7  9  4 15  2 26 27  7
  25644757.164    -2523655.327 5  -2731425.611 2
  25692963.402   -35239080.928 4  -2269529.493 2
  25271483.086    -5139365.660 5  -4010594.594 2
  22463653.636   -15118153.631 8 -11776114.250 9
  23730420.222   -13710492.904 6 -10649825.871 6
  23364392.668     4595662.789 6   -783167.431 5
  21517393.399   -27991351.804 8 -14658764.798 1
 94  5 10 19 49 30.0040000  0  7  9  4 15  2 26 27  7
  25628087.534    -2611276.781 5  -2799702.023 2
  25675798.694   -35329286.265 4  -2339819.255 2
  25279577.123    -5096824.944 5  -3977445.961 2
  22469582.662   -15086985.023 8 -11751827.041 9
  23735407.719   -13684300.340 7 -10629416.118 6
  23382932.942     4693102.173 6   -707240.698 5
  21519314.888   -27981257.713 8 -14650899.272 1
 94  5 10 19 50  0.0040000  0  7  9  4 15  2 26 27  7
  25611411.159    -2698914.510 5  -2867991.125 2
  25658620.647   -35419589.649 4  -2410185.405 2
  25287764.665    -5053807.156 5  -3943925.641 2
  22475528.026   -15055740.136 8 -11727480.387 9
  23740468.666   -13657687.922 7 -10608679.195 6
  23401531.737     4790824.644 6   -631093.402 5
  21521313.964   -27970748.541 8 -14642710.313 1
 94  5 10 19 50 30.0040000  0  7  9  4 15  2 26 27  7
  25594733.225    -2786588.346 5  -2936308.353 2
  25641410.401   -35510028.131 4  -2480656.847 2
  25296032.851    -5010343.231 5  -3910057.648 2
  22481489.729   -15024421.948 8 -11703076.622 9
  23745608.997   -13630692.112 7 -10587643.524 6
  23420176.219     4888788.567 6   -554757.931 5
  21523386.580   -27959858.191 8 -14634224.319
 94  5 10 19 51  0.0040000  0  7  9  4 15  2 26 27  7
  25578028.429    -2874282.552 5  -3004641.422 2
  25624174.643   -35600578.496 4  -2551215.442 2
  25304393.193    -4966424.879 5  -3875835.584 2
  22487466.061   -14993006.576 8 -11678597.123 9
  23750826.105   -13603290.821 7 -10566291.902 6
  23438862.523     4986999.047 6   -478230.345 5
  21525530.275   -27948590.407 8 -14625444.225 9
 94  5 10 19 51 30.0040000  0  7  9  4 15  2 26 27  7
  25561356.851    -2961955.242 5  -3072957.761 2
  25606944.431   -35691167.171 5  -2621803.898 2
  25312848.630    -4921990.899 5  -3841211.681 2
  22493477.050   -14961436.206 8 -11653996.852 9
  23756126.406   -13575427.069 7 -10544579.910 6
  23457606.987     5085504.760 6   -401472.720 5
  21527757.344   -27936880.070 8 -14616319.289 9
 94  5 10 19 52  0.0040000  0  7  9  4 15  2 26 27  7
  25544685.842    -3049570.308 5  -3141229.214 2
  25589699.230   -35781750.910 5  -2692388.504 3
  25321412.861    -4877001.844 5  -3806155.324 2
  22499522.335   -14929668.936 8 -11629243.164 9
  23761526.208   -13547050.584 7 -10522468.388 6
  23476414.886     5184342.838 6   -324456.109 5
  21530076.718   -27924696.536 8 -14606825.620 9
 94  5 10 19 52 30.0040000  0  7  9  4 15  2 26 27  7
  25528019.810    -3137111.093 5  -3209442.746 2
  25572468.329   -35872294.215 5  -2762941.596 3
  25330079.891    -4831435.093 5  -3770648.779 2
  22505606.593   -14897672.103 8 -11604310.567 9
  23767031.476   -13518113.475 7 -10499920.042 6
  23495293.147     5283542.803 6   -247157.501 5
  21532491.336   -27912015.189 8 -14596944.058 9
 94  5 10 19 53  0.0040000  0  7  9  4 15  2 26 27  7
  25511376.981    -3224584.139 5  -3277603.547 2
  25555254.485   -35962802.982 5  -2833467.787 3
  25338860.812    -4785294.503 5  -3734695.064 2
  22511737.079   -14865458.522 8 -11579209.095 9
  23772640.893   -13488625.278 7 -10476942.236 6
  23514236.073     5383102.527 6   -169578.567 5
  21534998.920   -27898830.578 8 -14586670.340 9
 94  5 10 19 53 30.0040000  0  7  9  4 15  2 26 27  7
  25494742.787    -3311991.359 5  -3345713.034 2
  25538030.749   -36053296.276 5  -2903981.930 3
  25347753.316    -4738583.673 5  -3698297.025 2
  22517908.366   -14833036.522 8 -11553945.214 9
  23778357.875   -13458604.170 6 -10453549.192 6
  23533250.320     5483014.514 6    -91725.148 5
  21537601.928   -27885140.082 8 -14576002.413 9
 94  5 10 19 54  0.0040000  0  7  9  4 15  2 26 27  7
  25478120.674    -3399316.834 5  -3413758.797 2
  25520803.116   -36143783.689 5  -2974491.455 3
  25356748.558    -4691306.626 5  -3661457.836 2
  22524121.115   -14800402.691 8 -11528516.270 9
  23784166.744   -13428046.613 6 -10429738.157 6
  23552330.311     5583272.400 6    -13602.208 5
  21540301.859   -27870955.546 8 -14564949.517 9
 94  5 10 19 54 30.0040000  0  7  9  4 15  2 26 27  7
  25461521.975    -3486563.612 5  -3481743.267 2
  25503572.574   -36234287.535 5  -3045013.830 3
  25365845.730    -4643469.236 5  -3624181.950 2
  22530367.381   -14767560.409 8 -11502924.896 9
  23790083.088   -13396968.509 6 -10405521.481 6
  23571468.792     5683867.602 6     64783.600 5
  21543097.874   -27856273.990 7 -14553509.354 9
 94  5 10 19 55  0.0040000  0  7  9  4 15  2 26 27  7
  25444928.313    -3573738.893 5  -3549672.022 2
  25486357.712   -36324825.837 5  -3115563.018 3
  25375048.699    -4595081.284 5  -3586477.044 2
  22536653.160   -14734537.350 8 -11477192.651 9
  23796095.126   -13365376.833 6 -10380904.620 6
  23590675.355     5784790.240 6    143424.553 5
  21545980.888   -27841113.936 8 -14541696.325 9
 94  5 10 19 55 30.0040000  0  7  9  4 15  2 26 27  7
  25428359.353    -3660830.041 5  -3617535.200 2
  25469118.056   -36415388.854 5  -3186131.482 3
  25384361.662    -4546144.201 5  -3548344.334 2
  22542971.316   -14701333.777 8 -11451319.755 9
  23802207.535   -13333260.807 6 -10355879.170 6
  23609947.124     5886047.339 6    222326.114 5
  21548959.686   -27825472.699 8 -14529508.357 9
 94  5 10 19 56  0.0040000  0  7  9  4 15  2 26 27  7
  25411800.257    -3747833.427 5  -3685330.000 2
  25451888.774   -36505966.737 5  -3256711.541 3
  25393786.807    -4496662.116 5  -3509786.913 2
  22549322.359   -14667954.071 8 -11425309.610 9
  23808422.802   -13300611.256 6 -10330438.007 6
  23629283.737     5987653.250 6    301499.479 5
  21552027.222   -27809341.185 7 -14516938.341 9
 94  5 10 19 56 30.0040000  0  7  9  4 15  2 26 27  7
  25395267.962    -3834745.450 5  -3753053.603 3
  25434647.830   -36596554.528 5  -3327299.292 3
  25403305.548    -4446636.502 5  -3470805.901 2
  22555705.150   -14634415.674 8 -11399175.802 9
  23814737.240   -13267436.537 6 -10304587.594 6
  23648687.984     6089626.808 6    380959.316 5
  21555190.692   -27792714.067 7 -14503982.142 9
 94  5 10 19 57  0.0040000  0  7  9  4 15  2 26 27  7
  25378750.117    -3921547.792 5  -3820691.751 3
  25417403.048   -36687132.314 5  -3397879.250 3
  25412927.566    -4396063.923 5  -3431398.762 2
  22562114.143   -14600730.613 8 -11372927.722 9
  23821148.332   -13233736.250 6 -10278327.676 6
  23668163.881     6191971.882 6    460708.637 5
  21558450.096   -27775593.501 7 -14490641.456 9
 94  5 10 19 57 30.0040000  0  7  9  4 15  2 26 27  7
  25362258.474    -4008230.308 5  -3888236.524 3
  25400181.890   -36777685.888 5  -3468440.349 3
  25422651.754    -4344946.346 5  -3391566.946 2
  22568555.544   -14566891.377 8 -11346559.483 9
  23827658.205   -13199522.503 6 -10251667.646 6
  23687702.105     6294676.976 6    540738.507 5
  21561803.574   -27757974.861 7 -14476912.643 9
 94  5 10 19 58  0.0040000  0  7  9  4 15  2 26 27  7
  25345795.671    -4094807.624 5  -3955699.333 3
  25382946.072   -36868212.369 5  -3538980.348 3
  25432487.945    -4293288.470 5  -3351314.026 2
  22575020.808   -14532899.393 8 -11320072.242 9
  23834264.432   -13164809.193 6 -10224618.327 6
  23707312.789     6397715.634 6    621028.307 5
  21565247.230   -27739875.448 7 -14462809.208 9
 94  5 10 19 58 30.0040000  0  7  9  4 15  2 26 27  7
  25329320.187    -4181285.953 5  -4023084.977 3
  25365734.058   -36958705.939 5  -3609494.724 2
  25442421.448    -4241088.747 4  -3310638.979 2
  22581521.538   -14498741.906 8 -11293456.009 9
  23840959.187   -13129610.817 6 -10197191.070 6
  23726974.947     6501052.499 6    701550.458 5
  21568778.845   -27721309.411 8 -14448342.152
 94  5 10 19 59  0.0040000  0  7  9  4 15  2 26 27  7
  25312879.328    -4267687.872 5  -4090411.105 3
  25348519.645   -37049159.595 5  -3679978.005 2
  25452449.746    -4188355.280 5  -3269548.039 2
  22588056.174   -14464399.161 8 -11266695.455 9
  23847749.097   -13093939.794 6 -10169395.501 6
  23746688.640     6604646.660 6    782273.111 5
  21572402.766   -27702281.771 8 -14433515.426 9
 94  5 10 19 59 30.0040000  0  7  9  4 15  2 26 27  7
  25296453.160    -4354019.876 6  -4157682.718 3
  25331319.323   -37139561.127 5  -3750420.615 2
  25462586.238    -4135087.056 4  -3228040.298 2
  22594632.691   -14429847.647 8 -11239772.196 9
  23854626.726   -13057797.117 6 -10141232.407 6
  23766455.755     6708503.703 6    863200.582 5
  21576112.188   -27682793.222 8 -14418329.545
 94  5 10 20  0  0.0040000  0  7  9  4 15  2 26 27  7
  25280028.910    -4440286.439 6  -4224903.388 3
  25314122.897   -37229918.424 5  -3820828.788 2
  25472828.498    -4081286.323 5  -3186117.720 2
  22601245.963   -14395100.043 8 -11212696.152 9
  23861595.731   -13021182.384 6 -10112701.507 6
  23786271.737     6812633.309 6    944340.446 5
  21579900.336   -27662856.543 8 -14402794.491 9
 94  5 10 20  0 30.0040000  0  8 12  9  4 15  2 26 27  7
  25951047.564    -1037841.01215   -844228.636 1
  25263636.558    -4526474.092 5  -4292062.572 3
  25296925.483   -37320233.717 5  -3891204.206 2
  25483166.661    -4026952.275 5  -3143779.534 2
  22607892.692   -14360161.382 8 -11185471.240 9
  23868654.944   -12984087.405 6 -10083796.357 6
  23806141.231     6917063.615 6   1025714.613 5
  21583781.659   -27642470.247 8 -14386909.060
 94  5 10 20  1  0.0040000  0  8 12  9  4 15  2 26 27  7
  25936379.438    -1114849.252 4   -904235.036 1
  25247255.419    -4612569.963 5  -4359150.209 3
  25279751.092   -37410513.290 5  -3961551.828 2
  25493611.490    -3972085.908 5  -3101026.487 2
  22614577.164   -14325038.833 8 -11158103.023 9
  23875804.275   -12946495.477 6 -10054503.988 6
  23826077.939     7021824.663 6   1107346.516 5
  21587745.994   -27621640.048 8 -14370677.737 1
 94  5 10 20  1 30.0040000  0  8 12  9  4 15  2 26 27  7
  25921701.989    -1191902.171 5   -964276.211 1
  25230884.442    -4698570.651 5  -4426163.683 3
  25262573.554   -37500783.427 5  -4031892.119 2
  25504143.469    -3916693.627 5  -3057863.708 2
  22621292.935   -14289752.922 8 -11130607.531 9
  23883055.295   -12908406.252 6 -10024824.122 6
  23846082.670     7126941.840 6   1189255.901 5
  21591793.642   -27600376.225 8 -14354108.536 1
 94  5 10 20  2  0.0040000  0  8 12  9  4 15  2 26 27  7
  25907049.693    -1268994.609 5  -1024348.235 1
  25214531.183    -4784470.470 5  -4493098.561 4
  25245397.995   -37591056.539 5  -4102234.694 3
  25514793.926    -3860772.444 5  -3014288.850 2
  22628039.314   -14254300.248 8 -11102982.091 9
  23890402.698   -12869812.793 6  -9994751.335 6
  23866146.670     7232403.247 6   1271433.549 5
  21595922.714   -27578666.244 8 -14337191.683 1
 94  5 10 20  2 30.0040000  0  8 12  9  4 15  2 26 27  7
  25892354.256    -1346129.477 4  -1084453.302 1
  25198208.863    -4870272.806 5  -4559957.486 4
  25228215.930   -37681334.710 5  -4172581.203 3
  25525532.611    -3804328.114 5  -2970306.265 2
  22634820.230   -14218663.253 8 -11075213.010 9
  23897831.615   -12830731.183 6  -9964298.177 6
  23886277.584     7338189.581 6   1353864.375 5
  21600140.854   -27556502.957 8 -14319921.594 1
 94  5 10 20  3  0.0040000  0  8 12  9  4 15  2 26 27  7
  25877641.012    -1423306.248 3  -1144590.919 1
  25181902.162    -4955980.216 6  -4626742.424 4
  25211039.111   -37771612.977 5  -4242927.787 3
  25536372.087    -3747362.450 4  -2925917.398 2
  22641638.530   -14182833.662 8 -11047293.868 9
  23905364.560   -12791170.810 6  -9933471.943 6
  23906468.456     7444278.679 6   1436531.121 5
  21604449.021   -27533869.365 8 -14302285.022 1
 94  5 10 20  3 30.0040000  0  8 12  9  4 15  2 26 27  7
  25862953.040    -1500525.470 3  -1204761.732 1
  25165614.588    -5041590.957 6  -4693452.054 4
  25193861.393   -37861876.483 6  -4313262.872 3
  25547308.426    -3689878.379 5  -2881124.745 2
  22648492.235   -14146818.268 8 -11019229.950 9
  23912979.769   -12751148.518 6  -9902285.795 6
  23926711.402     7550652.048 6   1519419.358 5
  21608846.467   -27510757.597 8 -14284275.870 1
 94  5 10 20  4  0.0040000  0  8 12  9  4 15  2 26 27  7
  25848249.749    -1577786.104 4  -1264964.775 1
  25149339.155    -5127099.168 6  -4760081.810 4
  25176694.407   -37952094.841 6  -4383562.794 3
  25558342.797    -3631877.447 5  -2835929.197 2
  22655383.205   -14110616.014 8 -10991020.415 9
  23920684.075   -12710671.305 6  -9870745.155 5
  23947003.424     7657285.905 6   1602510.599 5
  21613336.878   -27487172.894 8 -14265898.178 1
 94  5 10 20  4 30.0040000  0  8 12  9  4 15  2 26 27  7
  25833562.197    -1655085.472 4  -1325198.015 1
  25133088.935    -5212500.149 6  -4826627.991 4
  25159541.182   -38042243.428 6  -4453808.356 3
  25569483.775    -3573359.024 5  -2790330.404 2
  22662302.534   -14074236.670 8 -10962672.910 9
  23928472.713   -12669738.300 6  -9838849.342 5
  23967347.670     7764202.960 6   1685822.484 5
  21617912.071   -27463120.116 8 -14247155.764 1
 94  5 10 20  5  0.0040000  0  8 12  9  4 15  2 26 27  7
  25818850.392    -1732423.566 4  -1385461.367 2
  25116858.681    -5297797.840 6  -4893093.690 4
  25142391.255   -38132314.934 6  -4523993.824 3
  25580716.219    -3514325.720 5  -2744330.498 2
  22669257.450   -14037691.844 8 -10934196.431 9
  23936349.190   -12628340.816 6  -9806591.603 6
  23987748.907     7871410.367 6   1769360.648 5
  21622576.572   -27438609.974 8 -14228056.960 1
 94  5 10 20  5 30.0040000  0  8 12  9  4 15  2 26 27  7
  25804117.151    -1809794.894 4  -1445750.711 2
  25100645.125    -5382993.644 6  -4959479.995 3
  25125281.769   -38222301.153 6  -4594112.853 3
  25592043.637    -3454774.789 5  -2697927.235 2
  22676243.243   -14000984.980 8 -10905593.709 9
  23944318.153   -12586474.622 6  -9773968.665 5
  24008202.757     7978905.357 6   1853122.863 5
  21627323.006   -27413660.970 8 -14208616.178 2
 94  5 10 20  6  0.0040000  0  8 12  9  4 15  2 26 27  7
  25789399.380    -1887203.606 4  -1506069.165 2
  25084458.221    -5468098.271 6  -5025795.240 3
  25108166.948   -38312211.557 6  -4664172.807 4
  25603473.374    -3394712.974 5  -2651125.822 2
  22683258.627   -13964116.552 8 -10876865.084 9
  23952375.495   -12544132.399 6  -9740974.761 5
  24028713.688     8086687.223 6   1937108.635 5
  21632156.020   -27388276.761 8 -14188836.286 1
 94  5 10 20  6 30.0040000  0  8 12  9  4 15  2 26 27  7
  25774650.221    -1964649.347 5  -1566416.455 2
  25068267.959    -5553116.658 6  -5092043.303 3
  25091064.867   -38402063.097 6  -4734186.863 4
  25615003.242    -3334142.445 5  -2603928.061 2
  22690305.039   -13927091.078 8 -10848014.068 9
  23960525.683   -12501302.860 6  -9707601.126 6
  24049280.470     8194759.545 6   2021320.759 5
  21637069.558   -27362448.058 8 -14168710.015 2
 94  5 10 20  7  0.0040000  0  8 12  9  4 15  2 26 27  7
  25759914.432    -2042133.667 5  -1626793.752 2
  25052112.473    -5638056.255 6  -5158229.963 3
  25073966.414   -38491872.494 5  -4804168.091 4
  25626623.827    -3273067.446 5  -2556337.209 2
  22697380.141   -13889907.938 8 -10819040.215 9
  23968766.948   -12457986.306 6  -9673848.031 5
  24069897.227     8303093.955 6   2105737.072 5
  21642069.257   -27336177.622 8 -14148239.562 2
 94  5 10 20  7 30.0040000  0  8 12  9  4 15  2 26 27  7
  25745162.245    -2119655.176 5  -1687200.111 2
  25035960.855    -5722907.482 6  -5224347.782 3
  25056892.874   -38581634.865 5  -4874112.690 3
  25638341.665    -3211489.274 5  -2508354.185 2
  22704485.342   -13852575.812 8 -10789950.265 9
  23977102.437   -12414180.271 6  -9639713.518 5
  24090562.820     8411692.145 6   2190358.919 5
  21647150.170   -27309474.441 8 -14127431.888 2
 94  5 10 20  8  0.0040000  0  8 12  9  4 15  2 26 27  7
  25730386.404    -2197205.903 5  -1747629.200 2
  25019834.329    -5807650.627 6  -5290381.354 3
  25039826.619   -38671342.131 5  -4944014.384 3
  25650162.362    -3149403.084 5  -2459975.361 2
  22711619.383   -13815079.661 8 -10760732.497 9
  23985532.272   -12369878.969 6  -9605193.070 5
  24111283.306     8520575.358 6   2275202.894 4
  21652317.453   -27282327.585 8 -14106278.513 2
 94  5 10 20  8 30.0040000  0  8 12  9  4 15  2 26 27  7
  25715640.093    -2274785.067 5  -1808080.442 2
  25003728.939    -5892272.445 6  -5356320.394 3
  25022777.212   -38760991.788 5  -5013871.138 3
  25662074.855    -3086810.566 5  -2411202.045 2
  22718788.020   -13777420.289 8 -10731387.546 9
  23994057.650   -12325095.851 6  -9570297.183 5
  24132058.144     8629743.162 6   2360268.626 4
  21657561.302   -27254753.212 7 -14084791.981 2
 94  5 10 20  9  0.0040000  0  8 12  9  4 15  2 26 27  7
  25700870.847    -2352390.860 5  -1868552.439 2
  24987659.763    -5976751.480 6  -5422148.201 3
  25005714.794   -38850568.239 5  -5083670.838 3
  25674082.742    -3023712.558 5  -2362034.783 2
  22725983.819   -13739581.000 8 -10701902.398 9
  24002665.710   -12279853.908 6  -9535043.776 5
  24152887.064     8739198.849 6   2445558.692 4
  21662886.606   -27226775.356 8 -14062991.058 2
 94  5 10 20  9 30.0040000  0  8 12  9  4 15  2 26 27  7
  25686108.527    -2430022.777 5  -1929044.812 2
  24971606.866    -6061076.061 6  -5487855.595 3
  24988693.148   -38940053.148 5  -5153399.227 3
  25686181.856    -2960111.476 5  -2312475.507 2
  22733221.498   -13701555.414 8 -10672272.104 9
  24011361.460   -12234162.843 6  -9499440.415 5
  24173770.847     8848957.859 6   2531085.100 4
  21668289.645   -27198398.308 7 -14040879.105 2
 94  5 10 20 10  0.0040000  0  8 12  9  4 15  2 26 27  7
  25671309.962    -2507677.545 5  -1989554.949 2
  24955591.114    -6145238.743 6  -5553436.891 3
  24971682.564   -39029448.179 5  -5223057.582 3
  25698376.514    -2896006.874 5  -2262523.962 2
  22740496.292   -13663326.078 8 -10642483.013 9
  24020136.565   -12188033.882 6  -9463495.807 5
  24194711.770     8959011.434 6   2616841.012 4
  21673765.175   -27169600.635 7 -14018439.360 2
 94  5 10 20 10 30.0040000  0  8 12  9  4 15  2 26 27  7
  25656537.629    -2585352.234 5  -2050080.657 2
  24939606.720    -6229248.616 6  -5618899.107 3
  24954688.199   -39118753.009 5  -5292645.650 3
  25710676.549    -2831398.689 5  -2212179.926 2
  22747812.547   -13624887.864 8 -10612531.185 9
  24028998.820   -12141472.943 6  -9427214.596 5
  24215709.173     9069358.312 6   2702825.526 4
  21679327.224   -27140372.195 7 -13995663.955 2
 94  5 10 20 11  0.0040000  0  8 12  9  4 15  2 26 27  7
  25641752.164    -2663052.169 5  -2110626.007 2
  24923649.816    -6313120.422 6  -5684253.707 3
  24937706.425   -39207968.366 5  -5362164.001 3
  25723066.492    -2766295.392 5  -2161450.104 2
  22755166.186   -13586243.310 8 -10582418.554 9
  24037939.890   -12094478.774 6  -9390595.837 5
  24236760.330     9179986.600 6   2789029.286 4
  21684976.333   -27110700.926 7 -13972543.503 2
 94  5 10 20 11 30.0040000  0  8 12  9  4 15  2 26 27  7
  25626963.133    -2740775.045 5  -2171189.238 2
  24907711.500    -6396857.941 6  -5749503.693 3
  24920753.521   -39297096.866 5  -5431614.678 3
  25735543.614    -2700697.641 5  -2110335.031 2
  22762558.349   -13547403.246 8 -10552153.595 9
  24046968.290   -12047041.902 6  -9353632.088 5
  24257865.929     9290896.372 6   2875452.359 4
  21690711.753   -27080564.363 8 -13949060.459 2
 94  5 10 20 12  0.0040000  0  8 12  9  4 15  2 26 27  7
  25612158.931    -2818519.000 5  -2231768.893 2
  24891799.925    -6480466.821 6  -5814653.433 3
  24903808.832   -39386150.388 5  -5501006.898 3
  25748118.169    -2634606.192 5  -2058835.224 2
  22769984.748   -13508367.843 8 -10521736.412 9
  24056077.904   -11999167.071 6  -9316327.068 5
  24279028.818     9402078.285 5   2962087.508 4
  21696534.772   -27049956.354 8 -13925210.084 2
 94  5 10 20 12 30.0040000  0  8 12  9  4 15  2 26 27  7
  25597372.987    -2896280.154 5  -2292361.936 2
  24875915.452    -6563945.809 6  -5879701.977 3
  24886873.616   -39475120.366 6  -5570334.050 3
  25760794.533    -2568020.140 5  -2006950.002 2
  22777450.359   -13469140.703 8 -10491169.822 9
  24065277.275   -11950847.947 6  -9278675.873 5
  24300231.010     9513540.614 5   3048941.148 4
  21702444.250   -27018893.120 8 -13901004.967 2
 94  5 10 20 13  0.0040000  0  8 12  9  4 15  2 26 27  7
  25582571.244    -2974057.826 5  -2352967.883 2
  24860055.981    -6647279.093 6  -5944636.955 3
  24869954.589   -39563999.305 6  -5639590.237 3
  25773553.940    -2500941.844 5  -1954681.256 2
  22784951.946   -13429730.072 8 -10460460.254 9
  24074552.734   -11902087.545 6  -9240680.806 5
  24321498.707     9625270.291 5   3136003.154 3
  21708439.920   -26987396.572 8 -13876462.209 2
 94  5 10 20 13 30.0040000  0  8 12  9  4 15  2 26 27  7
  25567762.876    -3051852.399 5  -2413586.995 2
  24844224.181    -6730470.614 6  -6009461.503 3
  24853059.725   -39652796.767 6  -5708782.941 3
  25786415.156    -2433375.133 5  -1902031.912 2
  22792481.773   -13390141.363 8 -10429611.917 9
  24083912.854   -11852901.489 6  -9202354.051 5
  24342812.362     9737260.153 5   3223267.874 3
  21714512.516   -26955478.955 8 -13851591.336 2
 94  5 10 20 14  0.0040000  0  8 12  9  4 15  2 26 27  7
  25552954.598    -3129662.976 5  -2474218.542 2
  24828420.202    -6813530.155 6  -6074183.182 3
  24836177.392   -39741507.677 6  -5777908.263 3
  25799363.133    -2365321.877 5  -1849003.455 2
  22800051.533   -13350374.149 8 -10398624.503 8
  24093353.379   -11803291.302 6  -9163696.835 5
  24364167.928     9849494.096 5   3310722.801 3
  21720664.257   -26923152.598 8 -13826401.993 2
 94  5 10 20 14 30.0040000  0  8 12  9  4 15  2 26 27  7
  25538142.032    -3207487.978 5  -2534861.324 2
  24812637.928    -6896446.208 6  -6138793.059 4
  24819322.491   -39830116.966 6  -5846954.345 3
  25812406.023    -2296783.622 5  -1795597.042 2
  22807648.753   -13310433.379 8 -10367501.836 8
  24102873.018   -11753245.225 6  -9124699.944 5
  24385567.683     9961967.321 5   3398364.164 4
  21726891.396   -26890432.099 8 -13800905.497 2
 94  5 10 20 15  0.0040000  0  8 12  9  4 15  2 26 27  7
  25523337.741    -3285327.567 5  -2595515.532 2
  24796892.259    -6979220.133 6  -6203292.185 4
  24802473.075   -39918622.876 6  -5915919.891 3
  25825541.520    -2227763.823 5  -1741815.466 2
  22815280.840   -13270327.880 8 -10336250.823 8
  24112485.534   -11702764.322 6  -9085364.228 5
  24407015.105    10074665.002 5   3486180.402 4
  21733194.622   -26857314.715 8 -13775099.764 2
 94  5 10 20 15 30.0040000  0  8 12  9  4 15  2 26 27  7
  25508530.991    -3363173.363 5  -2656174.560 2
  24781166.166    -7061849.234 6  -6267678.492 4
  24785655.138   -40007013.677 6  -5984795.724 3
  25838766.594    -2158257.202 5  -1687654.471 3
  22822946.503   -13230047.701 8 -10304863.685 8
  24122177.134   -11651829.224 6  -9045674.606 5
  24428505.548    10187600.409 5   3574181.947 4
  21739575.465   -26823781.855 8 -13748970.271 2
 94  5 10 20 16  0.0040000  0  8 12  9  4 15  2 26 27  7
  25493703.107    -3441025.618 5  -2716838.591 2
  24765478.416    -7144314.628 6  -6331937.185 4
  24768851.141   -40095276.641 6  -6053571.961 3
  25852084.005    -2088267.117 5  -1633116.779 3
  22830646.882   -13189590.285 8 -10273338.446 8
  24131955.015   -11600438.315 6  -9005629.806 5
  24450043.507    10300780.723 5   3662374.276 4
  21746033.774   -26789841.859 8 -13722523.516 2
 94  5 10 20 16 30.0040000  0  8 12  9  4 15  2 26 27  7
  25478901.364    -3518883.190 5  -2777506.780 2
  24749814.590    -7226608.421 6  -6396062.215 4
  24752082.760   -40183410.758 6  -6122247.778 4
  25865476.453    -2017795.655 5  -1578204.032 3
  22838382.787   -13148953.103 8 -10241673.114 8
  24141821.725   -11548593.785 6  -8965231.524 5
  24471629.523    10414215.707 6   3750765.048 4
  21752567.691   -26755496.594 8 -13695760.982 2
 94  5 10 20 17  0.0040000  0  8 12  9  4 15  2 26 27  7
  25464079.415    -3596749.860 5  -2838182.075 2
  24734190.756    -7308739.499 6  -6460060.408 4
  24735340.670   -40271422.552 6  -6190828.294 4
  25878999.132    -1946849.840 5  -1522921.566 3
  22846146.092   -13108134.741 8 -10209866.619 8
  24151770.697   -11496314.349 6  -8924494.359 5
  24493266.055    10527906.133 6   3839354.887 4
  21759181.712   -26720736.392 8 -13668675.124 2
 94  5 10 20 17 30.0040000  0  8 12  9  4 15  2 26 27  7
  25449261.933    -3674621.248 5  -2898860.996 2
  24718593.934    -7390696.896 6  -6523923.268 4
  24718608.473   -40359303.689 6  -6259307.023 4
  25892589.084    -1875428.806 5  -1467268.886 3
  22853951.339   -13067119.578 8 -10177906.773 8
  24161796.237   -11443609.915 6  -8883426.017 5
  24514950.373    10641862.109 6   3928151.609 4
  21765878.596   -26685551.449 8 -13641258.288 2
 94  5 10 20 18  0.0040000  0  8 12  9  4 15  2 26 27  7
  25434438.485    -3752491.458 5  -2959539.064 2
  24703024.812    -7472482.999 6  -6587652.679 4
  24701926.162   -40447046.483 6  -6327677.933 4
  25906262.887    -1803530.097 5  -1411243.989 2
  22861795.678   -13025909.809 8 -10145795.287 8
  24171908.926   -11390492.555 6  -8842035.922 5
  24536680.200    10756073.219 6   4017147.167 4
  21772654.025   -26649945.545 8 -13613513.428 2
 94  5 10 20 18 30.0040000  0  8 12  9  4 15  2 26 27  7
  25419614.167    -3830362.743 5  -3020217.968 2
  24687490.796    -7554104.260 6  -6651253.647 4
  24685254.674   -40534664.122 6  -6395951.311 4
  25920047.974    -1731159.138 5  -1354851.047 2
  22869671.826   -12984511.914 8 -10113537.205 8
  24182093.565   -11336969.822 6  -8800329.966 5
  24558462.670    10870519.251 6   4106325.796 4
  21779507.910   -26613921.845 8 -13585443.028 2
 94  5 10 20 19  0.0050000  0  8 12  9  4 15  2 26 27  7
  25404809.306    -3908234.358 5  -3080897.056 2
  24672002.798    -7635539.276 6  -6714709.463 4
  24668596.076   -40622151.167 6  -6464122.943 4
  25933905.970    -1658313.255 5  -1298088.065 2
  22877585.927   -12942927.568 8 -10081133.848 8
  24192351.144   -11283044.641 6  -8758310.395 5
  24580286.512    10985199.378 6   4195686.782 4
  21786442.889   -26577477.639 8 -13557044.953 2
 94  5 10 20 19 30.0050000  0  8 12  9  4 15  2 26 27  7
  25389987.477    -3986101.558 5  -3141572.792 2
  24656542.051    -7716782.935 6  -6778016.173 4
  24651979.270   -40709497.616 6  -6532184.992 4
  25947854.624    -1585001.258 5  -1240961.927 2
  22885529.558   -12901168.409 8 -10048594.257 8
  24202689.457   -11228720.772 6  -8715980.170 5
  24602150.256    11100093.182 6   4285214.311 4
  21793456.684   -26540633.835 8 -13528335.499 2
 94  5 10 20 20  0.0050000  0  8 12  9  4 15  2 26 27  7
  25375166.818    -4063968.129 5  -3202248.025 2
  24641114.791    -7797837.833 6  -6841175.810 4
  24635375.444   -40796707.550 6  -6600140.695 4
  25961893.305    -1511225.445 5  -1183474.303 2
  22893508.534   -12859244.968 8 -10015926.670 8
  24213103.587   -11173987.807 6  -8673331.165 5
  24624052.523    11215200.800 6   4374908.433 4
  21800539.940   -26503406.984 8 -13499327.574 2
 94  5 10 20 20 30.0050000  0  8 12  9  4 15  2 26 27  7
  25360340.522    -4141831.345 5  -3262920.626 2
  24625724.915    -7878691.941 6  -6904178.988 4
  24618816.708   -40883774.149 6  -6667984.697 4
  25976025.432    -1436986.647 5  -1125625.965 2
  22901520.517   -12817151.553 8  -9983126.628 8
  24223600.940   -11118831.715 6  -8630352.445 5
  24646002.368    11330537.099 6   4464780.733 4
  21807696.826   -26465786.959 8 -13470013.265 2
 94  5 10 20 21  0.0050000  0  8 12  9  4 15  2 26 27  7
  25345536.320    -4219688.250 5  -3323588.287 2
  24610375.661    -7959367.679 6  -6967043.172 4
  24602271.312   -40970680.514 6  -6735703.849 4
  25990237.873    -1362285.090 5  -1067417.055 2
  22909564.489   -12774876.712 8  -9950185.218 8
  24234180.706   -11063246.277 6  -8587039.182 5
  24667997.990    11446114.986 5   4554841.296 3
  21814930.548   -26427769.883 8 -13440389.594 2
 94  5 10 20 21 30.0050000  0  8 12  9  4 15  2 26 27  7
  25330726.513    -4297536.077 5  -3384248.868 2
  24595046.074    -8039899.646 6  -7029795.330 4
  24585763.060   -41057421.692 6  -6803294.272 4
  26004544.568    -1287121.475 5  -1008847.997 3
  22917645.184   -12732405.287 8  -9917090.621 8
  24244841.745   -11007233.260 6  -8543392.725 5
  24690035.644    11561941.310 5   4645095.472 3
  21822244.524   -26389353.798 8 -13410454.976 2
 94  5 10 20 22  0.0050000  0  8 12  9  4 15  2 26 27  7
  25315907.562    -4375366.520 5  -3444895.958 2
  24579750.393    -8120284.792 6  -7092433.075 4
  24569294.831   -41143996.090 6  -6870754.746 4
  26018929.270    -1211491.255 5   -949915.500 3
  22925770.250   -12689716.924 8  -9883826.997 8
  24255583.609   -10950787.468 6  -8499409.055 5
  24712127.920    11678030.417 5   4735554.401 3
  21829630.751   -26350523.808 8 -13380197.849 1
 94  5 10 20 22 30.0050000  0  7 12  9  4  2 26 27  7
  25301102.161    -4453181.507 5  -3505530.973 2
  24564480.854    -8200535.477 6  -7154966.056 4
  24552847.797   -41230406.847 6  -6938087.703 4
  22933935.967   -12646801.037 8  -9850386.062 8
  24266401.710   -10893924.961 6  -8455100.665 5
  24734267.173    11794365.285 5   4826204.788 3
  21837101.909   -26311275.984 8 -13349615.134 1
 94  5 10 20 23  0.0050000  0  7 12  9  4  2 26 27  7
  25286294.213    -4530978.610 5  -3566152.043 2
  24549234.878    -8280645.987 6  -7217389.821 4
  24536438.867   -41316660.008 6  -7005297.890 4
  22942146.323   -12603660.667 8  -9816770.212 8
  24277295.058   -10836659.133 6  -8410477.990 5
  24756444.830    11910932.536 5   4917036.291 3
  21844648.704   -26271616.742 8 -13318711.848 1
 94  5 10 20 23 30.0050000  0  7 12  9  4  2 26 27  7
  25271502.723    -4608755.510 5  -3626757.363 2
  24534026.737    -8360583.812 6  -7279679.026 4
  24520048.014   -41402760.187 6  -7072388.825 4
  22950394.752   -12560313.273 8  -9782993.050 8
  24288271.150   -10778995.919 6  -8365545.690 5
  24778663.768    12027725.341 5   5008043.573 3
  21852270.088   -26231546.437 8 -13287488.228 1
 94  5 10 20 24  0.0050000  0  7 12  9  4  2 26 27  7
  25256697.682    -4686508.456 5  -3687344.064 2
  24518853.971    -8440311.498 6  -7341804.475 4
  24503691.487   -41488713.087 6  -7139365.030 4
  22958681.526   -12516770.897 8  -9749063.947 8
  24299320.600   -10720928.785 6  -8320298.683 5
  24800945.003    12144736.845 5   5099221.243 2
  21859974.604   -26191069.490 8 -13255947.776
 94  5 10 20 24 30.0050000  0  7 12  9  4  2 26 27  7
  25241916.055    -4764235.929 5  -3747910.864 3
  24503725.094    -8519806.650 6  -7403748.709 5
  24487363.051   -41574511.487 6  -7206220.835 4
  22966999.957   -12473056.760 8  -9715001.003 8
  24310441.971   -10662466.037 6  -8274743.314 5
  24823250.491    12261970.133 5   5190571.732 2
  21867753.649   -26150184.108 8 -13224089.033 9
 94  5 10 20 25  0.0050000  0  7 12  9  4  2 26 27  7
  25227127.413    -4841940.269 5  -3808459.651 3
  24488648.142    -8599058.152 6  -7465503.130 5
  24471069.511   -41660153.707 6  -7272954.953 4
  22975346.269   -12429181.550 8  -9680812.565 8
  24321641.378   -10603610.367 6  -8228881.809 5
  24845598.820    12379446.736 5   5282111.789 2
  21875612.529   -26108907.313 8 -13191925.316 9
 94  5 10 20 25 30.0050000  0  7 12  9  4  2 26 27  7
  25212344.227    -4919622.934 5  -3868991.552 3
  24473611.241    -8678069.275 6  -7527070.221 5
  24454801.783   -41745622.517 6  -7339553.973 4
  22983731.434   -12385131.140 7  -9646487.591 8
  24332923.647   -10544367.838 6  -8182718.865 5
  24868004.948    12497177.998 5   5373850.308 2
  21883537.302   -26067253.593 8 -13159467.885 9
 94  5 10 20 26  0.0050000  0  7 12  9  4  2 26 27  7
  25197556.724    -4997284.389 5  -3929506.940 3
  24458620.210    -8756847.827 6  -7588456.076 5
  24438576.595   -41830912.576 6  -7406013.663 4
  22992144.060   -12340904.931 7  -9612025.614 8
  24344271.152   -10484748.051 6  -8136261.965 5
  24890458.324    12615152.193 5   5465778.123 2
  21891534.146   -26025233.554 8 -13126724.991 9
 94  5 10 20 26 30.0050000  0  7 12  9  4  2 26 27  7
  25182793.595    -5074918.349 5  -3990000.915 3
  24443667.401    -8835409.890 6  -7649673.247 5
  24422384.925   -41916002.953 6  -7472317.758 4
  23000599.107   -12296488.418 7  -9577415.370 8
  24355675.047   -10424749.990 6  -8089510.282 5
  24912951.573    12733363.702 5   5557890.849 2
  21899601.112   -25982837.887 8 -13093689.418 9
 94  5 10 20 27  0.0050000  0  7 12  9  4  2 26 27  7
  25168018.293    -5152526.669 5  -4050474.895 3
  24428756.324    -8913779.122 6  -7710740.155 5
  24406229.709   -42000888.483 6  -7538462.247 5
  23009090.488   -12251864.830 8  -9542643.769 8
  24367171.878   -10364376.632 6  -8042466.177 5
  24935490.629    12851783.458 5   5650165.889 3
  21907736.400   -25940079.451 8 -13060371.167 9
 94  5 10 20 27 30.0050000  0  7 12  9  4  2 26 27  7
  25153255.853    -5230109.933 5  -4110929.345 3
  24413878.883    -8991964.400 6  -7771663.726 5
  24390115.864   -42085569.641 6  -7604447.492 5
  23017621.892   -12207032.783 7  -9507709.720 8
  24378730.046   -10303633.236 6  -7995133.737 5
  24958052.470    12970372.595 5   5742572.878 3
  21915945.976   -25896940.155 8 -13026756.143 9
 94  5 10 20 28  0.0050000  0  7 12  9  4  2 26 27  7
  25138503.096    -5307662.627 5  -4171359.982 3
  24399037.508    -9069963.480 6  -7832442.200 5
  24374040.663   -42170051.358 6  -7670277.323 5
  23026188.401   -12162008.276 7  -9472625.707 8
  24390364.542   -10242508.957 6  -7947504.484 5
  24980650.076    13089130.162 5   5835111.104 3
  21924229.722   -25853397.262 8 -12992826.620 9
 94  5 10 20 28 30.0050000  0  7 12  9  4  2 26 27  7
  25123744.224    -5385181.793 5  -4231764.501 3
  24384228.060    -9147773.080 6  -7893073.026 5
  24358002.606   -42254325.299 6  -7735945.249 5
  23034796.462   -12116781.128 7  -9437383.797 8
  24402071.258   -10181002.459 6  -7899577.400 5
  25003289.563    13208071.508 5   5927792.548 3
  21932595.580   -25809442.824 8 -12958576.415 9
 94  5 10 20 29  0.0050000  0  7 12  9  4  2 26 27  7
  25109010.983    -5462665.439 5  -4292141.331 3
  24369463.162    -9225369.008 6  -7953537.370 5
  24342003.072   -42338395.413 6  -7801454.345 5
  23043439.479   -12071346.477 7  -9401980.203 8
  24413838.471   -10119108.653 6  -7851348.548 4
  25025956.990    13327209.672 5   6020627.321 3
  21941038.995   -25765086.719 8 -12924013.229 9
 94  5 10 20 29 30.0050000  0  7 12  9  4  2 26 27  7
  25094272.227    -5540111.599 5  -4352488.947 3
  24354739.755    -9302735.136 6  -8013822.609 5
  24326049.826   -42422261.974 6  -7866804.815 5
  23052124.946   -12025722.591 7  -9366429.133 8
  24425694.154   -10056823.180 6  -7802814.474 5
  25048665.730    13446561.296 5   6113628.485 3
  21949554.000   -25720336.069 8 -12889142.598 9
 94  5 10 20 30  0.0050000  0  7 12  9  4  2 26 27  7
  25079536.528    -5617521.872 5  -4412808.610 3
  24340063.745    -9379865.414 6  -8073924.124 5
  24310122.512   -42505929.212 6  -7931999.993 5
  23060840.962   -11979914.013 7  -9330734.158 8
  24437629.041    -9994148.685 6  -7753977.279 4
  25071420.397    13566136.465 5   6206803.798 3
  21958140.416   -25675219.124 8 -12853986.550 9
 94  5 10 20 30 30.0050000  0  7 12  9  4  2 26 27  7
  25064804.877    -5694893.804 5  -4473098.383 3
  24325432.643    -9456748.327 6  -8133832.861 5
  24294242.896   -42589394.476 6  -7997037.767 5
  23069597.840   -11933898.032 7  -9294877.575 8
  24449625.267    -9931093.057 6  -7704843.098 4
  25094214.727    13685914.434 5   6300137.150 3
  21966790.058   -25629760.785 8 -12818564.474 9
 94  5 10 20 31  0.0050000  0  7 12  9  4  2 26 27  7
  25050095.020    -5772226.861 5  -4533357.884 3
  24310851.278    -9533385.414 7  -8193550.023 5
  24278396.916   -42672658.789 6  -8061918.962 5
  23078394.410   -11887680.221 7  -9258863.712 8
  24461684.448    -9867659.462 6  -7655414.382 4
  25117049.229    13805877.241 5   6393614.538 3
  21975505.354   -25583965.800 8 -12782880.090 9
 94  5 10 20 31 30.0050000  0  7 12  9  4  2 26 27  7
  25035390.350    -5849517.461 5  -4593584.284 3
  24296308.466    -9609791.070 7  -8253086.887 5
  24262592.157   -42755721.102 6  -8126642.762 5
  23087221.559   -11841274.061 7  -9222703.108 8
  24473828.231    -9803869.660 6  -7605708.123 4
  25139907.774    13926023.140 5   6487234.590 3
  21984282.858   -25537825.487 8 -12746926.598 9
 94  5 10 20 32  0.0050000  0  7 12  9  4  2 26 27  7
  25020697.282    -5926763.610 6  -4653776.057 3
  24281812.811    -9685970.455 7  -8312447.419 5
  24246819.416   -42838588.939 6  -8191215.018 5
  23096090.859   -11794666.557 7  -9186385.576 8
  24486037.609    -9739728.965 6  -7555728.408 5
  25162804.093    14046347.693 5   6580993.829 3
  21993131.772   -25491330.524 8 -12710696.768 9
 94  5 10 20 32 30.0050000  0  7 12  9  4  2 26 27  7
  25005993.631    -6003967.697 5  -4713935.035 3
  24267353.821    -9761937.043 6  -8371642.139 5
  24231090.835   -42921256.439 6  -8255631.167 5
  23104995.564   -11747872.786 7  -9149922.931 8
  24498298.161    -9675245.083 6  -7505481.312 4
  25185738.036    14166853.701 5   6674894.479 3
  22002049.518   -25444470.269 8 -12674182.293 9
 94  5 10 20 33  0.0050000  0  7 12  9  4  2 26 27  7
  24991313.604    -6081125.386 5  -4774057.868 3
  24252944.986    -9837686.409 7  -8430667.607 6
  24215398.409   -43003716.155 6  -8319885.415 5
  23113931.568   -11700906.795 7  -9113326.076 7
  24510639.118    -9610421.058 6  -7454969.153 4
  25208708.314    14287560.212 5   6768951.349 3
  22011038.285   -25397222.883 8 -12637366.158 9
 94  5 10 20 33 30.0050000  0  7 12  9  4  2 26 27  7
  24976642.420    -6158237.174 6  -4834144.945 3
  24238569.637    -9913214.161 7  -8489520.394 6
  24199742.407   -43085974.035 6  -8383982.390 5
  23122907.144   -11653761.155 7  -9076589.238 7
  24523035.386    -9545254.904 6  -7404190.428 5
  25231712.019    14408466.852 5   6863164.180 3
  22020103.560   -25349594.290 8 -12600252.980 9
 94  5 10 20 34  0.0050000  0  7 12  9  4  2 26 27  7
  24961976.933    -6235304.836 6  -4894197.652 3
  24224240.907    -9988508.004 7  -8548190.899 6
  24184131.284   -43168014.046 6  -8447909.586 5
  23131916.477   -11606414.964 7  -9039696.116 7
  24535511.279    -9479741.965 6  -7353141.423 4
  25254756.736    14529558.601 4   6957521.262 3
  22029240.394   -25301589.948 8 -12562847.001 9
 94  5 10 20 34 30.0050000  0  7 12  9  4  2 26 27  7
  24947317.771    -6312328.524 6  -4954216.075 3
  24209959.574   -10063560.141 7  -8606673.070 6
  24168561.533   -43249820.723 6  -8511654.965 5
  23140965.143   -11558861.686 7  -9002641.647 7
  24548039.486    -9413887.416 6  -7301826.253 4
  25277836.468    14650824.706 4   7052014.201 3
  22038442.224   -25253218.328 8 -12525154.837 9
 94  5 10 20 35  0.0050000  0  7 12  9  4  2 26 27  7
  24932664.006    -6389304.798 6  -5014197.539 3
  24195731.484   -10138349.226 7  -8664950.275 6
  24153043.256   -43331392.209 6  -8575217.104 5
  23150055.840   -11511083.602 7  -8965411.984 7
  24560637.544    -9347692.709 6  -7250246.040 4
  25300930.770    14772250.547 4   7146631.591 2
  22047714.805   -25204489.964 8 -12487184.696 9
 94  5 10 20 35 30.0050000  0  7 12  9  4  2 26 27  7
  24918031.466    -6466229.571 6  -5074138.930 3
  24181545.305   -10212882.169 7  -8723027.877 6
  24137568.479   -43412716.931 6  -8638586.941 5
  23159190.936   -11463076.006 7  -8928003.492 7
  24573303.116    -9281160.668 6  -7198402.963 4
  25324078.315    14893836.057 4   7241373.389 2
  22057054.239   -25155413.724 8 -12448943.476 9
 94  5 10 20 36  0.0050000  0  7 12  9  4  2 26 27  7
  24903403.453    -6543100.763 6  -5134038.507 3
  24167411.229   -10287162.019 7  -8780908.264 6
  24122141.609   -43493776.253 6  -8701749.977 5
  23168368.932   -11414856.121 7  -8890429.567 7
  24586026.488    -9214300.959 6  -7146304.565 4
  25347248.045    15015587.386 4   7336244.429 2
  22066457.979   -25105995.303 8 -12410435.614 9
 94  5 10 20 36 30.0050000  0  7 12  9  4  2 26 27  7
  24888794.056    -6619915.276 6  -5193893.951 4
  24153322.693   -10361193.949 7  -8838595.472 6
  24106768.881   -43574569.035 6  -8764705.303 5
  23177580.355   -11366443.197 7  -8852705.244 7
  24598813.056    -9147112.809 6  -7093950.248 4
  25370450.962    15137515.764 5   7431253.411 2
  22075924.735   -25056242.010 8 -12371666.836 9
 94  5 10 20 37  0.0050000  0  7 12  9  4  2 26 27  7
  24874177.195    -6696677.168 6  -5253708.387 4
  24139279.365   -10434988.438 7  -8896097.640 6
  24091443.611   -43655098.995 6  -8827455.849 5
  23186826.314   -11317857.872 7  -8814846.579 7
  24611655.955    -9079609.589 6  -7041350.399 4
  25393685.417    15259620.687 5   7526399.968 2
  22085455.227   -25006166.104 8 -12332646.656 9
 94  5 10 20 37 30.0050000  0  7 12  9  4  2 26 27  7
  24859580.600    -6773386.548 6  -5313481.894 4
  24125281.155   -10508557.830 7  -8953424.438 6
  24076167.116   -43735364.058 6  -8889999.988 5
  23196106.689   -11269106.264 7  -8776858.325 7
  24624557.823    -9011795.830 6  -6988508.592 4
  25416952.130    15381898.636 5   7621681.318 2
  22095042.440   -24955776.282 8 -12293381.874 9
 94  5 10 20 38  0.0050000  0  7 12  9  4  2 26 27  7
  24844994.468    -6850039.605 6  -5373211.533 4
  24111326.206   -10581883.545 7  -9010561.343 6
  24060944.525   -43815365.372 6  -8952338.604 5
  23205414.916   -11220176.455 7  -8738731.251 7
  24637526.665    -8943654.867 6  -6935411.811 4
  25440256.197    15504342.430 5   7717091.953 2
  22104689.942   -24905075.978 8 -12253875.147 9
 94  5 10 20 38 30.0050000  0  7 12  9  4  2 26 27  7
  24830430.161    -6926632.323 6  -5432894.135 4
  24097420.933   -10654952.363 7  -9067498.069 6
  24045766.722   -43895118.898 6  -9014484.129 5
  23214759.147   -11171058.363 7  -8700457.436 7
  24650557.684    -8875181.240 6  -6882055.834 4
  25463582.778    15626942.463 5   7812624.299 2
  22114398.690   -24854066.725 8 -12214127.685 9
 94  5 10 20 39  0.0050000  0  7 12  9  4  2 26 27  7
  24815857.070    -7003162.550 6  -5492528.036 4
  24083567.613   -10727757.221 7  -9124229.105 6
  24030638.445   -43974635.208 6  -9076444.813 5
  23224145.049   -11121744.247 7  -8662030.871 7
  24663650.910    -8806380.513 6  -6828444.935 4
  25486940.658    15749693.142 5   7908274.044 2
  22124166.288   -24802744.876 8 -12174136.653 9
 94  5 10 20 39 30.0050000  0  7 12  9  4  2 26 27  7
  24801309.880    -7079629.548 6  -5552112.681 4
  24069764.359   -10800293.734 7  -9180751.054 6
  24015549.111   -44053920.780 6  -9138225.730 5
  23233569.714   -11072219.783 7  -8623440.415 7
  24676804.274    -8737251.423 6  -6774578.210 4
  25510330.855    15872589.353 5   8004037.223 3
  22133995.194   -24751092.675 8 -12133888.196 9
 94  5 10 20 40  0.0050000  0  7 12  9  4  2 26 27  7
  24786770.276    -7156026.614 6  -5611642.824 4
  24056015.517   -10872550.838 7  -9237055.266 6
  24000502.768   -44132983.131 6  -9199832.700 5
  23243034.462   -11022486.618 7  -8584687.312 7
  24690019.245    -8667790.717 6  -6720453.026 4
  25533745.726    15995638.260 5   8099919.335 3
  22143889.874   -24699091.886 8 -12093368.112 9
 94  5 10 20 40 30.0050000  0  7 12  9  4  2 26 27  7
  24772244.612    -7232352.434 6  -5671117.458 4
  24042315.242   -10944537.232 7  -9293148.560 6
  23985500.254   -44211829.306 6  -9261271.224 5
  23252536.234   -10972554.407 7  -8545779.130 7
  24703296.094    -8598013.459 6  -6666081.245 4
  25557185.149    16118839.451 5   8195920.089 3
  22153852.337   -24646740.778 8 -12052575.057 9
 94  5 10 20 41  0.0050000  0  7 12  9  4  2 26 27  7
  24757731.749    -7308605.537 6  -5730535.402 4
  24028666.590   -11016257.143 7  -9349034.177 6
  23970539.351   -44290447.182 6  -9322531.834 5
  23262076.260   -10922415.793 7  -8506710.094 7
  24716631.822    -8527933.043 6  -6611473.207 4
  25580657.789    16242193.593 5   8292040.037 3
  22163883.483   -24594026.865 8 -12011499.295 9
 94  5 10 20 41 30.0050000  0  8 12  9  4  2 26 27 24  7
  24743238.912    -7384782.225 6  -5789893.847 4
  24015070.732   -11087706.248 7  -9404708.799 6
  23955626.385   -44368827.383 6  -9383607.264 6
  23271657.267   -10872068.216 7  -8467478.253 7
  24730032.185    -8457543.960 6  -6556624.662 4
  25604166.584    16365695.669 4   8388275.288 3
  25920639.465    -1383991.85014   -199855.247
  22173982.951   -24540952.902 8 -11970142.988 9
 94  5 10 20 42  0.0050000  0  8 12  9  4  2 26 27 24  7
  24728757.977    -7460880.031 6  -5849190.804 4
  24001528.777   -11158886.157 7  -9460173.643 6
  23940757.309   -44446950.030 6  -9444481.984 6
  23281274.279   -10821527.200 7  -8428095.670 7
  24743480.155    -8386852.127 6  -6501540.195 4
  25627696.635    16489346.830 4   8484626.730 3
  25902212.571    -1480853.759 5   -275331.887 1
  22184146.485   -24487540.244 8 -11928522.744 9
 94  5 10 20 42 30.0050000  0  8 12  9  4  2 26 27 24  7
  24714290.683    -7536899.365 6  -5908426.609 4
  23988032.211   -11229793.169 7  -9515425.856 6
  23925947.381   -44524779.131 6  -9505127.983 6
  23290932.423   -10770787.705 7  -8388558.426 7
  24756996.058    -8315870.457 6  -6446229.898 4
  25651255.765    16613142.727 4   8581090.888 3
  25883766.731    -1577779.793 4   -350858.450 1
  22194373.245   -24433797.924 8 -11886645.640 9
 94  5 10 20 43  0.0050000  0  8 12  9  4  2 26 27 24  7
  24699838.977    -7612837.738 6  -5967599.338 4
  23974593.924   -11300421.016 7  -9570460.526 6
  23911198.732   -44602293.886 6  -9565529.029 6
  23300623.544   -10719843.487 7  -8348861.663 7
  24770556.391    -8244606.600 6  -6390699.717 4
  25674831.204    16737087.225 4   8677670.853 3
  25865305.931    -1674765.052 4   -426431.245 1
  22204662.002   -24379726.866 8 -11844512.339 9
 94  5 10 20 43 30.0050000  0  8 12  9  4  2 26 27 24  7
  24685406.459    -7688688.476 6  -6026703.789 4
  23961204.893   -11370769.270 7  -9625277.333 6
  23896509.561   -44679481.907 6  -9625675.504 6
  23310358.764   -10668695.781 7  -8309006.328 7
  24784171.405    -8173048.958 6  -6334940.589 4
  25698451.043    16861180.125 5   8774366.466 3
  25846851.097    -1771793.133 5   -502037.347 1
  22215014.136   -24325336.471 8 -11802130.246 9
 94  5 10 20 44  0.0050000  0  8 12  9  4  2 26 27 24  7
  24670986.981    -7764449.782 6  -6085738.544 5
  23947875.731   -11440834.474 7  -9679873.569 6
  23881883.286   -44756336.181 6  -9685561.883 6
  23320128.701   -10617349.337 7  -8268996.144 7
  24797846.708    -8101200.248 6  -6278954.690 4
  25722090.787    16985411.887 5   8871170.285 3
  25828374.049    -1868851.588 4   -577667.108 1
  22225421.011   -24270637.645 8 -11759507.788 9
 94  5 10 20 44 30.0050000  0  8 12  9  4  2 26 27 24  7
  24656589.718    -7840122.744 6  -6144704.475 5
  23934595.524   -11510607.794 7  -9734242.386 6
  23867320.298   -44832878.258 6  -9745204.996 6
  23329938.120   -10565804.411 7  -8228831.308 7
  24811569.318    -8029061.983 6  -6222743.165 4
  25745762.639    17109770.736 5   8968073.102 3
  25809912.080    -1965922.627 5   -653306.687 2
  22235886.976   -24215634.957 8 -11716648.575 9
 94  5 10 20 45  0.0050000  0  8 12  9  4  2 26 27 24  7
  24642205.856    -7915707.214 6  -6203601.416 5
  23921374.437   -11580090.227 7  -9788384.519 6
  23852806.596   -44909138.340 6  -9804628.379 6
  23339781.835   -10514066.185 7  -8188515.822 7
  24825354.645    -7956626.599 6  -6166300.130 4
  25769445.404    17234242.935 4   9065064.321 3
  25791439.048    -2062983.678 5   -728938.495 2
  22246411.160   -24160334.391 8 -11673557.226 9
 94  5 10 20 45 30.0050000  0  8 12  9  4  2 26 27 24  7
  24627838.992    -7991203.953 6  -6262430.040 5
  23908214.028   -11649269.310 7  -9842290.285 6
  23838347.336   -44985124.292 6  -9863838.148 6
  23349661.046   -10462145.223 7  -8148057.956 7
  24839186.379    -7883891.453 5  -6109623.463 4
  25793155.990    17358809.167 4   9162128.729 3
  25772975.610    -2160040.402 4   -804566.885 2
  22256990.656   -24104747.587 8 -11630242.850 9
 94  5 10 20 46  0.0050000  0  8 12  9  4  2 26 27 24  7
  24613485.349    -8066607.930 6  -6321186.361 5
  23895108.660   -11718125.945 7  -9895944.799 6
  23823943.477   -45060827.781 6  -9922827.836 6
  23359577.491   -10410042.971 7  -8107458.828 7
  24853090.154    -7810869.058 5  -6052722.986 4
  25816870.832    17483469.455 4   9259266.433 2
  25754506.716    -2257087.132 4   -880187.499 2
  22267623.755   -24048868.923 8 -11586701.055 9
 94  5 10 20 46 30.0050000  0  8 12  9  4  2 26 27 24  7
  24599154.370    -8141922.066 6  -6379872.678 5
  23882065.110   -11786665.584 7  -9949352.314 6
  23809587.975   -45136250.706 7  -9981598.874 6
  23369529.491   -10357753.443 7  -8066713.770 7
  24867034.310    -7737572.419 5  -5995608.842 4
  25840612.506    17608229.146 4   9356481.599 2
  25736039.351    -2354123.155 5   -955799.753 2
  22278315.733   -23992687.974 8 -11542923.710 9
 94  5 10 20 47  0.0050000  0  8 12  9  4  2 26 27 24  7
  24584843.237    -8217142.115 6  -6438485.667 5
  23869083.108   -11854891.823 7 -10002515.602 6
  23795294.950   -45211374.385 7 -10040136.745 6
  23379516.987   -10305272.269 7  -8025819.379 7
  24881033.719    -7664008.658 5  -5938286.542 4
  25864379.213    17733100.641 4   9453783.930 2
  25717565.300    -2451157.708 4  -1031410.895 2
  22289062.183   -23936200.120 8 -11498907.218 9
 94  5 10 20 47 30.0050000  0  8 12  9  4  2 26 27 24  7
  24570546.854    -8292267.026 6  -6497024.553 5
  23856155.187   -11922809.670 7 -10055438.583 6
  23781055.798   -45286179.928 7 -10098426.735 6
  23389541.297   -10252594.966 7  -7984772.170 6
  24895081.903    -7590187.439 5  -5880763.623 4
  25888156.202    17858099.809 4   9551185.667 2
  25699106.629    -2548198.723 5  -1107027.113 2
  22299867.903   -23879409.298 8 -11454654.641 9
 94  5 10 20 48  0.0050000  0  8 12  9  4  2 26 27 24  7
  24556271.097    -8367294.781 6  -6555487.681 5
  23843289.204   -11990437.899 7 -10108135.896 6
  23766882.060   -45360667.497 7 -10156468.939 6
  23399601.523   -10199706.773 7  -7943560.618 6
  24909183.721    -7516105.332 5  -5823037.421 4
  25911974.953    17983239.231 4   9648696.707 2
  25680642.681    -2645229.927 4  -1182635.653 3
  22310734.630   -23822312.442 8 -11410163.596 9
 94  5 10 20 48 30.0050000  0  8 12  9  4  2 26 27 24  7
  24542013.807    -8442226.786 6  -6613876.266 5
  23830472.567   -12057782.822 7 -10160612.459 6
  23752768.640   -45434846.401 7 -10214270.621 6
  23409709.355   -10146595.336 7  -7902175.123 6
  24923334.405    -7441752.974 5  -5765100.618 4
  25935810.042    18108519.593 4   9746317.619 2
  25662169.530    -2742265.135 5  -1258247.306 3
  22321655.979   -23764921.709 8 -11365443.559 9
 94  5 10 20 49  0.0050000  0  8 12  9  4  2 26 27 24  7
  24527774.175    -8517055.523 6  -6672184.328 5
  23817713.610   -12124825.244 7 -10212853.288 6
  23738710.892   -45508716.135 7 -10271831.372 6
  23419862.007   -10093250.550 7  -7860607.787 6
  24937531.766    -7367129.331 5  -5706952.416 4
  25959682.965    18233936.036 5   9844044.590 2
  25643701.865    -2839308.679 5  -1333865.465 3
  22332633.090   -23707244.617 8 -11320500.386 9
 94  5 10 20 49 30.0050000  0  8 12  9  4  2 26 27 24  7
  24513556.098    -8591775.015 6  -6730407.287 5
  23805015.331   -12191550.565 7 -10264847.033 6
  23724714.152   -45582281.084 7 -10329154.655 6
  23430062.415   -10039658.052 7  -7818847.435 6
  24951784.169    -7292219.071 5  -5648580.890 4
  25983567.850    18359477.814 5   9941869.162 2
  25625239.596    -2936348.845 5  -1409481.063 3
  22343664.223   -23649271.431 8 -11275326.491 9
 94  5 10 20 50  0.0050000  0  8 12  9  4  2 26 27 24  7
  24499356.129    -8666382.534 6  -6788542.999 5
  23792382.077   -12257944.460 7 -10316582.521 6
  23710771.345   -45655545.351 7 -10386243.667 6
  23440309.082    -9985816.373 7  -7776892.914 6
  24966089.006    -7217024.248 5  -5589987.641 4
  26007478.877    18485124.097 5  10039775.214 2
  25606775.948    -3033381.331 5  -1485090.617 3
  22354752.647   -23590994.213 8 -11229915.687 9
 94  5 10 20 50 30.0050000  0  8 12  9  4  2 26 27 24  7
  24485182.391    -8740879.362 6  -6846592.429 5
  23779812.109   -12324003.004 7 -10368056.693 6
  23696883.069   -45728510.394 7 -10443099.491 6
  23450597.419    -9931739.132 7  -7734754.842 7
  24980447.926    -7141569.877 5  -5531192.103 4
  26031411.429    18610865.810 5  10137755.599 2
  25588311.131    -3130420.087 5  -1560705.084 3
  22365901.059   -23532411.751 8 -11184267.034 9
 94  5 10 20 51  0.0050000  0  8 12  9  4  2 26 27 24  7
  24471026.251    -8815262.861 6  -6904553.569 5
  23767306.866   -12389732.898 7 -10419274.781 7
  23683060.059   -45801166.347 7 -10499714.462 6
  23460929.466    -9877439.834 7  -7692443.731 7
  24994856.581    -7065873.760 5  -5472208.256 4
  26055352.495    18736700.709 5  10235808.622 2
  25569843.586    -3227443.660 5  -1636307.732 3
  22377111.678   -23473501.768 8 -11138363.152 9
 94  5 10 20 51 30.0050000  0  8 12  9  4  2 26 27 24  7
  24456890.707    -8889528.263 6  -6962422.684 5
  23754856.035   -12455145.937 7 -10470245.974 7
  23669293.229   -45873498.479 7 -10556077.112 6
  23471302.735    -9822926.297 7  -7649965.689 6
  25009304.928    -6989930.916 5  -5413032.122 4
  26079316.795    18862632.275 4  10333936.941 2
  25551390.760    -3324431.990 5  -1711882.940 3
  22388385.133   -23414257.867 8 -11092199.098 9
 94  5 10 20 52  0.0050000  0  8 12  9  4  2 26 27 24  7
  24442783.583    -8963666.448 6  -7020192.684 5
  23742468.941   -12520244.894 7 -10520972.415 7
  23655595.622   -45945478.638 7 -10612165.500 6
  23481714.527    -9768211.041 7  -7607330.459 7
  25023811.286    -6913752.907 5  -5353672.731 4
  26103304.089    18988668.216 4  10432146.557 2
  25532940.573    -3421378.066 5  -1787425.203 3
  22399722.235   -23354685.468 8 -11045779.069 9
 94  5 10 20 52 30.0050000  0  8 12  9  4  2 26 27 24  7
  24428698.494    -9037675.580 6  -7077862.110 5
  23730137.698   -12585036.098 7 -10571459.049 7
  23641967.716   -46017097.023 7 -10667971.961 6
  23492164.423    -9713312.300 7  -7564552.269 6
  25038356.407    -6837343.688 5  -5294133.224 4
  26127312.068    19114820.272 4  10530446.694 2
  25514505.885    -3518273.604 5  -1862928.098 3
  22411118.006   -23294794.547 8 -10999110.828 9
 94  5 10 20 53  0.0050000  0  8 12  9  4  2 26 27 24  7
  24414641.945    -9111552.521 6  -7135428.544 5
  23717871.839   -12649503.571 7 -10621693.432 7
  23628412.121   -46088344.975 7 -10723489.796 6
  23502641.450    -9658234.672 7  -7521634.684 6
  25052931.596    -6760682.798 5  -5234397.553 4
  26151333.479    19241084.109 4  10628833.904 2
  25496084.808    -3615106.579 5  -1938382.239 3
  22422573.705   -23234596.073 8 -10952202.934 9
 94  5 10 20 53 30.0050000  0  8 12  9  4  2 26 27 24  7
  24400614.056    -9185295.578 6  -7192890.653 5
  23705664.740   -12713637.300 7 -10671667.760 7
  23614925.237   -46159216.554 7 -10778714.363 7
  23513156.880    -9602977.485 7  -7478577.168 6
  25067581.195    -6683759.955 5  -5174457.813 4
  26175379.082    19367455.168 4  10727304.649 2
  25477665.169    -3711886.506 5  -2013795.058 3
  22434078.571   -23174126.391 8 -10905083.739 9
 94  5 10 20 54  0.0050000  0  8 12  9  4  2 26 27 24  7
  24386604.995    -9258902.519 6  -7250246.690 5
  23693526.323   -12777430.393 7 -10721376.636 7
  23601511.084   -46229707.708 7 -10833642.480 7
  23523704.478    -9547546.107 7  -7435383.940 6
  25082252.168    -6606580.573 5  -5114318.169 3
  26199454.695    19493936.017 4  10825860.959 2
  25459260.161    -3808620.526 5  -2089172.115 3
  22445639.527   -23113399.405 8 -10857764.017 9
 94  5 10 20 54 30.0050000  0  8 12  9  4  2 26 27 24  7
  24372623.634    -9332374.510 6  -7307497.571 5
  23681456.079   -12840873.909 7 -10770813.143 7
  23588163.304   -46299845.911 7 -10888295.566 7
  23534293.747    -9491913.716 7  -7392034.077 6
  25096991.914    -6529145.433 5  -5053979.207 3
  26223545.987    19620527.106 3  10924503.131 2
  25440852.544    -3905309.734 5  -2164514.237 3
  22457241.285   -23052417.574 8 -10810245.740 9
 94  5 10 20 55  0.0050000  0  7 12  9  4  2 26 24  7
  24358668.475    -9405709.406 6  -7364641.650 5
  23669451.160   -12903962.130 7 -10819972.773 7
  23574882.468   -46369638.499 7 -10942679.358 7
  23544921.480    -9436047.976 7  -7348502.366 6
  25111769.344    -6451459.723 5  -4993444.986 3
  25422450.084    -4001957.209 5  -2239823.812 3
  22468893.798   -22991187.298 8 -10762533.850 9
 94  5 10 20 55 30.0050000  0  7 12  9  4  2 26 24  7
  24344741.166    -9478904.869 6  -7421677.046 5
  23657509.977   -12966703.257 7 -10868861.946 7
  23561663.570   -46439090.124 7 -10996797.448 7
  23555601.077    -9379930.578 7  -7304774.570 6
  25126599.597    -6373537.358 5  -4932726.387 3
  25404078.592    -4098557.747 5  -2315096.804 3
  22480591.880   -22929702.859 8 -10714623.913 9
 94  5 10 20 56  0.0050000  0  7 12  9  4  2 26 24  7
  24330833.734    -9551957.442 6  -7478601.091 5
  23645638.345   -13029091.494 7 -10917476.146 7
  23548511.495   -46508219.864 7 -11050664.733 7
  23566328.460    -9323557.491 7  -7260847.536 6
  25141473.530    -6295387.514 5  -4871830.550 3
  25385708.839    -4195093.173 5  -2390319.092 3
  22492347.162   -22867933.804 8 -10666492.214 9
 94  5 10 20 56 30.0050000  0  7 12  9  4  2 26 24  7
  24316962.517    -9624866.545 6  -7535413.372 5
  23633831.619   -13091121.491 7 -10965811.211 7
  23535417.909   -46577025.223 7 -11104279.230 7
  23577109.177    -9266915.561 7  -7216711.020 6
  25156385.986    -6217018.912 5  -4810764.211 3
  25367359.263    -4291560.044 5  -2465487.940 3
  22504156.197   -22805871.663 8 -10618132.107 9
 94  5 10 20 57  0.0050000  0  7 12  9  4  2 26 24  7
  24303113.754    -9697628.251 6  -7592110.771 5
  23622100.020   -13152791.178 7 -11013865.498 7
  23522389.798   -46645475.571 7 -11157617.118 7
  23587930.635    -9210030.912 7  -7172385.363 6
  25171351.296    -6138430.020 5  -4749526.201 3
  25349010.525    -4387941.486 5  -2540590.195 3
  22516023.301   -22743512.554 8 -10569540.617 9
